GFSSE_sfc_temp_000.txt.gz
Temp
81 78 74 75 75 75 75 75 75 77 78 77 77 77 76 77 77 76 77 77 77 77 77 77 77 77 78 78 77 76 75 75 75 76 76 77 77 77 77 76 76 79 76
83 80 73 74 74 75 75 76 76 76 77 79 77 77 76 76 76 73 72 72 72 71 72 76 77 77 78 77 75 75 75 74 74 75 75 76 76 77 76 75 75 79 76
82 83 79 73 75 75 75 76 76 76 76 76 77 77 76 73 73 72 72 69 69 70 72 72 75 77 77 75 75 75 74 74 74 74 75 74 74 76 76 74 75 76 75
82 81 78 73 74 75 75 76 76 76 75 75 76 77 74 73 72 72 72 71 69 71 74 73 73 75 76 73 73 74 73 73 73 73 72 77 81 76 76 74 74 75 75
82 81 76 73 73 74 75 75 75 75 75 74 75 75 75 73 72 73 72 72 72 73 74 75 70 71 74 72 71 72 72 73 72 73 73 77 77 77 76 75 74 74 74
83 82 72 72 73 75 75 75 75 75 74 73 73 74 74 72 73 72 71 71 72 71 73 68 68 68 70 71 71 71 72 71 71 71 75 77 77 76 76 74 74 74 73
81 82 77 71 72 73 73 73 72 73 73 73 73 73 73 73 73 72 72 72 73 69 68 67 66 67 69 70 72 72 71 70 73 72 77 74 74 75 76 74 73 73 73
83 81 79 72 72 72 72 71 71 72 73 73 73 72 72 72 72 71 70 71 71 71 70 69 69 69 70 71 71 70 70 68 73 72 75 79 75 75 76 74 73 72 72
86 85 83 77 74 71 70 70 70 71 72 73 73 73 71 70 68 68 69 68 69 69 69 71 70 70 70 70 70 69 68 68 66 71 76 76 74 75 75 74 73 72 72
84 85 83 84 79 73 71 70 69 70 71 72 71 71 71 68 67 67 67 68 68 68 66 66 66 68 69 69 68 68 67 67 66 70 71 72 74 75 75 74 73 72 72
83 81 80 81 80 79 79 73 70 70 70 69 69 70 67 72 70 68 67 67 68 67 67 66 66 65 66 67 67 68 67 66 69 69 69 71 73 75 75 74 73 72 72
79 79 78 75 75 76 82 78 75 77 75 73 74 72 72 71 67 68 66 66 66 65 65 65 64 64 64 61 62 66 63 66 68 69 69 70 72 75 75 74 72 72 72
78 77 76 74 74 75 75 74 74 74 73 72 72 71 68 68 67 66 66 66 64 63 62 62 61 60 59 59 59 61 63 63 66 67 70 69 71 74 75 74 73 72 72
79 78 75 74 73 73 74 75 73 73 72 71 70 71 68 66 65 65 64 64 63 65 64 60 58 58 58 59 59 59 60 62 64 67 67 67 68 72 74 74 73 73 72
77 78 75 73 72 73 73 70 70 69 68 69 69 69 68 67 64 65 64 63 63 63 62 61 60 58 58 59 59 60 60 60 62 63 65 65 64 67 71 74 74 73 72
78 76 75 73 72 73 72 70 68 67 67 67 67 67 68 66 64 64 63 63 62 62 62 60 60 61 61 60 60 61 61 61 62 63 65 65 63 64 66 70 73 73 73
78 77 74 73 73 71 71 69 68 67 68 66 66 66 66 66 63 63 62 61 61 61 60 58 57 57 57 60 60 61 61 61 62 62 63 65 64 62 63 65 68 70 71
77 75 74 77 72 70 69 68 69 68 66 66 65 64 65 65 65 63 62 60 59 60 59 57 56 56 56 56 56 56 58 61 62 63 64 64 64 66 63 63 64 66 68
76 75 73 72 70 70 69 68 68 67 66 66 65 64 64 65 65 62 61 59 59 59 58 57 56 55 54 55 57 57 56 57 61 64 64 63 63 64 66 64 62 63 65
74 73 72 71 69 69 68 66 66 65 66 66 65 65 64 64 64 62 61 60 60 59 57 56 55 55 55 55 60 58 55 57 59 60 62 65 64 65 64 64 63 61 62
72 71 70 69 68 67 64 62 62 61 63 64 65 66 64 64 64 62 60 60 60 58 57 57 55 54 52 54 52 51 52 56 56 59 59 61 62 63 64 64 64 65 64
70 70 69 69 68 67 66 65 64 63 64 65 64 63 64 63 63 63 61 60 59 57 56 56 55 52 52 53 49 49 46 51 54 56 58 59 59 61 63 64 64 65 65
68 67 70 69 69 67 65 66 64 63 62 61 62 62 62 63 63 62 61 59 58 57 55 54 54 53 50 52 53 48 45 44 48 54 54 56 55 57 59 60 61 64 64
68 68 68 69 69 69 66 64 61 61 60 62 60 63 64 62 61 62 61 60 58 57 55 55 57 52 51 48 51 56 51 50 47 46 50 52 54 54 55 57 58 60 61
69 66 66 67 67 68 66 63 62 59 60 60 59 61 60 61 62 63 61 59 56 55 54 53 53 52 51 50 50 49 49 50 50 48 45 49 51 53 52 54 54 54 58
69 67 66 66 68 67 65 63 60 58 58 57 57 55 57 57 56 57 58 54 54 53 52 51 51 51 50 50 50 50 50 48 48 48 47 48 48 51 53 52 50 52 54

GFSSE_sfc_temp_003.txt.gz
Temp
70 71 73 74 74 74 74 74 74 75 76 76 76 76 76 76 74 73 72 73 74 76 75 74 74 76 78 78 77 76 75 75 75 76 76 76 78 78 77 75 75 77 76
72 72 72 73 74 74 74 74 74 75 76 76 77 76 76 73 72 72 73 74 73 73 74 73 73 75 77 77 75 74 74 74 74 74 75 76 76 77 76 74 75 76 75
75 74 73 72 73 74 74 75 75 75 76 76 76 76 74 72 73 73 72 72 72 74 72 72 72 73 75 75 74 74 73 73 73 74 74 70 70 76 76 74 75 75 75
76 72 73 72 73 74 74 74 74 75 75 75 75 74 73 73 74 74 73 71 71 72 72 71 72 71 70 70 73 73 72 71 72 73 71 74 76 76 76 74 75 76 75
73 71 72 72 72 73 73 73 73 73 73 73 74 74 72 73 73 74 72 70 71 71 72 73 71 70 69 68 69 70 72 70 70 72 69 71 72 76 76 75 74 74 74
68 68 70 71 72 73 73 73 73 73 72 72 73 73 73 73 73 73 72 71 71 72 72 72 70 69 69 69 69 69 69 71 70 69 70 73 73 76 76 74 73 73 73
68 69 69 70 71 72 73 72 72 72 72 72 72 72 73 72 72 71 70 70 71 71 70 69 71 70 69 68 67 68 69 70 71 69 69 71 71 75 76 74 73 73 73
73 70 71 71 71 71 71 71 71 71 71 71 71 71 71 71 71 71 71 70 71 70 69 68 68 69 69 68 68 69 69 68 72 69 69 69 72 75 76 74 73 72 72
74 72 68 70 71 70 70 70 70 70 70 70 70 69 69 68 68 69 69 69 69 70 70 69 69 69 69 68 69 68 68 68 67 67 71 70 74 75 76 74 73 72 72
73 73 69 68 69 67 67 69 69 69 69 69 69 69 66 67 67 67 67 68 69 68 69 69 68 69 69 68 68 67 67 67 65 65 66 67 73 76 76 74 73 72 72
74 71 70 69 70 67 68 69 69 69 69 68 68 68 65 65 64 64 66 67 68 68 68 68 67 67 67 66 66 66 66 63 65 65 65 70 72 76 76 74 73 72 72
68 67 68 68 68 70 76 67 67 68 66 66 67 65 65 63 62 64 65 66 66 66 65 65 65 65 64 60 60 64 61 62 63 64 65 68 72 75 76 73 72 72 72
68 68 67 67 67 67 68 67 66 66 65 65 65 64 63 62 61 61 60 61 59 62 59 60 60 59 59 58 58 58 60 61 60 63 66 67 70 74 75 74 72 72 72
67 66 66 66 67 65 65 64 64 65 64 63 64 63 61 59 59 59 58 58 58 58 58 61 57 56 56 58 57 57 59 59 61 61 63 67 69 72 75 75 74 73 72
68 66 64 65 65 66 64 63 63 61 61 61 61 63 61 59 59 59 58 58 58 59 59 57 57 56 56 57 57 57 57 59 60 60 61 64 65 68 70 73 75 74 72
70 66 64 64 65 65 63 62 61 60 61 60 60 61 62 59 58 58 58 58 57 57 56 55 54 55 56 58 58 58 58 58 59 60 61 62 63 65 67 69 71 73 74
67 66 65 65 64 64 62 62 60 60 61 59 60 61 61 60 59 57 56 55 55 56 56 54 54 53 53 55 55 57 58 61 61 60 61 62 63 62 63 66 68 69 70
66 65 66 71 64 63 61 61 61 60 59 59 59 59 61 61 60 58 56 55 56 55 55 54 52 51 51 51 51 52 54 56 57 60 61 61 62 64 63 63 65 66 68
66 65 64 64 62 62 61 60 59 59 58 58 58 58 60 61 61 57 55 56 56 54 54 54 52 51 50 50 52 52 51 52 54 60 60 62 61 62 63 63 62 63 65
64 64 64 63 63 62 60 59 58 58 59 57 57 58 60 59 60 57 55 55 56 54 52 53 52 52 51 50 55 54 50 51 52 54 57 61 62 60 62 63 62 61 61
62 64 64 62 61 60 58 56 56 55 57 56 58 59 59 58 60 58 55 55 55 54 53 53 52 51 50 50 48 48 49 51 51 53 53 55 58 61 62 62 63 63 61
62 62 62 62 61 60 58 57 57 56 56 57 58 57 58 58 58 58 56 55 55 53 54 53 51 49 49 50 47 45 42 47 49 52 53 54 55 57 59 61 62 61 61
60 61 62 62 61 59 60 58 56 55 55 56 56 55 56 58 58 58 56 54 54 52 51 51 51 50 47 49 49 46 44 41 45 49 50 51 51 52 55 59 61 59 60
60 60 63 63 62 61 58 57 56 55 55 56 56 56 56 57 57 58 58 56 54 52 51 50 53 49 48 45 47 52 48 47 44 44 47 49 52 52 50 54 58 60 60
60 58 60 61 62 62 59 56 56 54 54 56 56 56 54 54 56 57 55 53 52 50 51 49 48 48 47 46 46 45 46 47 46 45 43 47 48 51 52 49 51 53 55
60 58 57 58 60 60 60 59 56 56 58 54 53 52 52 52 52 52 53 50 49 49 50 49 49 48 46 46 46 45 44 43 45 45 44 45 45 45 49 52 50 50 51

GFSSE_sfc_temp_006.txt.gz
Temp
68 69 73 74 74 74 74 74 74 75 75 76 76 76 74 74 74 75 76 77 77 77 77 76 76 76 76 77 76 75 73 74 74 75 76 77 78 77 76 75 75 76 75
68 71 72 73 73 74 74 74 74 75 76 76 76 75 74 73 74 75 76 75 77 77 77 76 74 75 76 75 74 74 73 71 73 73 75 76 77 77 76 74 74 74 75
70 71 72 72 73 74 74 74 75 75 75 76 76 74 74 74 74 75 75 74 73 77 74 74 74 74 74 71 70 71 74 72 71 72 74 69 69 75 75 74 75 75 75
71 71 70 72 73 73 73 73 74 75 75 74 75 74 74 74 74 75 74 72 72 73 74 74 74 72 71 71 68 68 71 73 72 72 70 71 73 75 75 75 74 75 75
68 69 70 71 72 73 73 73 73 73 73 73 73 74 74 74 74 74 73 71 71 72 73 73 74 72 71 70 70 68 71 71 71 72 69 69 69 75 75 75 74 75 74
66 67 69 70 71 72 72 73 72 72 72 72 72 73 73 74 74 74 72 70 71 72 72 74 72 71 70 69 68 69 70 70 69 70 69 70 71 75 76 74 73 73 73
65 67 68 69 71 72 73 72 72 72 71 71 72 72 72 72 72 71 70 70 71 71 71 71 71 70 69 69 69 68 68 68 68 68 68 68 70 74 76 74 73 72 72
68 67 69 70 71 71 72 71 71 70 70 70 70 71 71 71 70 70 70 70 70 71 69 69 69 70 68 68 68 67 67 68 69 68 67 67 71 74 76 74 73 72 72
70 67 67 68 70 70 69 69 69 70 69 69 69 69 68 68 68 69 69 69 70 70 69 69 68 68 68 68 68 67 66 67 66 66 67 67 71 74 76 74 73 72 72
68 67 65 66 67 66 65 68 68 68 69 68 68 67 67 67 67 68 68 68 68 69 69 69 69 68 68 68 67 67 66 66 64 65 65 67 71 74 75 74 73 72 72
68 66 65 65 66 65 65 68 68 69 68 68 68 66 64 63 63 63 66 67 67 67 67 67 66 66 65 65 65 65 66 63 62 64 64 66 71 75 75 74 73 72 72
65 64 64 64 65 65 72 66 65 67 65 65 65 64 63 61 60 63 64 66 66 65 65 65 64 64 62 59 58 62 60 61 61 62 63 67 70 74 75 73 72 72 72
65 65 64 65 64 64 65 63 63 63 63 63 63 62 61 61 60 59 58 59 57 61 57 58 58 57 57 57 57 57 58 59 59 61 64 65 69 73 75 73 72 72 72
64 63 62 63 64 62 61 62 62 62 62 61 61 61 59 58 57 57 56 57 56 56 56 56 55 56 55 56 56 56 56 56 57 60 63 64 66 70 73 74 73 72 72
63 62 62 62 63 63 62 60 60 59 59 59 59 60 59 58 57 57 57 56 56 56 56 55 57 58 57 58 58 56 56 56 57 58 58 62 64 66 69 72 73 73 72
64 62 61 62 62 63 60 59 58 58 58 58 58 59 59 57 56 56 56 56 55 55 54 53 52 52 52 53 55 59 59 58 57 58 58 59 62 64 66 69 70 72 72
63 62 61 61 61 61 61 60 59 58 59 57 57 58 59 58 56 55 54 54 54 54 54 53 52 51 50 52 52 53 54 55 56 56 57 59 60 62 63 65 67 69 70
62 63 63 67 61 60 59 59 59 58 56 56 56 57 58 59 58 55 53 53 53 53 52 51 50 49 48 48 47 48 50 52 53 54 55 57 59 62 62 63 64 66 67
62 62 61 61 61 60 58 57 57 58 56 56 55 56 58 59 58 55 54 53 54 53 51 52 50 49 48 49 50 50 49 49 50 55 55 56 57 60 61 62 62 62 63
60 61 61 61 61 60 57 56 55 55 55 54 55 55 58 57 58 54 53 53 53 51 51 50 50 49 49 49 53 51 48 49 48 48 50 55 55 57 60 61 61 60 60
59 61 60 60 60 57 55 54 53 54 54 54 54 57 56 57 57 55 53 53 52 51 51 50 50 49 48 48 46 47 47 48 49 52 50 50 52 56 57 58 60 61 62
59 60 60 60 59 58 55 55 55 54 54 56 55 54 56 56 55 55 53 52 52 50 50 50 50 47 47 47 45 42 41 46 47 49 51 50 49 51 56 56 57 61 60
58 59 61 60 60 58 57 55 53 52 52 52 53 53 54 55 56 55 54 52 51 50 49 49 49 47 45 46 47 45 39 38 44 48 48 49 49 48 49 52 56 58 58
58 57 58 60 59 59 57 54 53 58 57 59 59 54 54 56 56 55 54 52 50 49 48 48 49 46 45 43 44 48 45 42 39 41 46 49 50 51 49 48 52 55 57
59 57 57 58 58 60 57 55 53 54 56 58 51 52 51 52 53 53 53 50 49 49 48 47 48 45 45 43 43 42 42 42 41 40 39 45 50 50 49 47 46 49 54
56 56 57 56 58 58 57 56 52 52 55 52 52 51 49 47 47 48 50 48 47 47 47 47 47 45 45 46 45 45 42 40 42 40 40 41 43 48 50 51 51 46 46

GFSSE_sfc_temp_009.txt.gz
Temp
66 69 72 74 74 74 74 74 74 75 75 76 75 75 74 74 75 75 75 76 77 78 79 78 77 77 77 77 76 75 75 74 74 75 76 77 77 77 76 75 74 74 75
66 69 72 73 73 74 74 74 74 75 75 76 75 74 74 74 75 76 76 76 77 77 76 75 76 76 76 74 73 74 74 73 73 73 75 76 77 76 76 74 72 73 75
67 70 71 72 73 74 74 75 75 75 76 76 75 74 74 74 75 75 75 73 74 75 74 74 74 75 74 74 73 73 72 73 72 73 74 70 70 76 76 74 73 74 74
68 69 70 72 72 73 73 73 74 75 75 75 75 74 74 74 74 75 73 71 72 73 74 75 75 74 74 73 73 73 72 72 72 72 71 70 72 75 76 75 74 75 75
66 67 69 71 71 72 72 72 73 73 73 73 73 73 73 74 74 74 72 71 72 72 73 73 74 73 71 70 71 71 71 71 71 71 68 69 69 74 76 75 75 75 74
65 66 68 70 71 72 72 72 72 72 72 72 72 72 73 73 73 73 71 71 71 71 73 73 73 72 70 69 69 69 69 68 67 66 68 70 70 73 75 74 73 73 73
64 65 67 69 71 72 73 72 72 71 71 71 71 72 72 72 72 71 71 70 71 71 71 71 72 70 69 68 69 68 68 68 66 67 66 66 68 73 75 74 73 72 73
65 66 67 70 71 71 71 71 70 70 70 70 70 71 71 71 70 70 70 70 70 70 70 69 69 68 69 68 68 67 67 67 68 65 67 65 68 73 75 75 72 72 72
66 65 66 67 69 69 69 69 69 69 69 69 69 69 69 68 68 69 69 70 70 69 69 69 68 67 68 68 67 66 66 66 65 65 66 65 70 72 74 75 73 72 72
64 65 64 65 65 64 64 67 67 68 68 68 68 67 67 67 67 67 67 68 68 68 68 68 67 67 67 67 66 65 64 65 62 64 64 63 68 73 75 74 74 72 72
66 64 64 64 64 63 63 66 67 68 68 67 67 66 63 62 61 62 66 66 67 66 66 66 65 65 64 63 64 64 64 61 61 61 63 66 69 72 75 73 73 72 72
63 63 63 63 64 63 69 64 63 65 64 64 64 63 62 60 60 62 63 65 65 65 64 64 64 62 60 57 57 60 58 59 59 60 61 65 68 71 73 73 72 72 72
63 63 62 63 63 62 63 62 61 62 61 62 62 62 60 60 59 58 57 58 56 61 56 57 56 55 55 54 55 55 56 56 56 59 61 64 66 69 72 73 72 72 72
62 62 62 61 61 60 61 62 62 61 61 60 60 60 58 57 56 57 56 56 55 55 55 55 54 55 55 55 55 55 55 55 55 56 58 62 64 67 69 71 72 72 71
62 61 60 61 60 61 60 58 59 59 60 59 59 59 59 57 56 56 55 55 54 55 54 54 54 54 55 55 55 56 56 57 56 56 56 61 62 64 66 69 71 72 72
61 61 60 59 60 60 58 58 58 57 58 57 57 57 58 57 56 56 55 55 54 54 53 52 51 50 50 51 52 53 54 55 55 56 55 56 60 62 64 66 68 70 71
61 61 59 59 59 59 59 58 57 56 57 56 56 57 57 56 55 55 54 54 54 53 53 52 50 50 49 50 50 50 50 52 52 53 53 55 58 60 61 64 65 66 68
59 59 59 64 59 58 57 57 57 56 55 55 55 55 56 57 55 53 52 52 53 52 52 50 48 48 47 47 46 47 48 50 50 51 52 52 53 57 59 61 63 65 66
58 59 59 59 58 57 56 56 55 56 54 54 54 54 55 56 56 54 52 52 52 51 50 49 48 48 47 47 49 48 48 47 48 52 52 52 52 53 55 60 61 61 63
58 59 59 58 58 57 55 54 53 53 53 52 53 54 55 55 55 53 52 52 51 50 49 48 48 47 47 47 51 50 47 47 47 47 48 52 51 53 53 54 56 59 60
56 57 58 58 57 54 53 52 52 52 52 52 52 55 55 55 55 53 52 52 50 50 50 48 48 47 46 45 45 45 45 46 47 47 48 48 48 50 50 52 51 54 57
57 57 57 58 58 56 54 54 53 52 52 53 53 53 55 55 55 54 53 53 52 50 48 48 47 45 46 45 44 41 40 43 44 48 47 48 47 47 49 51 51 52 53
55 56 58 58 58 57 55 53 52 51 51 50 52 51 54 55 57 54 54 53 52 51 50 48 47 46 44 44 45 43 38 36 39 44 46 46 45 46 46 48 50 51 52
57 55 56 57 56 57 55 54 51 54 55 59 57 56 56 53 56 57 56 53 52 48 46 45 47 45 44 42 43 46 43 42 36 35 41 43 45 46 45 45 46 50 50
55 54 53 54 56 56 55 54 52 50 53 55 54 50 51 51 52 54 54 52 49 48 48 46 46 44 44 43 43 41 40 39 39 36 36 41 43 44 45 44 45 45 48
53 52 53 55 56 57 56 54 51 49 50 49 50 48 50 47 46 48 49 49 48 47 46 44 46 46 44 43 44 43 42 41 39 36 34 38 39 42 44 45 45 44 45

GFSSE_sfc_temp_012.txt.gz
Temp
64 67 73 74 74 74 73 73 74 74 75 75 75 75 74 75 75 75 76 76 76 77 77 77 77 77 77 77 76 75 75 75 75 76 76 77 77 77 76 75 74 75 75
66 66 72 73 73 74 74 73 74 75 75 75 75 74 74 75 75 75 75 74 76 75 76 76 76 76 75 75 74 75 74 74 73 74 75 76 77 77 76 74 74 74 75
66 67 70 72 73 74 74 74 75 75 76 75 75 74 74 75 75 75 73 73 74 75 75 75 75 75 74 74 74 73 74 73 73 73 74 71 72 76 76 74 73 74 75
67 67 69 72 72 73 73 73 74 75 75 75 74 74 74 74 75 75 71 72 73 74 74 75 75 74 75 73 73 72 72 73 72 72 71 71 72 75 76 75 74 75 75
66 66 69 71 71 72 72 72 73 73 73 73 73 74 74 74 74 73 70 71 71 70 73 74 74 74 72 71 70 70 70 70 69 69 68 70 70 73 75 74 74 74 74
64 65 68 70 71 72 72 72 72 72 72 72 72 73 73 73 73 72 72 71 72 72 73 73 73 72 70 69 69 69 69 69 68 66 67 68 71 73 75 73 73 73 73
63 64 66 69 71 72 73 72 72 71 71 71 71 72 72 72 72 71 71 71 71 71 71 71 70 70 69 68 69 68 68 68 67 65 67 66 67 73 75 75 73 73 73
63 64 65 70 71 71 71 71 70 70 70 70 70 70 71 70 70 70 70 70 70 70 70 70 69 68 68 68 68 67 66 67 66 65 66 67 68 72 75 74 73 72 73
64 64 64 65 68 69 69 69 69 69 69 69 69 68 68 68 68 68 69 69 69 69 69 68 68 68 68 67 66 65 65 66 63 63 65 64 68 71 73 74 73 72 72
63 64 63 63 64 63 63 67 68 68 68 68 68 67 66 66 67 67 66 68 68 68 67 66 66 66 65 65 65 64 64 64 61 62 62 63 68 71 73 73 74 73 72
64 63 63 63 63 62 62 65 67 68 67 67 67 66 63 61 60 61 65 66 66 66 66 65 65 64 63 62 63 63 62 59 60 61 61 65 68 71 73 73 72 72 72
62 63 63 63 63 62 67 63 62 64 63 63 63 62 61 60 59 61 63 65 65 65 64 64 63 62 59 55 55 59 56 57 58 59 60 64 67 70 71 71 72 72 71
63 63 63 63 62 62 62 61 60 61 61 61 61 61 60 59 58 57 57 57 55 61 55 56 55 55 55 54 54 55 55 55 55 57 59 63 65 68 70 70 71 71 71
61 63 63 62 61 60 60 60 60 60 60 60 60 60 58 57 56 56 55 55 55 54 54 54 54 54 55 55 55 55 55 55 55 56 57 61 63 66 68 69 70 71 71
60 61 60 60 59 59 59 59 59 60 60 60 59 59 58 56 55 55 55 54 54 54 54 54 53 52 52 53 53 54 54 55 55 55 55 60 62 64 66 68 69 70 70
60 60 59 58 58 58 56 57 57 57 57 57 57 58 58 57 55 55 55 54 54 54 53 52 51 50 49 50 51 52 52 52 53 53 53 53 59 61 63 65 67 68 69
60 59 58 58 58 57 57 57 55 55 56 55 55 56 56 57 55 55 54 54 54 53 52 51 50 49 48 49 49 50 50 51 52 52 52 53 54 58 60 62 64 65 66
58 58 57 62 58 57 56 55 55 55 54 54 54 54 55 56 55 53 52 52 53 52 51 50 48 48 47 47 46 47 48 49 50 51 52 51 52 54 56 60 62 63 65
59 58 57 58 57 56 55 54 54 54 53 53 52 52 54 55 55 52 51 51 51 50 49 49 47 47 46 46 47 47 47 47 49 52 51 52 52 52 53 57 59 60 61
56 57 58 57 56 55 53 52 52 51 52 51 52 52 54 54 54 53 51 51 50 49 48 46 47 46 47 47 51 50 46 47 47 47 49 52 50 52 52 53 52 53 57
54 56 57 56 56 53 52 52 51 52 52 52 52 53 53 54 54 53 52 51 50 50 51 48 46 46 45 45 45 45 45 46 46 47 48 48 50 50 51 51 50 52 53
56 56 56 56 56 54 52 52 51 50 51 51 52 52 53 53 54 54 53 52 51 51 47 47 46 44 45 44 44 41 41 43 44 46 46 48 47 48 49 51 50 51 51
55 55 55 55 55 54 54 53 52 51 51 51 53 51 54 53 54 53 55 54 52 51 51 50 48 45 46 43 44 44 37 37 38 43 45 46 46 45 46 48 49 50 50
54 53 54 55 55 56 54 52 50 49 49 52 52 53 55 52 51 53 53 52 51 50 48 45 46 45 43 41 42 46 43 42 38 37 42 45 46 46 45 45 46 48 49
51 50 50 53 54 54 52 51 49 50 52 50 50 48 50 50 48 50 50 50 47 45 45 47 44 44 45 43 44 42 40 40 40 38 36 40 44 45 45 44 44 44 47
50 50 50 51 52 53 52 52 49 46 46 46 47 46 47 46 44 44 46 44 43 42 42 42 44 45 44 44 43 43 42 40 40 38 36 38 38 43 44 45 44 44 45

GFSSE_sfc_temp_015.txt.gz
Temp
74 76 73 74 74 74 73 74 74 74 75 76 76 76 77 77 76 76 76 76 76 77 77 77 77 77 77 77 77 76 76 76 75 76 77 78 78 77 76 75 75 82 76
76 76 72 73 74 74 74 74 74 75 75 76 75 75 75 76 76 74 75 75 75 76 76 76 77 77 76 75 75 75 75 74 74 75 75 77 77 77 76 74 74 80 75
75 77 77 72 73 74 74 75 75 76 76 75 75 75 75 75 75 73 72 72 72 75 76 75 75 76 75 75 74 73 73 73 73 74 74 84 82 76 76 74 74 75 75
75 76 76 72 73 73 73 74 74 75 75 75 75 74 75 75 75 73 73 72 73 74 75 76 75 75 73 72 71 71 72 71 70 72 81 81 81 75 76 75 74 74 75
74 75 76 71 72 73 73 73 73 73 73 73 74 74 74 74 74 73 72 72 72 72 73 75 74 73 71 70 70 70 70 70 70 74 77 78 77 76 75 76 75 74 73
74 75 72 70 71 72 73 73 72 72 72 72 72 73 73 73 73 72 72 72 72 72 73 73 72 71 69 69 69 69 69 69 69 75 78 75 76 75 75 75 74 73 73
74 74 76 69 71 72 73 72 72 71 71 71 71 72 72 72 72 71 71 71 71 71 71 71 70 69 69 69 69 68 68 68 74 75 74 71 75 71 75 75 74 73 73
74 74 75 71 71 71 71 71 70 70 70 70 70 70 71 70 70 70 70 70 70 70 70 69 69 68 68 68 67 66 66 67 73 73 72 73 70 71 74 74 73 72 72
75 75 75 76 74 69 69 69 69 69 69 69 69 68 68 68 68 69 69 69 69 69 68 68 67 67 67 66 66 65 65 65 73 73 72 74 69 72 73 74 73 73 73
73 75 74 75 75 75 75 68 68 68 68 68 68 67 67 67 67 67 67 68 68 68 67 67 66 66 65 65 64 64 63 66 73 73 72 71 69 72 73 73 73 72 72
72 73 73 73 74 73 74 73 70 68 68 67 68 66 67 74 72 71 67 66 67 66 66 66 65 64 63 63 63 63 64 73 73 74 74 65 68 71 72 72 72 72 72
72 73 74 73 73 72 75 74 74 73 75 74 73 72 74 71 72 70 68 65 66 65 64 64 63 62 65 71 72 66 73 71 72 72 74 64 67 69 71 71 71 72 71
75 75 73 72 72 72 73 75 75 75 74 74 72 72 71 71 71 71 71 71 70 65 69 67 68 69 67 67 68 68 69 69 72 72 68 63 65 68 69 70 70 71 71
73 75 74 73 71 71 73 74 74 73 74 74 73 70 71 71 69 69 70 69 68 69 67 68 67 66 66 66 66 66 66 69 72 72 68 62 64 66 68 69 70 70 70
73 74 74 72 70 70 69 72 71 71 72 73 72 71 71 70 69 69 68 68 68 68 68 67 67 66 65 65 66 66 66 67 68 71 70 60 62 64 66 67 68 69 69
74 73 72 70 70 70 70 69 71 70 71 71 71 71 69 69 68 69 68 68 68 68 68 66 65 66 65 64 64 64 65 66 67 67 71 68 60 61 63 65 66 67 68
73 72 70 70 70 69 69 69 70 71 69 70 70 68 68 68 68 67 68 68 69 68 66 65 64 64 64 63 63 63 64 64 66 65 68 69 69 60 60 63 64 65 65
71 70 70 71 70 69 68 70 70 70 69 69 68 68 67 67 67 67 67 67 69 66 66 65 65 64 64 64 64 66 65 64 64 64 66 66 68 70 64 61 61 62 63
70 70 70 70 70 69 68 69 68 67 68 69 67 68 67 66 66 66 67 67 66 66 65 64 64 62 64 64 64 64 64 64 64 65 64 64 64 66 68 59 58 59 61
68 69 70 70 68 67 68 67 67 67 68 67 67 68 66 67 65 65 66 65 65 65 64 63 62 63 63 64 64 64 64 64 63 64 64 65 65 64 65 64 65 65 58
66 68 69 69 67 67 67 67 67 67 68 68 69 66 65 66 65 64 65 65 64 63 63 63 62 60 60 61 59 61 61 61 61 63 63 64 63 64 63 64 66 66 66
66 67 66 66 65 65 66 66 65 64 66 65 65 65 65 64 64 64 63 64 64 62 62 61 59 60 60 61 59 59 56 60 60 60 62 61 60 62 63 63 62 62 62
64 63 64 64 64 64 63 66 66 65 65 66 67 67 67 64 63 62 62 62 62 62 60 61 61 59 59 60 59 59 55 53 59 59 57 60 59 59 61 61 61 60 61
61 61 63 64 65 64 63 63 60 61 60 63 62 63 63 62 62 61 60 60 60 60 59 59 61 58 57 57 56 57 55 55 53 53 55 57 58 57 57 59 59 59 60
60 60 61 63 63 62 61 60 60 59 60 60 60 59 59 61 60 59 57 57 57 58 57 55 56 55 56 56 54 53 52 53 52 50 50 53 54 55 56 56 57 58 58
60 60 61 62 62 62 61 60 58 57 56 57 58 58 59 59 58 55 54 53 53 52 52 52 51 50 50 50 50 48 48 47 47 45 42 42 43 52 54 55 55 57 58

GFSSE_sfc_temp_018.txt.gz
Temp
85 86 74 75 75 75 75 75 75 75 76 76 77 77 77 77 77 76 76 76 76 77 77 77 77 77 77 77 77 77 77 77 77 77 77 78 78 77 76 76 76 86 76
86 86 73 74 75 75 75 75 75 76 76 77 76 76 76 76 75 75 75 74 75 77 77 77 77 77 76 76 75 74 74 74 75 75 76 77 78 77 76 75 76 81 76
86 87 85 74 74 74 75 76 76 76 76 76 76 76 76 75 74 74 72 73 75 76 77 76 76 77 75 73 72 73 72 72 72 74 75 89 90 77 76 75 75 75 76
86 86 85 72 73 74 74 74 74 75 75 75 75 75 75 75 74 74 73 72 74 74 75 76 75 75 73 72 71 71 72 71 71 73 85 89 89 76 76 75 75 75 75
85 85 82 72 72 73 73 73 73 73 73 74 74 75 75 75 75 74 73 72 73 73 74 75 74 73 71 70 70 70 71 70 70 74 86 84 86 80 75 76 76 74 74
85 86 75 71 72 73 73 73 73 73 72 72 73 73 74 74 73 72 72 72 72 73 73 73 72 70 70 70 70 70 70 70 69 84 82 80 80 76 75 75 74 73 74
86 86 83 70 72 73 74 73 72 72 72 72 72 72 72 72 72 72 71 71 71 71 71 71 70 69 69 69 69 68 68 68 80 85 85 83 81 71 74 75 74 73 73
86 84 84 72 72 72 72 72 71 71 71 71 71 71 71 71 71 71 71 70 70 70 70 69 69 69 68 68 68 67 67 67 79 83 82 83 71 71 73 74 73 73 73
87 86 86 86 78 70 70 70 70 70 70 70 70 69 69 69 69 69 69 70 69 69 69 68 68 67 67 67 66 66 66 66 80 83 82 83 69 73 74 72 72 72 72
85 86 86 85 86 85 84 69 69 69 69 69 69 68 68 68 68 68 69 69 68 68 67 67 66 66 65 65 65 65 65 68 81 81 84 79 68 72 73 71 72 72 72
84 83 84 85 84 84 85 79 71 69 69 68 70 68 69 84 81 78 67 67 67 67 66 66 65 64 64 64 64 64 64 82 80 83 83 66 67 70 72 71 71 72 72
82 84 86 83 82 83 86 84 83 83 86 84 83 81 85 80 80 77 72 66 66 66 65 64 64 64 65 81 79 67 80 78 79 80 81 64 66 69 70 71 71 71 71
86 86 84 82 81 81 84 87 88 88 86 85 81 80 81 79 80 80 80 80 79 70 79 75 76 79 75 76 78 77 77 76 79 80 73 64 66 68 70 70 70 70 71
86 86 85 83 80 80 85 86 87 85 86 84 84 78 79 80 79 78 79 79 77 79 76 77 78 74 74 74 74 74 74 76 80 80 72 63 64 66 68 69 70 70 70
85 86 85 83 81 81 79 84 83 81 84 82 82 81 79 79 78 78 77 78 78 78 78 76 77 76 74 74 74 73 74 74 74 78 79 62 62 64 66 68 68 69 69
86 85 85 83 81 81 81 80 82 82 83 82 82 81 78 77 77 77 77 78 79 79 78 77 76 75 75 74 73 72 73 74 75 74 78 72 61 62 65 66 67 67 67
86 86 84 82 82 80 80 80 82 84 81 81 82 79 77 77 77 76 77 77 78 78 75 75 74 74 73 75 72 73 72 72 73 72 74 76 69 60 62 64 64 65 66
85 84 84 82 81 81 80 82 83 84 81 81 81 79 77 75 75 75 76 76 77 76 76 75 75 74 73 73 72 74 74 74 72 72 73 74 75 76 62 61 62 63 64
84 83 82 81 81 81 80 81 80 78 79 82 80 80 78 76 75 74 75 76 75 75 75 74 74 73 71 73 73 73 73 73 73 74 72 71 71 72 75 60 60 60 62
79 79 81 81 79 78 81 79 80 80 80 80 80 80 77 76 74 73 74 74 74 73 73 73 71 73 72 71 73 73 72 73 73 72 72 73 72 70 71 71 70 68 60
76 77 78 77 75 79 81 77 79 77 78 79 80 76 75 75 73 72 73 73 72 72 70 70 70 68 69 71 67 68 70 71 69 71 72 72 71 71 71 70 71 73 70
75 75 75 75 74 76 80 78 75 74 77 76 76 75 75 72 72 72 70 70 70 70 69 68 67 67 68 69 65 65 62 67 70 70 70 70 68 71 69 68 68 68 68
72 73 74 74 74 73 73 77 77 77 76 75 71 72 73 71 70 70 69 68 68 68 68 68 67 66 64 67 68 63 60 59 65 71 66 68 67 66 68 68 66 66 66
70 72 73 73 73 72 71 72 69 70 67 68 70 71 70 70 68 68 67 67 66 66 65 66 67 65 64 62 66 66 65 63 58 56 63 65 66 64 64 65 66 65 65
70 70 72 72 72 71 70 68 69 67 69 69 68 65 67 69 69 68 66 64 64 64 63 61 60 60 61 58 59 57 53 55 59 55 55 55 63 64 65 63 63 64 64
70 70 71 71 71 70 69 68 66 64 62 63 65 64 66 66 67 66 64 62 61 61 59 58 53 50 49 49 47 45 44 42 44 42 45 52 52 55 59 61 61 62 63

GFSSE_sfc_temp_021.txt.gz
Temp
90 85 75 76 76 76 76 76 76 76 76 77 77 77 77 77 76 76 76 76 77 77 78 78 78 78 78 77 76 76 76 76 76 77 78 78 78 78 77 77 77 83 77
92 88 74 75 75 76 75 76 76 76 77 77 76 77 76 75 75 74 74 75 76 77 77 77 77 78 76 75 74 74 74 74 75 75 76 78 78 78 77 76 75 81 77
91 88 84 74 74 74 75 76 76 77 76 76 76 76 75 74 74 74 74 74 75 76 76 76 76 76 74 73 73 73 73 73 73 74 76 84 76 78 76 75 76 76 76
92 92 84 72 73 74 74 74 75 76 76 76 76 76 76 75 74 74 74 73 74 74 75 76 75 74 72 72 72 72 72 72 72 73 83 87 86 77 77 75 75 75 76
90 89 80 72 73 73 74 74 74 74 74 74 75 75 76 75 75 74 73 73 73 74 75 75 74 72 71 71 71 71 71 71 72 74 85 83 84 78 76 76 76 75 75
90 87 74 72 73 73 74 73 73 73 73 73 73 74 74 74 74 73 73 73 73 74 73 72 72 71 70 70 70 70 70 71 70 84 83 84 83 76 76 75 75 74 74
91 87 83 72 73 74 74 73 73 72 72 72 73 73 73 73 72 72 72 72 72 72 72 71 71 70 69 69 69 69 69 69 77 84 78 72 75 73 74 74 74 73 73
89 89 84 73 73 73 72 72 71 71 71 71 71 71 71 71 71 71 71 71 71 70 70 70 69 69 68 68 68 68 68 68 78 80 78 77 73 72 74 74 73 72 73
91 90 89 86 77 71 71 71 70 71 70 70 70 70 70 70 70 70 70 70 70 69 69 68 68 67 67 67 67 67 67 68 76 84 84 75 70 72 74 74 73 73 72
90 90 90 90 89 87 81 70 70 70 70 70 70 69 69 69 70 70 70 69 69 68 68 67 67 66 66 66 66 66 67 67 77 84 78 69 69 71 73 72 72 72 72
89 88 89 90 88 87 88 79 71 70 70 69 71 69 71 83 83 78 68 68 68 67 67 67 66 66 66 66 66 67 67 80 82 83 79 67 69 70 71 72 71 71 72
85 88 89 87 86 86 90 86 85 86 87 85 85 83 85 81 81 80 72 68 68 68 68 67 66 66 66 81 77 68 78 81 80 82 80 66 67 69 71 71 71 71 71
88 89 89 85 85 85 85 88 90 90 88 87 84 82 83 81 82 82 82 81 79 71 80 73 75 78 78 77 78 78 79 78 80 82 71 65 66 68 70 70 70 71 71
89 89 88 86 84 84 88 89 88 88 87 86 84 82 81 81 80 80 81 80 80 81 79 79 79 78 76 76 76 75 75 77 80 81 72 64 64 66 68 69 70 70 70
89 89 89 87 84 85 83 86 85 84 86 83 85 83 82 80 79 80 79 80 80 81 80 79 79 78 77 76 76 75 75 75 76 77 79 63 63 65 67 69 69 69 69
90 89 90 88 85 85 85 84 83 84 85 85 85 82 80 80 78 78 78 79 80 81 81 79 77 76 76 76 75 75 74 75 77 76 78 71 63 63 65 67 68 68 68
90 90 89 88 87 84 84 84 85 87 83 84 85 81 80 79 78 77 78 78 79 80 78 78 77 77 76 77 75 76 75 73 74 74 76 76 69 62 63 65 65 66 66
90 89 89 89 86 84 85 85 86 87 84 84 83 83 80 79 78 76 77 77 78 77 77 76 76 75 75 75 74 75 76 76 74 74 74 74 76 76 63 63 64 65 65
89 88 87 87 84 84 84 85 83 82 82 84 83 83 81 79 78 76 76 76 76 76 75 75 75 74 73 74 74 76 75 74 74 76 73 73 72 74 75 62 62 62 63
84 84 85 85 84 82 83 82 83 82 83 83 82 82 79 78 77 75 75 75 75 74 74 74 72 73 72 72 74 74 74 76 75 74 74 75 73 72 72 71 66 66 61
82 83 83 82 78 81 82 79 80 79 81 81 82 79 77 77 75 73 74 74 73 72 72 71 71 69 70 72 70 70 71 72 72 73 74 74 73 73 71 71 72 73 66
78 79 80 79 78 80 82 79 77 76 78 79 79 77 77 74 73 73 70 70 71 70 69 69 68 67 69 70 66 66 62 67 72 72 72 72 70 73 72 71 70 70 71
76 77 78 78 77 76 76 80 78 78 78 77 76 76 76 74 72 70 69 69 68 68 68 68 67 66 64 67 68 64 58 58 65 71 69 69 69 70 71 71 69 69 68
74 76 76 76 76 76 74 74 71 72 71 73 73 74 72 71 71 71 70 69 66 66 65 65 67 64 63 61 65 67 63 59 52 53 66 64 65 65 64 69 70 67 67
74 74 75 76 75 74 73 71 71 69 71 71 69 67 68 70 70 70 69 67 64 64 64 62 60 58 59 56 54 52 54 57 57 48 48 56 58 61 62 60 66 66 66
74 74 74 75 76 75 73 71 68 66 66 66 67 66 67 67 67 67 67 65 63 62 61 57 55 52 50 50 48 45 42 39 39 38 38 40 38 47 49 54 55 58 61

GFSSE_sfc_temp_024.txt.gz
Temp
81 78 74 76 76 76 76 76 76 76 76 76 77 77 76 76 75 75 76 76 76 77 78 78 78 77 77 76 75 75 74 74 74 75 77 78 78 78 77 75 75 79 76
81 78 73 74 75 75 76 76 76 76 76 76 76 76 75 75 74 75 75 76 76 77 78 77 77 76 75 74 74 73 73 73 73 74 75 77 78 78 77 75 75 76 76
81 81 78 73 74 75 75 76 76 76 76 76 76 75 75 74 74 75 75 75 75 76 76 76 76 75 74 73 72 73 73 72 72 72 73 73 74 74 76 75 75 76 76
85 82 77 72 73 74 74 74 75 76 76 75 75 75 75 75 74 74 74 74 74 75 76 76 75 74 73 72 72 72 72 72 72 72 72 78 79 73 74 75 76 76 76
82 79 75 72 72 73 73 73 74 74 74 74 75 75 75 75 75 74 73 73 74 74 75 74 73 72 71 71 71 71 71 71 71 71 73 77 76 71 74 76 76 75 74
80 77 72 71 72 73 73 73 73 73 73 73 73 74 74 74 74 73 73 73 73 74 73 72 72 71 70 70 70 70 70 70 69 71 75 72 70 71 76 74 74 74 74
80 77 74 71 72 73 73 73 72 72 72 72 72 72 73 73 72 72 72 72 72 72 71 71 70 70 69 69 69 69 69 68 68 70 75 69 69 70 72 74 74 73 73
82 78 76 72 72 72 72 71 71 71 71 71 71 71 72 71 71 71 71 70 70 70 70 69 69 69 68 68 68 68 67 67 71 72 74 68 72 73 74 74 73 73 72
85 82 78 74 72 71 70 70 70 70 70 70 70 70 70 70 70 70 70 70 70 69 69 69 68 68 68 68 68 67 67 67 65 70 76 69 72 73 73 73 73 73 72
84 85 82 79 77 74 71 69 69 69 69 70 70 69 69 69 70 70 69 69 69 69 68 68 67 67 67 67 67 67 67 66 65 70 71 66 71 73 73 72 72 71 71
84 82 82 82 79 77 75 73 70 70 70 69 69 69 68 72 71 72 69 69 69 68 68 68 68 67 66 66 66 66 66 66 70 70 67 68 70 71 71 71 71 71 71
80 81 81 79 78 80 86 73 74 77 73 73 75 74 75 74 74 76 71 68 68 68 68 67 67 66 66 66 64 65 64 69 69 69 64 67 69 70 70 71 71 71 71
82 82 82 79 79 79 78 77 78 78 76 75 76 75 74 74 73 71 68 67 65 66 67 66 66 64 69 67 67 66 67 67 66 69 65 66 68 69 69 70 70 71 70
83 83 81 80 78 78 78 77 77 77 75 75 74 74 71 70 70 70 69 69 68 68 68 68 67 68 68 69 68 67 67 65 65 66 60 65 66 67 69 70 70 70 70
82 83 82 80 78 78 77 76 75 74 74 74 74 74 72 70 68 69 68 68 68 69 68 67 67 67 67 68 68 67 67 66 66 65 62 64 65 66 68 70 70 70 70
85 83 82 81 79 79 77 75 74 74 74 74 73 72 73 70 68 68 67 68 67 68 67 66 66 65 65 66 66 67 66 66 66 65 65 59 63 64 66 67 69 70 69
80 85 80 70 80 78 78 76 75 75 75 73 73 73 73 72 69 68 66 66 67 67 67 66 66 65 65 67 66 66 65 65 64 65 64 63 60 62 63 65 67 67 68
83 79 81 86 80 78 77 76 76 75 73 73 73 72 72 72 71 67 66 65 67 66 65 64 63 63 63 63 63 63 64 65 64 63 64 64 63 65 61 63 65 66 66
81 82 81 82 79 78 77 76 74 74 72 73 72 72 70 71 70 67 65 65 66 65 63 64 63 62 61 61 64 63 63 62 63 69 64 63 63 63 61 61 62 63 64
77 79 81 79 76 73 75 74 73 72 72 72 71 70 70 69 68 65 65 64 65 63 62 61 60 61 60 61 67 67 64 65 64 61 62 66 62 63 63 61 58 58 61
77 76 76 72 73 73 72 70 69 68 69 70 71 71 69 69 68 64 63 63 62 61 60 60 59 58 58 59 59 60 61 62 63 66 63 61 63 64 63 62 59 60 59
73 74 74 74 72 72 72 70 68 67 69 69 69 69 70 68 66 66 61 61 60 59 58 57 56 56 57 57 55 56 52 57 60 63 65 65 62 65 63 64 63 62 60
70 70 73 72 72 70 68 71 69 68 68 67 66 66 69 65 64 64 62 60 59 58 55 55 56 55 53 55 55 52 49 48 52 57 59 56 57 57 61 64 65 64 61
68 70 72 72 72 71 68 66 64 64 63 64 64 64 66 65 63 63 61 59 58 56 54 54 58 52 51 48 51 51 48 47 44 45 51 55 53 52 52 52 52 58 61
69 68 70 71 72 70 68 67 63 61 61 62 61 60 60 61 60 61 60 57 55 55 54 51 50 49 48 46 44 44 43 44 42 42 39 42 46 47 46 48 49 51 53
69 69 69 70 71 70 68 66 63 60 60 58 58 57 57 58 58 58 59 55 55 54 53 52 51 47 48 46 45 42 40 39 38 36 36 35 36 40 44 45 46 49 50

GFSSE_sfc_temp_030.txt.gz
Temp
70 72 73 74 74 74 74 74 74 74 75 75 75 75 75 75 75 75 75 76 76 77 77 76 76 75 75 75 74 74 73 73 73 74 75 76 77 77 76 76 75 76 75
71 72 72 74 74 74 74 74 74 75 75 75 74 74 74 74 74 75 75 75 76 77 76 76 75 75 74 73 73 73 72 72 72 72 73 75 76 77 76 75 74 75 75
71 73 74 73 74 74 75 75 75 75 75 75 74 74 74 74 74 74 74 74 75 76 76 75 75 74 73 72 72 72 72 71 71 71 72 69 70 75 74 74 74 75 75
72 72 72 72 73 74 74 74 74 75 75 74 74 74 74 74 74 74 73 73 74 74 75 74 74 73 71 70 70 70 70 70 70 70 67 70 73 74 74 73 75 75 75
69 70 71 71 72 72 72 73 73 73 73 73 74 74 74 73 73 73 72 72 73 73 74 73 73 71 70 69 69 69 69 69 69 68 64 67 68 73 74 73 74 74 74
65 67 69 70 71 72 72 72 72 72 72 72 72 73 73 73 73 72 72 72 72 72 72 72 71 70 68 68 68 69 68 68 68 63 64 68 68 74 74 72 73 73 73
63 65 68 69 71 72 73 72 72 71 71 71 72 72 72 72 72 71 70 70 70 71 71 70 69 69 68 68 68 68 67 67 64 61 63 65 66 73 74 74 73 73 73
65 65 69 70 71 71 71 71 70 70 70 70 70 71 71 71 70 70 70 70 70 70 69 69 68 68 68 68 68 67 66 66 65 61 65 64 67 74 74 74 73 72 72
66 65 65 67 69 69 69 69 69 69 69 69 70 69 69 69 69 70 70 70 70 69 69 69 68 68 68 67 67 67 65 66 61 62 67 64 70 72 72 72 71 71 71
65 66 63 64 65 64 65 68 68 68 68 68 69 68 68 68 68 69 69 69 69 69 69 69 68 68 67 67 67 66 65 65 60 61 62 62 70 73 73 72 71 71 70
67 65 64 64 64 64 65 67 68 68 68 68 68 68 65 65 66 67 67 68 69 69 68 68 68 67 67 66 66 65 66 60 60 61 61 65 70 73 73 72 71 70 70
67 66 66 65 64 65 72 66 65 68 66 66 66 65 64 63 63 67 66 68 68 68 68 68 67 67 65 60 60 64 61 61 60 61 61 65 69 72 73 72 71 70 70
70 70 68 67 65 65 68 64 63 64 63 64 65 64 63 65 63 63 61 62 61 64 61 63 62 61 60 59 60 59 61 61 58 60 62 65 68 71 72 72 71 70 70
70 70 70 68 67 66 65 64 64 64 64 64 65 65 62 61 60 60 60 60 59 59 59 59 58 60 60 61 61 60 61 59 59 60 59 65 66 70 72 72 72 71 70
70 72 70 68 67 67 65 64 65 64 65 65 64 65 63 61 60 60 60 59 59 59 59 59 59 60 60 61 61 61 61 61 60 60 57 62 64 67 70 72 72 72 71
72 70 67 67 66 65 67 67 66 65 65 64 63 64 64 62 61 60 59 60 59 59 59 58 58 58 58 58 59 61 61 60 60 60 59 58 62 64 67 70 71 72 72
72 70 70 66 67 67 67 66 66 66 64 63 63 64 64 62 61 60 59 59 58 58 58 58 57 57 57 59 57 58 58 59 58 59 59 59 58 61 63 66 68 69 70
72 70 68 68 66 64 64 63 63 65 62 62 62 61 63 63 62 59 58 58 57 57 56 55 55 54 54 54 54 57 56 57 58 58 58 58 59 61 60 63 65 67 68
65 65 62 63 62 62 62 62 62 62 61 61 60 60 62 63 62 58 57 56 56 56 54 54 53 52 51 52 57 57 54 54 55 61 58 58 57 59 58 60 62 63 65
65 63 62 61 62 62 60 59 59 59 60 60 59 60 59 59 59 57 56 55 55 54 53 52 51 51 50 50 56 56 51 52 52 52 54 57 56 56 56 57 56 60 61
63 62 60 59 59 58 57 56 57 57 58 58 59 59 58 58 59 56 54 54 53 52 50 50 49 49 48 48 46 50 49 51 50 50 51 52 52 53 52 53 54 56 59
57 59 59 60 60 60 58 57 57 56 56 56 56 56 57 56 56 57 52 52 51 50 50 48 47 46 46 45 43 43 42 49 46 51 49 49 45 47 49 52 51 52 53
56 57 59 60 60 59 59 58 56 56 54 54 54 53 53 54 54 53 51 50 49 49 48 46 45 45 42 43 45 46 41 37 41 46 49 44 43 43 44 46 50 52 52
56 58 59 60 59 60 59 57 56 53 52 52 51 51 51 52 52 52 51 49 47 47 46 45 46 43 45 45 46 48 46 43 37 35 41 45 42 43 41 41 44 48 51
58 57 57 59 60 59 57 56 54 53 52 51 49 49 50 50 51 51 50 47 46 46 45 45 44 44 43 41 40 42 37 36 36 36 31 35 39 40 40 40 43 44 48
56 55 56 58 57 57 55 54 52 51 50 49 49 47 47 47 48 47 48 46 45 44 44 43 43 42 41 40 40 38 37 35 34 37 34 33 32 35 39 39 40 42 45

GFSSE_sfc_temp_033.txt.gz
Temp
70 71 73 74 74 74 74 74 74 74 74 75 75 75 75 75 75 75 75 75 76 76 76 75 75 75 75 74 73 73 73 72 72 73 74 75 77 77 77 75 75 75 75
71 71 72 73 74 74 74 74 74 74 74 75 75 74 74 74 74 74 75 75 75 76 76 75 75 74 74 73 72 72 72 71 71 72 73 74 76 77 76 74 74 74 75
72 71 73 72 73 74 74 74 74 75 75 75 74 74 74 74 74 74 74 74 75 75 75 75 74 73 72 71 71 71 71 71 71 71 71 67 69 75 74 74 74 75 75
72 71 71 72 73 73 73 74 74 75 75 74 74 74 74 73 73 73 73 73 73 74 74 74 73 72 71 70 70 70 70 70 69 70 65 67 71 74 75 74 75 75 75
70 70 71 71 71 72 73 73 73 73 73 73 73 73 73 73 73 73 72 72 73 73 73 73 72 71 69 69 69 69 69 69 69 66 62 65 66 72 75 74 74 74 74
66 67 69 70 71 72 72 73 73 72 72 72 72 73 73 73 72 72 71 71 72 72 72 72 71 69 69 68 68 68 68 67 67 60 62 65 67 72 74 73 73 73 73
64 66 68 69 71 72 73 72 71 71 71 71 71 72 72 72 71 71 71 71 71 71 71 70 69 69 68 68 68 68 67 67 62 59 62 63 64 71 74 74 73 73 73
64 65 67 70 70 71 71 71 70 70 70 70 70 71 71 71 71 71 70 70 70 70 69 69 69 69 68 68 68 67 66 66 63 60 62 63 67 71 73 74 73 72 72
64 63 64 66 68 69 69 69 68 69 69 69 69 69 69 69 69 70 70 70 70 69 69 69 69 68 68 68 67 66 65 66 60 60 64 62 68 72 75 74 73 72 71
62 63 62 63 64 63 64 67 68 68 68 68 69 68 68 68 68 69 69 69 69 69 69 69 68 68 68 67 66 66 65 65 59 60 60 60 69 72 73 73 72 71 71
64 62 62 62 62 62 63 67 67 68 68 68 68 68 65 64 64 66 66 68 69 69 69 69 68 67 66 65 65 65 65 59 59 59 59 65 68 71 73 72 70 71 70
62 63 61 62 62 63 70 64 64 66 65 64 64 64 63 62 62 66 65 67 68 68 68 67 67 66 65 59 59 62 59 60 59 59 59 65 68 71 72 73 71 71 70
66 65 64 63 62 63 66 62 62 63 63 63 63 62 62 63 61 62 60 60 59 63 60 61 60 59 59 58 58 58 59 59 57 59 61 65 68 71 73 73 72 71 71
65 66 65 64 63 62 63 63 62 62 63 62 63 63 61 60 59 59 59 58 58 57 57 57 57 58 58 59 59 59 59 58 58 58 59 63 66 70 72 73 73 72 71
67 68 66 64 63 64 62 62 62 62 64 64 64 63 61 59 59 58 58 58 57 57 57 57 56 57 57 58 58 58 58 58 58 58 56 62 63 66 70 73 73 73 72
69 68 65 64 64 64 63 62 62 62 63 63 62 62 62 60 59 59 58 58 57 57 56 55 55 55 54 55 57 57 57 57 57 57 57 57 61 63 66 69 71 73 73
68 67 65 63 63 63 64 64 63 62 63 61 62 62 61 60 59 58 57 56 56 55 55 55 54 54 54 55 54 55 55 56 57 56 56 57 57 60 62 65 67 69 71
66 66 64 67 62 62 62 61 60 61 60 60 60 59 60 60 59 57 55 54 54 54 53 53 52 52 51 50 50 51 52 53 54 55 56 55 55 58 59 61 64 66 68
63 64 61 62 60 62 60 58 58 58 57 57 58 57 58 58 57 54 53 52 53 53 52 51 51 49 49 48 51 51 50 50 51 55 53 54 53 53 54 57 60 61 63
59 60 60 61 61 60 58 57 56 59 58 58 56 56 56 56 55 53 53 53 55 51 50 49 48 49 47 46 52 51 48 49 48 47 49 52 50 50 51 51 51 53 58
57 58 59 59 58 58 57 56 55 53 54 53 55 55 55 55 57 55 53 51 50 49 48 48 47 46 45 44 43 45 46 47 45 46 47 46 47 48 49 49 50 51 52
57 56 57 59 59 58 58 55 55 53 53 52 52 53 54 55 53 53 50 50 50 50 47 46 45 45 44 42 41 40 38 43 43 48 45 45 41 44 46 48 48 50 50
55 56 57 57 58 58 57 56 54 53 52 51 51 50 51 51 51 50 49 48 47 46 44 44 43 42 41 41 42 40 36 33 36 41 44 41 40 41 41 42 46 47 48
53 54 56 57 57 57 57 56 55 53 51 49 48 48 48 50 50 50 49 47 46 45 44 44 45 41 41 39 41 44 40 41 33 32 38 40 40 41 40 40 41 43 45
55 53 54 56 56 56 55 54 52 52 50 49 48 48 49 49 49 49 48 46 45 44 43 42 41 41 40 39 38 39 36 37 36 37 33 37 39 37 38 38 38 40 44
53 52 53 54 54 54 53 53 52 50 48 47 47 49 47 46 45 45 46 44 43 43 42 41 41 40 39 38 38 37 36 36 34 35 37 36 35 36 37 38 38 38 41

GFSSE_sfc_temp_036.txt.gz
Temp
69 70 73 74 74 74 74 73 73 74 74 75 75 75 75 75 75 75 75 75 76 76 76 75 75 75 74 74 73 73 72 72 72 73 73 75 77 77 76 74 74 75 75
70 70 72 73 74 74 74 74 74 74 75 75 74 74 74 74 74 74 75 75 75 76 76 75 74 74 73 72 72 72 72 71 71 72 72 72 74 76 76 74 74 74 75
72 70 72 72 73 74 74 74 74 75 75 75 74 74 74 74 74 74 74 74 75 75 75 74 74 73 72 71 71 71 71 70 70 70 70 67 69 75 75 74 74 74 74
72 70 70 72 73 73 73 74 74 75 74 74 74 74 73 73 73 73 73 73 73 74 74 74 73 72 71 70 70 70 70 70 69 69 64 66 69 73 75 74 74 75 74
72 72 71 71 72 73 73 73 73 73 73 73 73 73 73 73 73 73 72 72 73 74 74 73 72 71 70 69 69 69 69 69 68 64 62 64 67 71 75 74 73 73 73
70 71 69 70 71 72 73 73 72 72 72 72 72 73 73 73 73 72 71 72 72 73 73 72 71 70 69 68 68 68 68 68 65 61 62 64 66 71 74 74 72 73 72
67 68 68 69 71 72 73 72 72 72 71 71 72 72 72 72 72 71 71 71 71 71 71 71 70 70 69 68 68 68 67 67 61 60 62 63 64 72 73 74 73 72 72
65 65 67 70 70 71 71 71 70 70 70 70 71 71 71 71 71 70 70 70 70 70 70 70 69 69 68 68 68 67 66 66 63 61 63 62 68 72 74 74 73 72 72
63 63 64 66 68 69 69 69 69 69 69 69 70 70 70 69 69 70 70 70 70 70 70 70 69 68 68 68 67 66 65 66 60 61 64 63 69 72 74 74 73 72 71
61 62 62 63 64 64 65 68 67 68 68 68 69 68 68 68 68 69 69 69 70 70 69 69 68 68 67 66 65 65 65 64 59 60 60 61 69 72 73 73 73 71 71
63 61 61 61 62 62 63 66 67 68 68 68 68 68 65 63 63 64 67 68 69 68 68 68 68 66 66 64 64 64 64 59 59 60 59 64 69 72 73 73 72 71 71
60 61 61 60 61 62 68 64 63 65 64 64 64 64 63 62 61 64 65 66 67 67 66 66 65 65 63 59 58 61 58 59 59 59 59 65 69 72 73 72 72 71 71
62 62 62 61 61 61 64 62 61 62 62 62 63 62 62 62 61 61 60 59 59 63 59 60 59 58 58 57 57 57 58 58 57 58 60 64 66 70 73 73 73 72 71
62 63 63 62 61 61 61 61 61 61 61 61 62 63 61 60 59 59 58 58 57 56 57 56 56 57 57 57 57 57 57 57 57 58 58 62 64 67 70 72 73 73 72
63 64 63 62 61 62 61 60 60 60 61 62 62 62 61 59 58 57 57 56 55 56 55 55 55 55 55 56 56 56 56 56 57 57 56 61 62 65 68 70 71 72 73
65 64 63 62 62 62 61 61 60 60 61 61 61 61 61 58 57 57 56 55 55 54 54 54 53 53 53 54 55 55 55 55 55 55 56 56 60 62 64 66 68 69 71
65 65 62 61 61 61 60 60 60 62 61 60 60 60 59 58 56 55 54 53 53 53 53 53 52 52 52 53 52 53 54 53 54 54 54 54 54 57 59 60 62 64 66
63 60 61 63 61 61 59 59 59 59 58 57 58 57 57 56 55 53 52 51 52 52 51 51 51 50 50 49 49 50 50 51 51 52 53 52 52 53 54 57 58 59 61
61 61 60 61 61 59 57 56 57 57 57 55 55 55 55 55 54 53 52 51 51 51 52 50 49 48 48 47 49 50 49 48 49 52 51 50 50 50 51 54 55 55 57
58 60 60 61 60 56 56 56 56 57 54 54 53 54 55 56 56 54 52 51 51 50 48 47 47 48 46 45 49 50 47 47 47 46 47 50 48 48 48 49 49 51 54
57 59 60 59 59 58 55 53 52 51 51 51 52 53 54 53 52 50 49 49 48 47 46 46 45 45 44 43 42 44 44 46 45 46 46 46 45 46 47 47 47 48 50
56 56 56 57 57 58 56 54 53 51 50 50 50 50 50 50 50 51 48 47 46 46 45 44 43 42 43 42 40 39 37 41 43 46 45 44 41 43 45 46 45 46 47
53 54 56 57 57 56 55 53 51 51 50 49 48 48 48 50 49 48 48 46 45 45 44 43 42 41 39 41 41 39 35 33 36 41 42 40 39 40 41 41 45 45 46
52 53 55 56 56 56 54 54 52 50 49 47 46 47 47 48 48 48 47 46 45 44 44 42 44 41 40 38 40 43 40 38 33 32 39 41 40 42 39 40 41 42 44
51 51 52 54 55 54 54 53 50 48 47 46 46 46 47 47 47 48 47 46 44 43 42 41 41 40 39 38 37 37 36 36 36 35 34 39 42 40 39 39 40 40 43
51 50 52 54 52 53 52 52 51 48 46 46 46 46 45 45 45 45 45 43 43 42 41 41 40 40 39 37 37 37 36 37 38 37 35 36 35 39 39 39 39 39 40

GFSSE_sfc_temp_039.txt.gz
Temp
75 78 73 75 74 74 74 73 73 74 74 75 75 75 75 75 75 75 75 75 76 77 76 75 75 75 74 74 73 73 72 72 72 73 74 75 77 77 76 75 76 82 75
77 77 72 74 74 74 74 74 74 74 75 75 75 74 74 74 74 75 75 75 76 76 75 75 74 74 73 73 72 72 71 71 71 71 72 75 74 76 76 74 74 80 75
75 77 78 72 73 74 74 74 75 75 75 75 75 74 74 74 74 74 74 74 75 75 75 75 74 73 72 71 71 71 71 70 70 70 71 81 80 75 76 74 74 75 75
76 77 78 72 73 74 74 74 74 75 75 74 74 74 74 74 74 74 73 73 74 75 75 74 73 73 71 71 70 70 70 70 69 69 79 79 79 74 75 75 74 75 75
77 78 77 71 72 73 73 73 74 74 73 73 73 74 73 73 73 73 72 73 74 74 74 74 73 71 70 70 69 69 69 69 68 75 79 78 80 75 75 74 76 75 73
75 77 73 70 71 73 73 73 73 73 72 72 73 73 73 73 73 72 72 72 73 73 73 73 71 70 69 69 69 69 68 68 70 79 79 77 78 73 75 74 73 73 73
72 74 75 69 71 72 73 73 72 72 71 72 72 72 73 73 72 71 71 71 72 72 72 71 71 70 69 69 68 68 67 67 77 79 79 78 76 73 75 75 73 72 72
72 73 75 71 71 71 72 71 71 71 71 71 71 71 71 71 71 71 71 71 71 71 71 70 69 69 69 68 68 66 66 66 75 77 78 79 72 73 75 74 72 72 71
73 73 74 75 73 69 69 69 69 69 69 70 70 70 70 69 69 70 70 70 70 70 70 70 69 68 68 67 67 66 65 65 76 76 77 79 70 73 74 74 73 72 71
70 72 72 73 75 74 74 68 68 68 68 69 69 68 68 68 69 69 68 69 69 69 69 69 68 67 67 66 65 65 64 67 76 77 78 77 69 73 74 74 73 72 71
69 70 71 72 72 73 74 72 69 69 68 68 69 68 68 75 74 74 68 68 69 68 68 68 67 66 65 66 65 64 66 75 75 76 77 67 68 72 74 73 72 72 71
69 69 70 70 70 70 73 73 72 73 74 74 73 73 74 73 74 74 70 66 67 67 66 66 65 65 69 74 74 70 74 73 75 74 76 65 67 70 72 73 72 72 71
71 70 70 69 69 70 71 72 73 74 73 73 71 72 72 73 73 75 75 74 72 67 72 71 72 72 70 71 71 70 71 72 73 74 72 64 66 69 71 71 72 72 72
70 71 70 69 69 68 71 72 72 73 72 73 73 71 72 73 72 72 72 70 69 70 69 70 70 68 68 68 68 68 69 71 72 72 71 62 63 66 69 70 71 71 71
70 71 71 70 68 69 69 70 70 70 71 72 72 71 72 72 69 69 68 69 69 70 69 69 69 68 68 68 68 68 68 68 68 70 70 62 60 62 64 66 68 68 69
73 72 70 69 69 69 69 68 68 69 70 69 68 68 68 69 68 68 67 67 67 68 68 68 67 67 67 67 67 66 66 67 67 66 68 68 59 58 60 62 63 64 65
73 71 68 67 68 66 65 64 62 62 65 65 65 65 64 65 66 66 66 66 66 66 65 67 66 67 67 66 66 66 66 65 65 63 64 65 65 59 57 59 60 61 62
72 69 68 66 64 64 63 62 59 58 59 60 62 62 62 63 64 64 65 64 65 64 65 65 64 64 64 63 63 64 64 64 63 61 63 63 63 63 61 57 57 58 59
69 66 65 65 63 62 59 56 57 59 59 60 60 62 62 61 62 63 63 62 63 64 62 62 62 60 61 61 61 63 63 63 62 63 61 60 59 60 60 57 55 56 56
64 63 63 63 60 57 55 57 58 58 60 61 62 62 63 63 62 63 62 61 62 62 61 60 59 60 59 58 59 60 60 62 62 61 60 61 59 57 58 57 59 59 55
65 66 60 62 60 60 59 57 58 58 60 61 63 62 62 62 62 61 62 61 61 60 58 57 58 56 58 56 55 57 58 59 57 59 59 59 57 57 57 57 57 58 59
64 65 65 64 64 65 67 67 66 64 63 62 61 60 61 61 61 61 60 60 59 60 58 57 55 55 56 55 52 53 51 55 57 57 57 56 53 56 56 56 55 55 56
64 64 66 66 66 66 66 64 63 62 61 61 61 61 60 60 60 60 59 60 59 59 57 56 55 52 52 54 52 51 47 46 48 55 54 54 54 54 54 54 54 54 55
63 64 66 65 65 64 64 65 64 66 65 61 60 61 62 59 59 59 59 58 57 58 56 55 56 53 52 50 52 53 51 48 40 40 50 51 53 53 52 52 52 52 53
62 62 63 64 64 62 63 64 64 60 59 59 60 58 59 59 58 57 57 57 56 57 55 54 53 52 53 50 50 49 48 48 48 41 39 46 50 48 52 52 52 52 52
61 62 62 62 61 62 62 61 60 59 58 59 59 59 59 58 58 57 57 56 55 54 53 53 52 51 51 50 50 49 47 43 42 41 37 42 42 45 50 51 52 52 51

GFSSE_sfc_temp_042.txt.gz
Temp
84 85 74 74 74 74 74 74 74 74 75 75 75 75 75 75 75 75 76 76 76 76 76 76 75 74 74 74 73 72 72 72 72 72 74 75 77 77 76 75 75 87 76
85 83 73 74 74 74 74 74 74 74 75 75 75 75 74 75 75 75 75 76 76 76 76 75 74 74 73 73 72 72 72 71 71 71 73 76 75 76 76 75 74 81 75
83 83 81 73 74 74 74 74 75 75 75 75 75 74 74 74 74 74 75 75 75 76 75 75 74 74 73 72 72 72 71 71 70 71 74 90 86 76 76 74 74 75 75
81 86 85 72 73 74 74 74 75 75 75 75 74 74 74 74 74 74 74 74 75 75 75 75 74 73 72 71 71 71 71 70 70 72 87 87 87 74 76 75 75 75 75
85 87 82 72 73 74 74 74 74 74 74 74 74 74 74 74 74 73 73 73 74 75 75 74 73 72 71 70 70 70 70 70 70 79 88 84 88 77 75 75 77 76 73
85 87 75 71 72 73 73 73 73 73 72 72 73 74 74 74 73 73 73 73 74 74 74 73 72 71 70 69 69 69 69 69 70 87 86 82 84 75 76 74 73 73 72
84 84 80 69 71 73 74 73 72 72 72 72 72 73 73 73 72 72 72 72 72 72 72 72 71 70 69 69 68 68 68 69 84 86 86 85 80 74 75 74 73 72 72
78 81 80 72 71 72 72 72 71 71 71 71 71 72 72 72 72 71 71 71 71 71 71 70 70 69 69 68 68 67 66 67 83 85 85 86 72 74 75 74 73 72 72
79 80 81 82 76 70 70 70 70 70 70 70 70 70 70 70 70 70 71 71 71 71 70 70 69 68 68 67 67 66 66 67 83 84 85 84 70 73 75 74 74 73 72
80 83 83 82 83 81 79 69 68 69 69 69 69 69 68 69 69 69 70 70 70 70 70 69 68 67 67 66 66 65 66 68 84 84 85 78 69 72 73 74 73 73 72
78 79 80 82 81 82 82 76 70 69 69 69 70 68 69 82 80 78 69 69 69 68 68 67 67 67 67 68 67 67 67 83 83 84 85 66 69 71 72 72 72 72 72
78 80 81 80 79 80 82 80 80 80 81 81 81 79 83 80 82 80 73 67 67 68 67 67 67 69 74 83 82 75 81 80 82 81 82 65 67 70 71 71 71 71 72
80 80 80 77 77 78 79 81 82 83 82 81 79 81 80 81 82 84 84 84 82 72 83 80 81 81 76 78 78 77 78 79 80 81 76 64 65 68 69 70 70 71 71
80 80 79 77 76 76 81 81 81 83 82 82 81 79 80 80 79 79 82 82 80 82 78 79 79 75 75 75 75 75 75 76 78 78 76 62 62 65 67 68 68 68 68
80 80 79 78 77 77 77 79 79 80 82 79 81 78 78 75 76 80 79 81 79 80 79 78 78 77 75 75 75 74 74 74 74 76 76 61 60 62 63 65 65 66 66
81 79 79 78 78 78 77 75 75 74 75 79 76 72 69 70 72 77 78 78 78 77 76 75 73 74 74 74 74 74 73 73 73 72 75 75 59 59 60 61 62 63 63
81 79 76 76 76 75 74 74 73 72 70 67 71 69 70 73 74 74 75 74 73 73 72 72 71 74 74 74 72 73 73 73 72 70 71 72 72 60 60 59 60 60 61
81 77 75 73 71 71 69 65 65 63 66 67 69 68 69 70 71 70 71 69 70 71 70 71 71 70 71 71 70 71 71 72 71 69 70 69 69 70 65 59 58 59 59
81 77 72 72 70 68 67 60 60 61 64 67 68 67 66 66 67 67 68 69 70 71 69 69 69 68 67 68 68 69 69 69 70 71 68 67 67 66 67 62 59 59 58
78 76 71 71 61 59 60 60 59 64 64 66 67 68 68 68 69 70 70 69 70 69 68 66 64 66 66 65 65 66 67 67 69 68 67 68 67 64 65 64 64 65 58
69 70 70 67 63 62 69 66 67 64 68 70 72 70 69 70 69 69 70 69 68 67 65 64 64 63 63 64 61 63 65 67 65 66 66 65 65 64 63 64 64 64 64
70 70 71 73 73 74 75 75 75 74 75 74 72 69 69 68 68 69 67 68 66 66 64 63 61 61 63 63 57 57 56 61 65 65 64 63 61 62 62 62 61 60 61
71 73 76 76 75 76 76 75 74 72 71 70 69 70 69 68 69 67 67 66 65 65 63 62 61 59 58 61 61 55 51 50 55 60 59 60 59 60 60 61 60 60 60
74 76 77 77 76 74 73 74 72 75 74 72 72 71 71 68 67 67 66 65 63 64 62 62 63 59 58 56 59 60 57 54 43 43 54 57 59 58 58 58 59 59 59
73 74 75 75 74 73 73 73 73 71 71 71 70 67 68 69 67 66 65 64 63 63 62 60 59 58 59 56 54 51 51 51 51 45 42 49 56 58 58 56 57 58 59
71 71 72 73 72 72 72 71 70 68 67 69 68 67 69 68 67 66 65 64 63 62 60 60 59 57 56 54 53 50 48 45 46 44 43 44 47 52 56 57 55 56 57

GFSSE_sfc_temp_045.txt.gz
Temp
87 84 74 75 74 74 74 74 74 74 75 75 75 75 75 75 76 76 76 76 76 76 76 75 75 75 74 74 74 73 72 72 72 73 74 77 77 77 76 75 75 81 76
85 85 73 74 74 74 74 74 74 75 75 75 75 75 75 75 75 76 76 76 76 76 76 75 75 75 74 74 73 73 72 72 72 72 74 75 76 76 76 75 74 79 76
85 85 81 73 74 74 74 75 75 75 76 75 75 75 75 75 75 75 75 75 76 76 76 75 75 74 74 73 72 72 72 71 72 72 74 83 81 76 76 75 75 75 75
85 83 82 72 73 74 74 74 75 75 75 75 75 75 75 74 74 74 74 74 75 76 75 75 74 73 72 71 71 71 71 71 72 72 85 89 81 76 76 75 76 74 74
83 84 80 72 73 74 74 74 74 74 74 74 74 74 74 74 74 74 74 74 75 75 75 74 73 72 71 70 70 70 71 71 71 76 88 85 82 77 76 74 76 75 73
83 82 74 71 72 73 74 74 73 73 73 73 73 74 74 74 74 73 73 74 74 74 74 73 72 71 70 69 69 69 69 70 69 88 87 82 80 75 75 74 73 73 73
77 81 81 71 72 73 74 73 73 72 72 72 73 73 73 73 73 72 72 72 72 72 72 72 71 70 69 69 69 68 68 68 83 87 87 81 76 74 76 74 73 72 72
79 79 80 72 72 72 72 72 71 72 72 72 72 72 72 72 72 72 72 72 71 71 71 71 70 70 69 69 68 68 68 68 85 86 86 82 71 73 75 74 73 72 72
78 78 81 80 74 70 70 70 70 70 70 71 70 70 70 70 70 71 71 71 71 71 71 70 69 69 68 68 67 67 67 69 80 85 86 81 70 72 74 74 73 73 72
77 80 83 82 82 78 75 69 69 69 70 70 70 69 69 69 70 70 70 70 71 70 70 69 68 68 68 68 68 68 68 68 84 85 84 74 70 72 73 73 72 72 72
81 81 84 83 82 81 80 75 70 70 69 69 70 69 69 81 80 78 69 70 69 68 68 68 68 68 69 68 69 70 69 83 82 83 83 67 69 71 72 72 71 71 72
79 83 84 81 82 83 84 80 81 80 81 81 81 79 83 81 81 79 74 69 69 69 68 68 69 70 71 83 83 76 82 80 81 81 80 66 68 70 70 70 70 70 70
81 82 80 79 81 82 81 83 84 82 82 81 81 82 80 82 81 81 80 79 81 74 81 78 80 82 78 78 79 77 77 78 80 80 75 65 67 68 69 69 69 69 68
81 81 80 79 79 80 82 84 83 84 83 83 80 80 80 79 77 79 80 81 79 82 79 80 80 77 77 77 77 76 76 77 78 77 76 63 64 65 67 67 67 67 67
81 81 81 80 79 79 81 81 81 81 81 79 78 76 78 75 76 76 77 80 79 80 80 78 77 77 76 76 76 76 76 75 75 77 76 62 62 63 63 64 65 65 65
83 81 81 80 80 81 79 78 77 77 79 76 75 74 72 74 72 77 78 79 79 77 76 75 74 73 73 75 75 75 74 74 75 74 75 74 61 61 61 62 63 63 63
83 82 80 79 80 78 77 77 76 75 75 73 71 71 72 74 74 74 74 73 73 73 71 71 70 72 73 74 73 74 74 74 74 73 73 72 71 59 61 61 61 61 62
84 80 80 79 77 75 72 71 71 68 67 65 69 70 69 70 72 72 71 69 70 71 70 70 70 70 69 70 70 71 71 72 72 71 73 72 71 71 66 61 61 61 61
83 80 76 76 74 67 65 61 59 60 59 62 69 69 68 69 70 69 69 70 71 71 70 69 68 67 66 67 69 69 68 69 70 72 70 70 69 69 68 65 61 61 60
82 80 76 73 69 65 65 65 65 63 66 69 68 69 70 71 71 72 71 70 70 70 68 67 64 66 66 66 67 66 67 68 69 68 68 70 68 67 66 65 65 65 61
81 77 72 68 67 72 73 70 69 68 71 72 74 72 72 72 71 70 71 70 69 68 66 66 65 63 63 65 62 62 63 66 67 68 68 67 66 66 65 64 64 64 64
74 72 71 72 73 75 77 77 76 75 76 76 74 72 72 71 70 72 68 69 68 67 66 64 62 61 61 63 58 58 54 58 63 66 65 64 63 64 63 63 62 62 62
70 70 73 76 78 79 79 79 78 76 74 73 72 72 71 71 71 70 69 68 67 66 64 63 62 60 58 60 61 57 51 49 54 59 59 61 60 59 61 62 61 61 61
74 77 80 80 79 79 78 77 74 74 70 71 75 75 72 70 70 70 69 67 65 65 63 63 64 60 59 56 59 61 57 55 47 45 54 56 58 59 58 59 59 59 59
78 78 79 79 79 77 76 77 75 74 75 75 74 70 69 70 70 69 68 66 65 64 63 61 61 59 58 54 55 54 53 53 52 47 44 48 54 56 58 57 58 58 58
77 77 77 77 77 76 75 75 74 71 71 71 69 69 69 70 70 69 68 66 65 63 62 61 60 59 55 55 55 52 50 47 48 46 43 44 45 50 56 57 57 58 58

GFSSE_sfc_temp_048.txt.gz
Temp
78 76 74 74 74 74 74 74 74 74 75 75 75 75 75 75 75 75 75 75 76 76 76 75 75 75 75 75 74 73 73 72 72 74 76 77 77 77 76 74 76 76 75
78 78 73 74 74 74 74 74 74 74 75 75 75 75 75 75 75 75 75 75 76 76 76 76 75 75 74 73 73 72 72 72 72 73 75 76 76 77 76 74 74 75 75
79 77 77 73 74 74 75 75 75 75 75 75 75 75 74 74 74 75 75 75 75 76 76 75 75 74 73 72 72 72 72 72 72 72 74 72 75 76 76 74 74 74 75
80 80 77 72 74 74 74 74 75 75 75 74 74 74 74 74 74 74 74 74 75 75 75 75 74 73 72 71 71 71 71 71 71 71 73 77 77 76 75 75 75 74 75
81 80 75 72 73 74 74 74 74 74 74 74 74 74 74 74 74 74 74 73 74 75 75 74 73 72 70 70 70 70 70 71 71 72 76 74 75 76 75 74 73 73 72
78 75 71 71 72 73 74 73 73 73 73 73 73 74 74 74 74 73 73 73 73 74 74 73 72 71 69 69 69 69 69 70 71 77 74 73 72 75 75 74 72 72 72
71 73 73 69 72 73 73 73 72 72 72 72 73 73 73 73 73 72 72 72 72 72 72 72 71 70 69 69 69 69 69 69 73 74 72 70 68 74 75 74 72 72 72
70 72 75 72 72 72 72 72 71 71 71 71 72 72 72 72 71 71 71 71 71 71 71 70 70 70 69 69 69 68 68 68 74 74 73 68 70 73 74 73 72 72 72
70 73 74 75 71 70 70 70 70 70 70 70 70 70 70 70 70 70 70 71 71 71 70 70 69 69 69 69 69 69 68 68 69 73 75 68 71 73 74 73 72 72 72
69 72 72 74 73 71 71 69 69 69 69 69 69 69 69 69 69 70 70 70 70 70 70 70 69 69 69 69 69 70 69 68 70 72 68 65 71 73 73 72 71 71 71
67 72 76 76 74 72 71 70 69 69 69 69 69 69 67 71 70 70 69 69 70 69 69 69 69 69 69 69 68 70 70 70 70 70 65 67 71 72 72 71 70 70 70
70 76 76 75 73 73 77 71 70 71 72 72 72 69 71 72 73 75 70 69 69 69 69 69 69 69 69 70 68 71 69 69 69 69 62 67 70 71 71 70 69 69 69
76 76 76 73 74 74 74 75 75 74 74 73 73 73 74 74 71 69 68 67 67 68 69 68 70 72 70 68 68 67 68 67 66 68 65 65 68 70 69 69 68 67 67
75 75 75 74 74 73 75 74 74 76 74 73 73 74 70 68 69 70 69 69 70 69 70 69 67 68 68 69 69 67 67 66 65 67 65 63 65 67 68 67 66 66 66
75 74 74 74 73 73 74 73 71 70 69 69 69 69 67 68 68 68 69 70 69 69 68 66 66 66 65 66 67 67 67 66 66 65 63 62 63 65 65 66 66 65 65
77 74 74 74 74 74 72 72 70 69 69 68 68 68 69 68 67 67 65 67 67 66 64 63 63 63 63 64 65 65 65 65 65 64 63 61 62 63 63 64 64 65 65
77 76 74 74 74 72 71 69 67 68 68 67 66 66 66 65 63 63 62 63 63 64 63 63 62 61 60 64 62 62 62 62 63 63 62 62 60 61 61 62 63 64 64
78 76 75 76 71 69 68 68 67 65 63 64 65 65 65 66 65 64 62 61 62 62 61 60 59 58 57 58 57 58 58 60 61 61 62 61 60 62 60 62 63 64 64
77 76 73 72 68 65 63 62 60 61 61 61 63 63 63 64 65 62 61 61 61 61 59 59 57 56 55 55 58 57 56 56 58 64 60 60 60 59 58 62 62 62 62
77 74 72 67 65 64 63 63 64 64 63 64 63 63 64 65 66 64 62 61 61 60 58 56 55 55 54 53 61 59 54 55 56 55 58 62 60 60 58 57 54 56 60
74 72 68 65 66 65 67 66 64 63 63 64 65 66 65 66 66 63 62 61 60 58 57 57 54 53 51 53 51 52 51 54 54 55 54 55 58 61 58 56 54 53 54
73 69 69 69 67 69 70 70 68 66 66 67 66 65 66 65 65 64 61 60 59 57 56 55 53 51 51 51 48 49 45 48 51 54 51 53 50 52 55 56 54 54 52
70 67 68 70 70 71 72 71 70 68 66 65 64 63 64 65 65 64 61 59 57 56 54 53 53 51 48 49 51 47 42 38 45 48 49 50 48 48 49 52 53 54 53
68 70 71 71 72 74 72 70 67 66 64 65 64 66 64 65 64 64 62 60 57 56 54 53 56 51 49 47 48 53 47 45 40 38 44 46 47 49 47 47 48 51 51
70 69 71 73 74 72 71 70 67 66 63 66 64 62 63 62 63 63 61 59 57 55 54 53 51 50 49 47 45 44 44 43 42 39 37 39 44 45 47 48 46 48 50
71 71 71 73 73 71 71 70 67 67 65 63 62 60 61 61 61 61 62 57 56 54 53 51 51 50 48 47 46 44 42 40 39 40 36 36 37 41 44 46 45 46 47

GFSSE_sfc_temp_051.txt.gz
Temp
70 73 74 74 74 74 74 73 74 74 74 75 75 75 75 75 75 75 75 75 75 76 76 76 75 75 75 75 74 73 73 72 72 74 76 76 77 77 76 74 75 75 75
72 74 73 74 74 74 74 74 74 74 75 75 75 74 74 74 74 75 75 75 76 76 76 75 75 75 74 74 73 73 73 72 72 73 74 75 75 76 75 74 72 74 75
72 74 74 73 74 74 74 74 75 75 75 75 74 74 74 74 74 74 74 75 75 76 76 75 75 74 74 73 72 72 72 72 72 72 73 72 73 75 75 73 73 74 75
73 73 74 72 73 74 74 74 74 75 75 74 74 74 74 74 74 74 74 74 75 75 75 75 74 73 72 71 71 71 72 72 72 73 71 73 75 75 74 73 73 73 73
74 74 73 72 73 73 73 73 73 73 73 73 73 74 74 74 74 74 73 73 74 74 74 74 73 72 71 70 70 70 71 71 72 72 66 68 70 75 75 73 72 72 72
72 73 71 71 72 73 73 73 73 73 72 73 73 73 74 74 73 73 72 73 73 73 73 73 72 71 69 69 70 70 70 70 70 65 64 69 69 75 75 73 72 72 71
70 72 72 70 72 73 73 73 72 72 72 72 72 72 73 73 72 72 71 71 72 72 72 72 71 70 69 69 70 70 69 69 68 63 63 65 68 74 74 73 72 71 71
69 71 73 71 71 71 72 71 71 71 71 71 71 71 71 71 71 71 71 71 71 71 71 70 70 70 70 69 69 69 68 69 70 66 65 64 71 74 73 72 71 71 71
68 68 69 70 71 70 69 69 69 69 69 69 70 69 69 69 69 70 70 70 70 70 70 70 69 69 69 69 69 67 67 69 65 66 69 63 72 73 73 72 71 71 70
67 68 69 69 70 69 69 68 68 68 68 68 69 68 68 69 69 69 69 70 70 70 70 70 69 69 69 69 68 67 67 68 65 64 62 64 72 73 72 71 70 70 69
67 67 68 68 69 68 68 69 68 69 68 68 68 68 66 67 67 68 68 69 70 70 69 69 69 68 68 68 67 67 67 65 66 63 60 68 71 73 71 70 69 69 68
64 66 66 70 68 69 72 67 66 69 67 67 67 66 66 66 66 70 68 68 69 69 69 69 68 69 68 65 65 67 64 65 64 63 60 67 70 71 70 69 68 67 67
65 69 71 70 69 70 69 67 66 65 65 66 66 66 66 68 66 66 64 64 65 67 65 68 66 66 65 64 64 63 64 64 60 63 63 66 68 70 70 68 67 67 66
69 70 70 69 69 69 70 68 68 68 68 66 66 67 66 65 64 64 63 65 67 66 63 62 60 62 62 64 64 62 63 62 61 61 60 64 66 68 68 68 67 66 66
69 69 68 69 69 68 67 67 67 65 65 65 65 66 65 64 63 63 61 61 60 61 60 59 60 60 60 62 62 62 62 61 61 60 57 62 64 66 67 66 66 66 66
69 68 67 68 67 68 67 66 65 64 64 64 63 64 64 63 62 59 59 59 60 60 59 59 58 57 57 58 59 60 59 59 59 59 58 56 62 63 64 65 65 66 66
70 70 68 66 67 66 64 64 63 63 63 64 63 62 62 62 60 58 57 57 59 59 58 57 55 55 55 57 56 57 57 57 57 58 57 57 56 61 62 63 64 65 65
70 69 69 71 65 63 61 60 60 59 60 59 59 59 61 61 60 58 57 57 57 56 55 54 53 53 52 51 51 52 52 54 55 56 56 56 55 57 59 62 63 64 63
71 70 66 65 63 60 59 58 58 58 57 57 58 58 59 60 60 57 56 56 56 55 53 55 52 51 49 50 53 52 50 51 52 58 55 56 55 55 55 61 61 61 62
71 68 65 64 60 59 58 58 57 57 56 57 56 57 59 60 60 57 56 56 55 54 53 52 51 51 50 49 56 53 50 50 50 49 50 55 53 54 53 53 52 54 59
66 65 63 61 60 60 58 57 56 54 55 56 57 60 60 60 60 57 55 55 54 53 51 52 50 49 48 47 45 47 46 48 49 48 48 48 50 51 51 51 50 49 50
66 63 62 62 60 61 61 60 59 58 57 58 58 58 59 59 59 59 55 54 53 52 51 50 49 46 46 47 44 42 39 44 45 50 46 47 45 47 49 53 52 51 48
61 61 63 63 62 63 64 62 59 58 57 56 56 56 58 60 60 57 56 54 53 51 50 48 48 47 44 45 46 42 37 35 39 43 45 43 44 43 44 46 49 49 49
60 63 64 65 63 64 65 62 59 56 57 56 56 56 57 59 59 58 57 54 53 51 50 48 51 46 45 42 43 49 42 40 35 36 40 43 43 45 43 42 43 46 48
63 64 61 64 65 65 66 62 60 57 57 57 57 59 57 58 58 59 56 53 51 50 49 48 46 46 44 43 42 41 40 39 38 35 34 35 39 41 42 43 42 42 46
62 61 61 63 64 64 62 61 60 58 58 59 58 57 56 56 54 54 55 51 50 49 48 47 46 45 44 43 42 41 40 38 39 38 35 33 33 37 41 40 40 41 42

GFSSE_sfc_temp_054.txt.gz
Temp
70 74 74 74 74 74 73 73 73 74 74 74 74 74 74 74 74 74 75 75 75 76 76 76 75 75 75 74 74 74 73 73 73 74 75 76 76 76 74 74 73 74 74
73 74 73 74 74 73 73 74 74 74 74 74 74 74 74 74 74 74 75 75 75 76 76 75 75 75 75 74 73 73 73 72 72 73 74 75 75 75 74 73 73 73 74
73 73 73 73 73 74 74 74 74 75 75 74 74 74 74 74 74 74 74 74 75 75 75 75 75 75 74 73 73 72 72 72 72 73 73 69 72 74 74 73 73 73 74
74 74 73 73 73 74 74 74 74 75 74 74 74 74 74 74 74 74 74 74 74 75 75 75 75 74 73 72 72 72 72 72 71 71 68 69 73 74 74 73 73 72 73
73 74 73 72 73 73 73 74 74 73 73 73 73 74 74 74 74 74 73 73 74 75 75 75 74 73 71 71 71 71 72 71 69 68 63 65 68 74 74 72 72 72 72
72 73 71 71 72 73 73 73 73 72 72 72 73 73 74 74 73 73 72 73 73 74 74 74 73 72 70 70 71 70 70 70 68 62 63 68 68 74 73 72 71 71 71
69 70 71 69 71 72 73 73 72 72 72 72 72 72 73 73 72 72 71 71 72 72 72 72 71 71 70 70 70 69 69 68 64 61 62 64 67 74 73 72 71 71 71
67 69 72 71 72 71 72 71 71 71 71 71 71 71 71 71 71 71 71 71 71 71 71 71 70 70 70 69 69 68 68 69 67 63 63 63 71 73 73 71 70 70 70
67 67 68 71 71 69 69 69 69 69 69 70 70 70 70 69 70 70 70 70 70 70 70 70 69 69 69 69 68 67 67 67 62 63 67 62 72 72 72 71 70 69 69
66 66 67 68 69 68 68 68 68 68 68 69 69 68 68 68 69 69 69 70 70 70 70 70 69 69 69 68 67 67 66 66 61 61 60 63 72 72 71 70 69 68 68
66 66 67 67 67 67 67 68 68 68 68 68 68 68 66 65 66 67 68 69 70 70 70 69 69 69 68 67 67 66 66 63 61 60 59 68 71 72 70 69 68 67 67
63 65 66 66 66 67 71 66 65 68 66 65 65 65 65 64 64 67 67 69 69 69 68 69 68 67 66 63 62 64 61 62 61 60 59 67 70 71 69 68 67 67 66
64 65 65 65 66 65 66 63 63 63 64 64 65 64 64 65 64 63 62 62 63 66 64 65 63 62 62 61 61 60 60 59 57 58 61 66 69 70 69 68 67 66 65
63 66 67 67 66 65 65 64 64 64 63 63 64 65 63 62 62 62 61 63 62 61 60 59 58 60 59 60 60 59 58 57 56 56 58 64 66 69 69 68 67 66 65
63 67 67 68 65 65 64 63 63 63 63 63 63 64 63 62 60 60 58 59 58 59 58 57 57 57 57 58 57 57 57 56 57 55 53 62 63 67 68 67 67 66 65
67 67 67 67 65 65 63 63 62 63 63 62 62 62 63 61 58 57 56 57 58 58 56 55 54 53 53 54 55 55 55 54 54 54 54 53 61 64 65 66 66 66 65
69 68 67 64 65 65 64 62 61 62 62 60 60 61 61 60 58 56 55 55 56 56 54 54 53 52 52 54 53 53 53 53 53 53 54 53 54 60 62 64 64 65 64
69 67 66 68 64 62 60 60 60 60 59 58 58 58 59 59 58 56 56 54 54 53 52 51 51 50 49 48 48 49 49 51 52 52 53 54 51 53 56 61 62 63 63
68 66 63 63 61 59 58 57 57 57 56 56 56 57 58 58 58 55 54 53 53 52 51 53 49 49 47 48 51 48 49 49 48 53 51 51 51 51 51 58 59 60 61
67 65 64 62 59 57 57 56 56 55 54 55 55 56 57 57 57 55 53 53 53 51 50 49 49 49 47 46 53 51 47 46 46 46 47 51 49 49 50 53 51 53 58
63 63 62 60 58 59 57 57 55 53 54 54 55 57 57 57 57 54 53 52 51 51 49 50 48 47 46 45 43 43 43 45 45 45 45 45 47 48 48 48 47 49 51
62 63 61 61 59 60 59 57 56 55 54 54 55 56 57 56 55 55 53 52 51 49 49 48 47 45 44 44 42 39 38 40 43 48 44 46 42 44 46 48 47 48 46
61 60 62 61 60 60 60 59 56 55 54 53 53 53 55 57 57 55 53 51 51 49 48 46 45 45 42 42 43 42 36 33 36 40 42 42 42 41 42 43 46 46 45
60 60 62 61 61 60 60 59 56 55 55 53 53 53 55 57 56 55 54 52 50 49 47 47 47 44 42 41 41 46 41 39 34 32 38 41 40 43 40 40 41 43 44
60 60 61 62 62 61 62 60 58 54 54 53 53 54 54 54 55 55 52 50 49 47 46 46 44 44 42 41 40 39 38 37 36 33 32 33 38 40 40 40 39 39 42
61 61 61 62 61 60 61 59 58 56 54 53 53 53 53 53 51 53 51 49 48 47 46 45 44 43 41 40 40 38 38 37 35 35 35 37 37 36 38 39 38 39 39

GFSSE_sfc_temp_057.txt.gz
Temp
70 74 73 74 74 73 73 73 73 74 74 74 74 74 74 74 74 74 75 75 75 76 76 75 75 75 75 75 74 74 73 73 73 74 75 76 75 75 74 73 73 72 74
72 75 73 73 73 73 73 73 74 74 74 74 74 73 73 74 74 74 74 75 75 76 76 76 75 75 75 73 73 72 73 72 73 73 73 74 74 74 73 73 73 72 73
72 74 73 73 73 74 74 74 74 75 75 74 74 74 74 74 74 74 74 75 75 76 76 76 76 75 74 73 72 72 72 72 72 72 72 66 70 74 74 72 72 73 73
73 73 73 72 73 74 74 74 74 75 74 74 74 74 74 74 74 74 74 74 75 76 76 76 76 75 73 73 72 72 71 71 70 69 65 66 72 74 73 73 72 72 72
73 74 73 71 72 73 73 74 74 73 73 73 73 74 74 74 74 74 73 73 74 75 76 76 75 73 71 71 71 71 70 70 68 67 62 65 67 73 73 72 71 71 71
72 73 70 70 71 73 73 73 73 73 72 72 73 73 74 74 74 73 72 73 74 75 75 75 74 72 70 69 69 70 69 68 66 61 62 67 67 73 73 71 71 71 70
70 71 69 69 71 73 73 73 72 72 72 72 72 73 73 73 73 72 71 72 72 73 73 73 72 71 70 70 69 69 67 67 61 60 61 63 67 73 72 71 70 70 70
66 67 71 70 71 72 72 71 71 71 71 71 71 71 72 72 71 71 71 71 71 71 71 71 70 70 70 69 69 68 67 67 64 61 62 62 70 72 71 70 69 69 69
66 66 67 68 70 71 68 69 69 69 69 70 70 70 70 69 70 70 70 70 70 70 70 70 69 69 69 68 67 66 66 66 60 61 65 61 71 71 71 70 69 68 68
66 66 65 66 67 66 67 68 68 68 68 68 69 68 68 68 69 69 69 70 70 70 70 69 69 68 68 67 66 66 65 64 59 59 59 62 71 71 70 69 68 67 67
63 64 64 66 66 65 66 68 68 68 68 68 68 67 65 63 64 66 68 69 69 69 69 69 68 66 66 66 66 65 64 59 59 58 58 67 71 71 69 68 67 66 66
61 63 64 65 65 66 70 65 64 67 65 64 64 64 62 62 64 66 67 68 68 68 68 67 66 65 64 61 60 62 59 58 58 57 57 67 70 70 69 67 67 66 66
63 64 64 65 65 65 65 63 63 63 62 63 64 63 63 64 63 62 61 61 61 64 62 62 61 60 60 59 58 57 57 56 53 55 59 65 69 70 68 67 67 66 65
61 63 65 65 65 63 63 62 62 63 62 62 63 63 61 60 60 60 59 60 59 58 58 57 56 57 57 57 57 55 55 53 52 53 55 62 65 69 69 67 67 65 65
63 64 65 64 62 63 61 60 60 61 61 62 63 63 62 60 59 58 57 57 56 57 56 55 58 55 54 55 53 54 53 52 53 52 50 60 62 66 68 67 66 66 64
64 64 65 65 62 62 61 62 61 62 62 62 62 62 61 59 57 56 55 56 55 55 54 55 53 52 51 52 51 52 52 51 51 51 50 49 59 63 66 66 65 66 65
65 66 64 63 64 63 62 62 60 61 61 59 59 60 60 58 56 55 53 53 54 53 53 52 51 50 50 52 50 50 50 50 50 50 50 50 51 59 61 62 64 64 64
65 65 65 67 63 61 60 60 60 59 59 58 58 58 58 58 57 55 55 53 53 52 51 49 49 48 47 47 46 47 48 48 49 49 49 50 49 51 55 60 62 62 63
65 63 63 62 60 59 58 57 57 57 57 56 56 56 57 57 56 54 53 51 51 50 49 51 48 48 46 46 49 48 46 45 47 51 49 49 49 49 49 56 57 58 61
63 62 61 60 58 57 56 56 55 54 54 55 55 55 56 56 56 53 52 51 51 49 49 48 47 46 46 45 51 49 43 44 44 44 45 49 47 47 47 47 46 48 56
60 59 59 58 56 57 56 54 53 52 52 53 54 56 56 56 55 52 51 50 50 49 48 49 46 46 44 42 42 42 42 43 42 43 43 43 45 46 45 46 45 44 46
60 60 58 59 57 58 58 55 55 53 53 53 54 55 55 55 54 53 51 50 50 48 48 47 46 43 42 42 41 37 37 39 41 44 42 44 41 42 44 46 44 45 43
59 59 60 60 59 59 58 56 53 53 53 52 52 52 53 54 54 53 51 50 49 48 46 45 44 44 42 41 42 40 35 32 35 39 40 40 40 40 40 42 44 44 43
61 62 62 60 59 59 59 56 54 53 51 51 52 52 53 54 54 53 52 49 48 47 46 45 46 44 42 41 40 44 40 38 34 32 37 39 38 41 39 39 40 41 42
61 60 60 59 59 59 59 58 55 52 52 52 51 52 51 52 53 52 50 48 47 46 45 44 43 42 42 42 39 37 37 35 35 33 30 33 36 39 39 39 38 38 40
59 59 58 59 59 60 59 57 55 53 53 52 50 50 50 49 49 49 50 48 49 46 45 44 43 43 40 38 38 37 37 36 35 33 31 32 32 36 37 38 37 37 38

GFSSE_sfc_temp_060.txt.gz
Temp
70 72 73 74 74 74 73 73 74 74 74 74 74 74 74 74 74 74 75 75 75 76 76 76 76 76 76 75 75 74 74 73 73 74 75 75 75 74 74 73 73 73 74
72 74 73 73 73 73 74 74 74 74 74 74 74 74 74 74 74 74 75 75 75 76 76 76 75 74 74 74 73 73 73 72 72 72 73 74 74 74 73 73 72 73 73
72 74 73 73 73 74 74 74 74 74 74 74 74 74 74 74 74 74 75 75 75 76 76 76 75 75 74 73 73 73 72 71 71 71 71 66 70 74 73 72 72 72 73
73 73 72 72 73 74 74 74 74 75 74 74 74 74 74 74 74 74 74 74 75 76 76 76 75 74 73 72 72 72 71 71 70 69 66 67 72 73 73 72 72 72 72
72 73 72 72 72 73 73 74 73 73 73 73 73 74 74 74 74 74 74 74 75 76 76 76 74 73 72 71 71 70 70 69 68 66 64 66 68 73 72 71 71 71 71
71 71 70 70 72 73 73 73 73 73 72 72 73 73 74 74 74 73 73 74 75 75 75 74 73 71 70 70 70 69 68 68 66 62 63 68 67 72 72 71 70 70 70
70 69 70 70 72 73 73 73 72 72 72 72 73 73 73 73 73 72 72 72 73 73 73 73 72 70 70 69 69 68 67 66 61 61 62 64 67 72 71 70 70 69 69
67 68 69 72 71 71 71 71 71 71 71 71 72 72 72 72 71 71 71 71 71 71 71 71 70 70 70 69 68 67 66 66 63 61 62 63 70 71 71 70 69 68 68
67 66 67 68 68 68 69 69 69 69 70 70 70 70 70 69 70 70 70 71 70 70 70 70 69 69 68 68 67 66 65 65 60 61 65 63 71 71 70 69 69 68 68
66 65 65 66 66 67 67 67 68 68 68 68 69 68 68 68 69 69 69 70 70 70 70 69 68 67 67 66 65 64 64 63 58 59 60 64 70 70 70 69 68 67 67
63 64 64 65 65 66 67 68 67 68 68 68 68 67 64 63 64 65 68 68 69 69 68 68 67 66 65 64 64 64 62 57 58 57 58 67 70 70 69 68 67 67 66
60 60 61 64 64 65 69 65 64 66 64 64 64 63 62 61 62 65 66 68 68 67 67 66 65 64 62 59 59 60 56 56 55 57 58 66 70 69 68 67 67 66 66
60 61 63 64 64 64 64 63 62 62 62 62 63 62 61 63 62 61 60 60 60 62 60 61 59 58 57 57 56 54 54 53 52 53 58 64 67 70 68 67 66 66 65
61 62 63 64 64 64 63 62 61 61 61 61 62 62 61 59 59 59 58 58 58 56 56 55 55 54 54 55 54 53 52 51 51 52 54 62 64 68 68 67 66 65 65
61 63 63 63 63 63 62 61 61 61 61 61 61 62 62 60 59 57 56 55 55 55 54 54 56 57 55 52 52 52 51 51 51 50 49 58 61 65 68 67 67 66 65
63 62 64 62 62 62 60 59 59 60 61 61 61 62 61 59 56 55 54 55 54 53 53 57 56 54 49 50 50 50 50 50 50 49 49 50 60 63 64 65 65 65 65
64 64 63 62 61 60 60 60 60 61 61 61 61 60 59 57 56 54 53 52 52 52 52 55 51 49 49 50 49 49 49 49 49 49 49 50 52 59 61 62 63 64 64
61 62 63 66 62 61 60 60 60 59 59 59 59 58 57 57 56 54 54 52 51 51 51 49 49 47 46 47 46 46 46 48 48 49 49 49 49 51 53 59 60 62 62
62 62 60 61 60 59 58 58 58 58 57 57 57 56 56 56 55 54 54 51 51 50 49 50 47 47 46 46 48 46 44 45 46 50 48 48 48 48 49 54 56 56 58
60 60 60 59 57 56 56 55 55 55 55 55 55 55 55 55 55 54 52 50 50 48 47 47 46 45 45 45 50 46 43 44 44 44 46 49 47 47 47 48 46 48 54
59 58 58 57 56 57 55 54 53 52 52 53 54 55 55 56 54 52 50 49 49 48 48 47 45 45 43 43 43 42 42 43 43 43 44 44 46 46 46 46 46 46 46
59 59 58 58 56 57 58 54 54 53 52 53 53 54 55 54 52 52 49 48 48 47 46 46 46 43 42 42 41 38 37 40 42 43 42 44 43 44 45 46 45 45 45
59 58 59 58 57 58 58 55 52 52 52 51 51 51 52 53 53 52 50 48 48 47 45 44 44 44 41 41 42 41 36 34 36 40 41 41 42 42 42 43 44 44 44
59 59 59 58 57 57 57 55 54 53 51 51 51 51 52 52 52 51 50 48 46 45 45 44 45 43 42 41 40 44 40 39 35 33 38 40 40 42 41 41 41 42 43
57 57 57 58 57 57 58 57 55 52 52 53 51 52 51 50 51 50 49 46 45 45 45 46 45 44 43 41 39 38 37 36 35 34 31 35 38 40 41 40 40 40 41
56 56 57 57 57 58 58 57 55 54 52 53 50 51 49 48 47 47 47 46 46 45 47 46 43 43 41 40 39 38 38 36 35 33 31 32 32 37 39 40 39 39 39

GFSSE_sfc_temp_063.txt.gz
Temp
74 79 73 74 74 74 74 74 74 74 74 75 75 75 75 75 75 75 75 75 76 77 77 77 76 76 76 76 75 74 73 73 74 75 75 75 75 75 74 73 75 79 74
75 79 73 74 74 74 74 74 74 74 74 74 74 74 74 74 74 75 75 75 76 77 77 76 76 76 75 75 73 73 73 72 72 73 75 75 75 74 74 73 73 77 73
75 79 78 73 74 74 74 74 74 75 75 74 74 74 74 74 75 75 75 75 76 76 76 76 76 76 75 73 73 72 72 71 71 71 74 80 78 74 73 72 72 73 73
76 78 79 72 73 74 74 74 74 75 74 74 74 74 74 74 75 75 75 75 75 76 76 76 76 75 73 72 72 71 71 71 70 72 79 80 79 73 73 72 72 72 73
75 77 78 72 73 73 73 73 74 73 73 73 73 74 74 74 75 75 74 74 75 76 76 76 75 73 72 71 70 70 70 69 69 76 79 78 79 74 72 72 72 71 71
73 75 73 71 72 73 73 73 73 73 73 73 73 74 74 74 74 74 74 74 75 75 75 74 73 72 70 69 69 69 69 68 72 78 78 75 77 72 72 71 70 70 70
71 73 75 70 72 73 73 73 72 72 72 72 73 73 73 74 73 73 73 73 73 73 73 73 72 71 70 69 69 68 67 68 77 78 77 77 75 72 71 70 70 69 69
71 72 73 71 72 71 71 71 71 71 71 71 72 72 72 72 72 72 71 71 71 71 71 71 70 70 69 69 68 67 66 68 75 76 76 77 72 71 71 70 69 69 68
68 67 68 68 68 69 69 69 69 70 70 70 70 70 69 69 70 71 71 71 71 71 70 70 69 68 68 68 67 65 65 66 75 75 75 77 70 71 70 70 69 68 68
66 66 66 65 65 65 69 68 68 68 68 68 68 68 68 68 69 69 69 70 70 70 69 69 68 67 67 66 65 64 64 66 74 75 75 75 70 70 70 69 69 68 68
64 65 65 64 64 65 69 68 68 68 68 68 68 67 66 71 72 74 69 69 69 68 68 67 66 65 65 64 64 64 66 72 73 74 75 68 70 70 69 68 68 67 67
60 61 63 63 64 64 67 66 68 71 72 71 71 69 70 70 71 72 70 67 67 67 67 66 65 65 68 71 70 67 70 69 71 71 73 66 70 69 68 68 67 67 66
60 60 60 62 64 64 65 67 69 70 70 70 69 68 69 69 69 69 70 70 70 67 69 66 68 69 67 69 68 67 68 68 70 71 68 64 67 70 68 67 66 66 66
59 61 61 62 64 66 68 68 68 69 68 68 68 68 69 68 67 68 68 69 67 67 66 66 66 65 65 65 65 64 65 67 69 69 68 60 63 68 69 68 66 66 65
62 61 62 65 65 67 67 68 67 67 68 67 67 69 68 68 67 67 64 65 65 67 66 66 66 65 65 64 64 64 64 64 64 68 68 61 63 66 68 68 67 66 65
65 65 66 68 69 68 68 68 68 67 69 68 69 70 69 69 65 62 63 64 64 67 67 66 65 63 65 64 62 62 62 64 64 64 66 65 61 63 64 65 65 66 65
68 69 67 68 69 68 68 68 68 69 70 70 69 67 67 65 63 62 61 63 65 65 63 58 63 64 64 64 62 62 63 62 63 63 65 65 65 59 60 62 63 64 64
69 68 70 70 67 67 67 68 69 68 70 69 67 66 66 64 63 63 64 63 64 64 63 63 64 63 63 64 63 62 62 62 62 62 64 64 65 66 61 59 59 60 60
69 70 69 69 68 67 67 66 66 67 67 66 65 65 64 63 63 64 64 62 63 64 64 64 62 62 62 63 64 62 61 61 61 63 62 62 61 63 65 57 56 56 57
69 70 69 69 67 66 65 65 66 66 65 65 65 65 64 65 64 64 63 62 64 63 62 62 61 60 61 61 62 60 60 60 60 61 62 62 62 61 62 60 61 61 54
68 68 68 66 66 65 63 61 61 61 63 63 64 64 64 65 64 60 64 62 63 63 61 60 59 59 59 60 59 59 58 57 56 59 60 61 60 60 60 60 60 61 60
67 67 67 67 65 66 68 66 66 65 65 64 64 63 64 64 62 60 62 61 62 60 59 59 59 58 59 58 57 56 55 55 57 58 58 58 57 60 59 58 57 57 57
66 66 67 67 66 67 68 66 63 63 62 60 60 62 62 61 60 62 61 61 60 61 60 59 59 57 56 56 55 55 51 51 52 57 55 56 55 57 58 57 56 56 56
66 67 67 67 66 66 66 66 64 65 63 62 62 61 59 59 61 62 61 60 59 60 59 58 58 58 56 54 55 55 54 54 50 48 55 55 55 54 55 57 56 55 54
66 65 66 66 66 65 64 65 64 63 62 60 61 58 59 59 62 61 60 59 58 59 57 57 55 51 50 49 54 53 52 53 51 48 46 50 53 55 56 55 55 53 53
65 65 65 65 65 64 64 63 63 62 59 57 59 59 60 61 60 59 59 59 58 56 56 51 54 49 49 49 51 52 52 50 50 48 46 47 47 50 53 54 53 53 53

GFSSE_sfc_temp_066.txt.gz
Temp
84 84 73 74 75 74 74 74 74 74 75 75 75 75 75 75 75 75 75 76 76 77 77 77 77 77 76 76 75 74 74 74 74 75 75 75 75 75 74 74 77 82 74
82 85 73 74 74 74 74 74 74 74 75 75 74 74 74 75 75 75 75 76 77 77 77 77 77 76 75 74 73 73 73 72 72 74 75 75 74 74 74 73 73 78 73
82 84 82 73 73 74 74 74 74 75 75 75 74 74 74 75 75 75 75 76 76 77 77 77 76 76 75 74 73 73 72 72 72 74 77 85 80 74 73 73 73 73 73
83 86 85 72 73 74 74 74 74 75 74 74 74 74 75 75 75 75 75 75 76 77 77 77 76 75 74 72 72 72 71 71 72 74 86 86 82 73 73 73 72 72 74
82 85 84 72 73 73 73 74 74 74 73 73 74 74 75 75 75 75 74 75 75 77 77 77 75 73 72 71 71 71 71 71 72 81 85 84 82 75 72 71 73 71 71
83 84 74 71 72 73 73 73 73 73 73 73 73 74 74 75 75 74 74 74 75 76 76 75 73 72 70 70 70 69 70 71 74 85 84 79 79 72 71 71 70 70 70
76 78 78 70 72 73 73 73 73 72 72 72 73 73 74 74 74 73 73 73 73 74 74 73 72 70 70 69 69 68 69 71 84 85 84 81 76 72 71 70 70 69 69
69 73 78 72 72 72 72 72 71 71 71 72 72 72 72 72 72 72 71 71 72 72 71 71 70 70 69 69 68 67 68 70 81 83 83 80 72 71 71 70 69 69 68
71 73 70 72 72 69 69 69 69 70 70 71 70 70 70 70 70 70 71 71 71 71 70 70 69 69 68 68 67 66 66 68 82 82 82 81 70 71 71 70 69 69 68
69 67 65 64 65 64 66 68 68 68 68 69 69 68 68 68 69 69 69 70 70 70 70 69 68 67 67 66 65 65 66 69 82 82 82 77 70 71 70 69 69 68 68
65 62 63 63 62 64 68 68 68 68 68 68 69 68 70 77 76 75 70 69 69 68 68 67 66 65 65 64 65 66 69 81 81 82 80 68 70 70 69 68 68 68 67
61 61 63 63 64 64 66 66 70 71 74 75 75 77 80 78 80 78 70 67 67 67 67 66 66 67 71 79 77 71 78 78 80 80 76 66 70 70 68 68 67 67 67
61 62 62 63 66 64 63 64 66 70 72 75 77 79 77 77 75 77 74 75 74 71 76 75 75 78 75 76 76 75 76 77 79 80 70 63 67 70 68 67 67 66 66
59 60 62 63 62 63 64 65 68 71 73 73 78 77 75 76 74 76 77 77 75 77 75 75 74 72 71 72 72 72 73 76 77 78 70 63 64 68 69 68 67 66 66
59 59 59 62 62 63 64 68 73 73 75 76 76 76 77 75 75 77 76 77 77 76 75 73 73 73 72 72 73 72 72 71 72 76 75 62 64 67 69 68 68 66 65
60 59 59 61 63 65 69 73 74 76 77 77 76 77 75 77 75 76 74 74 74 75 75 74 74 74 73 72 71 70 70 72 71 72 75 69 61 63 65 65 66 66 66
68 69 67 68 69 73 74 76 77 78 78 78 78 76 76 75 72 73 71 70 74 75 72 71 72 73 73 73 70 71 72 70 71 70 74 74 69 59 61 61 62 63 63
74 72 73 75 73 73 76 76 78 77 76 76 75 74 74 72 71 67 70 72 73 72 72 71 72 71 72 73 71 74 73 71 70 70 71 73 74 74 61 59 59 59 60
73 74 75 75 74 72 72 74 73 74 75 78 75 75 73 72 70 70 72 71 71 71 71 71 71 71 70 72 73 73 72 71 69 73 70 68 68 69 70 58 58 57 58
75 77 76 76 75 74 74 74 76 77 78 77 74 71 70 70 70 72 73 71 72 71 70 71 69 70 71 71 72 70 69 69 70 69 68 69 69 66 67 66 67 67 57
77 77 76 75 75 74 74 74 74 73 75 75 71 73 72 72 71 71 73 70 72 71 70 68 68 66 67 69 68 69 67 65 64 66 67 67 66 66 65 65 65 66 66
75 75 76 77 77 76 78 76 76 75 77 76 71 72 71 70 71 71 71 70 70 70 67 66 66 66 67 67 64 62 61 63 64 64 66 65 64 66 65 64 63 62 63
75 75 77 78 78 76 77 77 77 77 76 73 68 68 70 68 72 70 68 71 69 69 67 66 67 65 64 63 62 59 50 55 61 67 62 63 62 63 64 64 63 62 62
75 77 78 78 78 76 76 76 73 74 73 74 70 71 67 69 68 68 69 69 68 70 68 67 67 66 64 59 61 56 56 57 56 56 63 62 62 61 61 62 62 62 61
77 76 76 78 77 77 76 76 74 73 76 75 71 70 68 66 66 67 69 68 68 68 67 66 64 62 57 61 57 54 55 60 59 55 52 58 62 63 63 62 61 61 60
78 76 76 76 77 76 74 73 73 73 72 68 68 66 61 63 64 66 69 68 68 67 65 64 62 59 55 57 56 56 58 57 57 56 54 55 55 59 61 60 59 60 60

GFSSE_sfc_temp_069.txt.gz
Temp
85 84 74 75 75 74 74 74 74 74 75 75 75 75 75 75 75 75 76 76 77 77 78 77 77 77 76 76 75 74 74 74 74 75 75 75 75 75 74 74 77 79 74
83 84 73 74 75 74 74 74 74 74 75 75 75 75 75 75 75 75 76 76 77 77 77 77 76 76 76 74 74 73 73 73 73 74 74 75 74 74 74 73 73 76 73
83 86 81 73 74 74 74 74 75 75 75 75 75 74 75 75 75 75 76 76 76 77 77 76 76 76 75 74 73 73 73 73 74 74 78 83 78 74 73 72 72 73 73
85 86 83 72 74 74 74 74 74 75 74 74 74 75 75 75 75 75 75 75 76 77 77 76 76 75 74 72 72 72 72 73 73 75 86 84 81 73 73 73 72 72 73
82 85 81 72 73 74 74 74 74 74 74 74 74 75 75 75 75 75 74 75 76 77 77 76 75 73 72 71 71 71 72 72 74 82 83 81 79 74 72 71 72 71 71
77 83 74 71 72 73 74 74 73 73 73 73 73 74 75 75 75 74 74 75 76 76 76 75 73 71 70 70 70 70 71 72 72 86 83 77 76 72 72 70 70 70 70
75 80 78 70 72 73 73 73 73 72 72 73 73 74 74 74 74 73 73 74 74 74 74 73 72 70 70 69 69 69 70 70 85 86 82 78 74 71 71 70 69 69 69
68 72 74 72 72 72 72 72 71 72 72 72 72 73 73 72 72 72 72 72 72 72 71 71 70 70 69 69 68 68 68 69 83 84 82 77 71 71 71 70 69 69 68
71 69 68 70 71 69 69 69 69 70 70 71 71 70 70 70 70 70 70 71 71 71 70 70 69 68 68 68 67 67 68 70 83 83 83 78 70 70 70 70 69 68 68
70 67 66 64 66 65 68 68 68 68 68 69 69 68 68 69 69 70 70 70 70 70 69 69 68 67 67 66 66 67 68 69 83 84 79 74 71 70 70 69 69 68 68
63 63 62 61 62 65 65 69 68 68 68 68 68 68 70 77 77 77 69 69 69 68 68 68 67 66 65 65 67 68 67 81 82 82 77 69 70 70 69 68 68 68 67
61 61 61 61 60 62 64 66 69 72 73 73 74 74 76 77 80 77 70 67 67 67 67 67 67 66 70 79 77 71 79 79 79 79 72 66 70 69 68 68 67 67 67
61 61 61 60 60 61 63 65 65 67 72 72 74 77 76 77 76 76 72 73 72 70 75 73 72 78 77 78 76 76 77 78 78 80 69 65 67 70 68 68 67 67 66
60 60 61 61 61 61 64 64 65 66 70 73 74 76 75 76 76 75 76 74 75 77 75 77 76 74 74 74 73 73 74 76 77 78 68 64 66 68 69 68 67 66 66
59 60 60 61 61 61 62 62 63 69 73 73 75 75 75 76 76 77 77 76 77 78 77 76 74 74 73 74 75 74 74 73 74 77 70 62 65 67 69 68 68 67 66
59 58 60 60 61 61 61 64 67 72 74 74 74 75 76 77 76 78 77 77 77 77 77 76 75 74 75 74 72 73 73 74 73 74 75 67 61 63 65 65 66 66 66
59 61 60 60 61 63 65 68 72 74 77 77 78 77 76 78 76 77 76 76 76 77 75 76 74 75 75 76 72 73 73 72 72 72 75 73 65 60 61 62 62 62 62
59 60 61 65 65 66 68 72 75 79 78 79 80 78 78 77 76 75 74 72 74 75 74 74 74 74 73 73 72 74 74 73 71 71 73 73 73 72 61 60 60 60 60
70 68 67 69 69 69 72 77 77 77 78 80 79 76 74 73 74 73 73 74 74 74 73 73 73 73 72 73 73 72 72 72 70 74 70 70 69 69 70 60 60 60 59
73 73 75 73 72 72 72 75 77 77 78 79 78 77 75 74 72 71 75 74 73 73 72 73 71 72 72 72 73 72 70 70 71 70 69 70 70 68 67 67 66 65 59
74 75 76 75 74 74 75 75 76 75 78 79 78 75 73 74 73 73 75 73 72 73 72 70 70 68 68 69 68 69 69 68 67 68 69 68 68 68 67 66 65 67 66
75 77 79 79 78 78 79 79 79 78 79 80 76 72 73 74 74 73 74 73 72 73 70 69 68 68 69 69 65 65 62 65 66 66 67 67 66 67 67 67 65 64 64
77 77 79 80 81 80 81 81 79 79 79 78 75 70 72 73 74 74 74 73 72 72 70 68 68 68 66 66 65 63 58 56 61 68 66 66 65 64 65 66 65 65 64
78 80 80 81 82 82 79 79 76 76 75 77 76 73 71 73 72 72 73 72 71 71 69 68 70 68 67 64 64 64 62 60 56 55 66 64 64 63 63 63 64 64 64
80 79 79 81 81 82 78 79 77 75 78 79 76 71 70 71 70 69 70 71 70 69 69 69 68 66 65 62 59 59 58 60 60 56 53 59 64 65 65 64 63 63 62
80 79 79 80 81 81 80 77 77 75 76 77 73 70 69 69 68 64 66 68 68 66 68 68 67 65 60 60 59 56 58 58 58 58 55 56 57 60 63 64 62 61 61

GFSSE_sfc_temp_072.txt.gz
Temp
81 78 74 75 74 74 74 74 74 74 74 75 75 75 75 75 75 75 76 76 76 77 77 77 76 76 76 76 75 74 74 74 74 74 75 75 75 75 74 74 74 74 74
77 79 73 74 74 74 74 74 74 74 74 75 75 74 74 75 75 75 76 76 76 77 77 77 76 76 75 75 74 73 73 73 73 74 75 74 74 74 73 73 73 73 73
66 78 77 74 74 74 74 74 74 75 75 75 74 74 74 75 75 75 76 76 77 77 77 76 76 75 75 74 73 73 73 73 73 74 76 72 71 74 73 72 72 73 73
73 78 77 73 74 74 74 74 74 75 75 74 74 74 74 75 75 75 75 75 76 76 77 76 76 74 74 72 72 72 72 72 73 75 75 73 73 72 73 72 71 72 72
76 81 77 72 73 74 74 74 74 74 74 74 74 74 74 75 75 75 74 74 75 76 76 76 74 73 72 71 71 71 72 72 72 75 71 70 69 72 71 71 70 70 71
75 80 71 72 73 73 74 74 73 73 73 73 73 74 74 75 74 74 74 74 75 75 75 74 73 71 70 70 70 70 70 70 71 74 70 70 69 71 71 70 69 69 69
70 75 72 69 72 73 74 73 73 72 72 73 73 73 74 74 74 74 74 74 74 74 73 72 71 70 69 69 69 69 69 69 74 73 69 67 67 71 71 70 69 69 69
67 68 71 70 72 73 72 72 71 71 72 72 72 72 72 72 72 73 72 72 72 72 71 71 70 69 69 69 69 69 69 69 78 73 69 67 70 71 70 69 69 68 68
67 64 64 67 68 69 69 69 69 70 70 71 71 70 70 70 70 71 71 71 71 70 70 70 69 68 68 68 68 68 67 68 67 73 72 67 70 70 70 69 69 68 68
68 67 66 66 65 66 67 67 68 68 68 68 68 68 68 68 69 69 69 70 70 70 69 69 68 67 67 67 67 68 68 67 71 70 68 66 70 70 70 69 68 68 68
62 64 66 64 65 65 66 68 68 68 68 68 68 68 68 70 69 71 68 69 69 68 68 68 67 66 66 67 67 68 68 69 70 68 66 68 69 70 69 68 68 67 67
59 60 62 61 62 63 65 64 66 69 70 70 70 70 71 69 70 69 67 67 67 67 67 67 67 66 67 66 65 67 67 68 68 66 62 67 69 69 69 68 67 67 67
59 59 60 60 60 59 60 61 62 64 67 68 69 70 69 69 68 67 65 65 64 66 67 67 65 66 68 67 66 64 66 67 65 65 63 65 69 69 68 67 67 67 66
59 58 58 60 60 60 61 62 63 64 67 67 68 69 68 67 68 67 66 66 65 67 65 65 65 66 65 66 65 65 65 64 63 62 60 64 66 69 69 68 67 66 66
58 58 59 60 60 61 60 61 61 62 64 66 67 69 69 68 67 67 67 67 67 67 66 66 65 65 65 65 65 66 65 64 65 63 58 63 65 68 69 69 67 67 66
58 58 59 59 59 59 58 60 61 63 64 65 66 67 70 69 67 68 67 67 67 68 67 66 64 64 64 64 64 65 64 64 64 63 60 57 62 64 66 66 66 66 66
58 58 58 58 58 58 59 59 61 64 67 66 67 69 70 70 69 68 67 67 67 67 66 66 65 65 63 65 63 64 63 64 63 64 62 59 57 61 62 64 63 63 62
58 58 59 61 59 59 61 62 64 69 69 70 69 69 69 69 69 68 67 66 67 66 65 64 63 62 61 61 60 60 62 63 63 63 62 61 59 61 60 62 62 62 61
59 59 59 60 60 60 62 65 67 68 69 71 70 70 69 69 69 67 65 65 66 65 63 64 62 61 60 60 62 60 60 60 61 67 62 62 59 59 57 60 60 61 61
61 62 61 62 63 63 63 64 66 70 72 72 70 70 69 69 68 67 67 65 65 64 62 62 61 62 60 60 69 63 58 59 59 58 59 63 60 59 58 57 53 55 59
63 63 63 64 64 64 64 64 67 66 69 68 70 71 69 69 69 65 67 66 64 63 62 62 61 59 58 59 56 56 56 57 56 57 57 57 59 59 57 57 55 54 54
66 65 65 66 68 68 68 70 71 70 71 72 72 69 69 68 69 67 66 65 64 63 62 60 60 57 57 58 54 54 50 53 56 57 56 57 55 58 58 58 56 56 55
67 68 71 71 71 71 72 74 72 71 69 70 68 67 67 69 69 67 66 65 64 64 61 59 59 58 55 55 56 52 47 46 49 54 53 54 54 53 54 56 57 57 55
69 71 73 75 75 74 74 74 70 70 68 69 68 69 67 68 69 70 67 65 64 63 62 60 63 58 57 53 53 57 55 53 48 44 51 52 53 54 52 52 53 55 56
73 72 73 75 76 75 75 72 71 68 69 70 71 67 66 66 67 69 65 64 63 63 62 61 60 60 57 53 52 51 52 49 52 45 43 49 53 53 53 51 51 51 55
73 74 74 75 76 74 74 72 70 68 68 69 66 65 66 65 64 64 64 61 61 62 60 59 60 59 54 52 51 51 51 49 50 46 43 44 45 49 53 52 51 50 51

GFSSE_sfc_temp_075.txt.gz
Temp
65 73 74 75 75 74 74 74 74 74 75 75 75 75 75 75 76 76 76 76 76 77 77 77 77 77 76 76 75 74 74 73 73 74 74 75 75 74 74 73 73 73 74
66 69 69 74 74 74 74 74 74 74 75 75 75 75 75 75 76 76 76 76 76 77 77 76 76 76 76 75 74 73 73 73 72 72 72 74 74 74 73 73 73 73 74
66 68 70 73 74 74 74 74 74 75 75 75 75 75 75 75 75 76 76 76 76 76 77 77 76 76 75 74 73 73 73 72 73 72 72 69 70 73 72 72 73 73 73
70 70 69 73 74 74 74 74 74 75 75 74 74 75 75 75 75 76 75 75 76 76 76 76 76 75 73 72 72 72 72 72 72 71 68 68 71 72 72 71 72 72 72
68 70 66 72 73 74 74 74 74 74 74 74 74 74 75 75 75 75 74 74 75 76 76 76 75 73 72 71 70 71 71 72 70 69 65 64 67 71 71 70 70 71 71
70 71 74 71 73 73 74 74 73 73 73 73 73 74 75 75 75 74 74 74 75 75 75 74 73 72 70 70 70 70 72 70 69 65 64 68 67 71 70 70 70 70 70
68 71 70 70 72 73 74 73 73 72 72 73 73 73 74 74 74 74 73 73 73 74 73 73 72 70 70 69 70 69 69 70 67 65 62 62 67 70 70 69 69 69 69
65 67 67 68 70 72 72 72 71 71 72 72 72 72 73 73 73 72 72 72 72 72 71 71 70 70 69 69 69 68 67 70 68 65 64 62 69 70 70 69 69 68 68
65 66 65 64 66 69 70 69 69 70 70 70 70 70 71 71 71 71 71 71 71 70 70 70 69 68 69 68 68 67 67 68 66 66 68 63 70 70 70 69 69 68 68
64 63 65 66 65 66 67 67 68 68 68 68 68 68 68 68 69 70 70 70 70 70 70 69 68 68 68 68 68 67 67 67 65 64 63 66 70 70 69 69 68 68 67
64 64 64 64 64 64 65 67 67 68 68 68 68 68 67 68 69 69 68 69 69 69 68 68 68 68 67 68 68 68 66 65 63 62 61 68 69 70 69 68 68 67 67
61 61 63 63 64 64 64 65 65 68 68 68 68 67 67 65 67 68 67 68 68 68 68 68 67 67 67 64 63 65 62 63 63 61 61 67 69 69 68 68 67 67 67
60 60 61 62 63 63 62 62 63 63 67 67 67 67 67 66 65 64 64 63 62 65 63 64 63 63 64 62 61 61 62 60 57 58 63 67 69 69 68 68 67 67 66
57 58 59 59 60 61 61 61 62 63 65 65 68 67 66 65 64 64 63 62 61 62 61 60 60 61 61 63 62 61 61 58 56 56 60 65 67 69 68 68 67 67 66
56 58 58 59 58 59 59 61 62 62 64 65 65 66 66 65 64 63 62 63 62 62 60 60 60 61 61 61 61 62 61 59 58 57 55 64 65 68 69 68 67 67 66
58 57 58 59 59 60 60 61 62 65 63 63 64 65 65 65 64 63 63 63 62 63 61 60 60 61 59 60 60 61 60 59 57 56 55 57 64 66 68 67 67 67 66
58 58 57 57 59 58 59 60 59 65 64 64 64 66 67 65 64 63 62 62 63 63 62 61 61 59 58 60 60 60 60 60 58 58 56 56 58 62 64 65 65 64 63
58 57 58 60 58 58 60 60 63 66 65 64 65 65 66 67 66 64 63 63 63 62 61 60 60 58 57 57 56 56 57 58 60 59 57 56 55 58 60 62 63 63 63
58 58 57 58 58 59 61 63 64 64 62 63 63 64 65 66 65 63 62 62 62 61 61 61 59 58 56 56 57 56 55 56 58 63 58 56 55 53 53 60 61 61 62
58 59 58 58 58 57 56 57 58 60 63 64 64 65 64 64 65 62 61 61 61 61 60 59 58 57 57 57 64 59 54 55 55 54 56 59 56 54 54 53 53 54 60
57 57 57 58 57 58 56 57 59 59 63 65 65 66 65 66 65 62 61 61 60 60 59 59 58 57 55 55 53 52 52 53 54 53 53 54 56 55 53 51 50 50 54
56 58 58 59 59 60 61 62 61 62 65 66 63 64 66 64 64 62 61 60 60 59 59 58 57 54 54 54 51 49 47 49 51 53 52 53 52 54 55 54 53 52 50
57 58 59 61 62 62 64 64 64 61 62 61 60 61 63 65 64 64 61 60 60 60 58 56 56 55 52 51 53 50 44 43 45 50 51 51 51 50 52 53 54 53 52
59 61 61 63 64 65 65 65 64 64 63 65 63 66 63 64 65 65 64 61 60 60 57 58 59 56 54 53 51 53 49 48 45 44 48 49 50 51 50 49 52 52 53
63 63 63 64 65 67 66 67 65 64 65 62 62 64 64 64 64 65 66 62 59 59 58 57 57 56 56 53 51 50 49 47 46 44 43 46 48 49 48 48 48 49 51
65 65 66 67 68 68 67 67 67 61 64 63 59 61 63 63 64 64 63 61 60 59 58 57 56 57 53 52 50 50 49 46 46 47 44 42 43 48 49 50 47 47 47

GFSSE_sfc_temp_078.txt.gz
Temp
67 71 73 74 74 74 74 73 74 74 75 75 75 75 75 76 76 76 75 76 76 77 77 77 76 76 76 75 74 73 73 73 73 74 74 74 75 75 74 73 73 73 74
68 72 72 74 74 74 74 74 74 74 75 75 75 75 75 75 75 75 75 76 76 77 77 76 76 76 75 74 73 73 72 71 71 72 73 73 74 74 74 73 73 73 74
66 71 73 73 74 74 74 74 75 75 75 75 75 75 75 75 75 75 75 75 76 77 77 76 76 75 74 73 73 73 72 71 71 71 71 67 69 73 73 73 73 74 74
67 68 73 71 71 74 74 74 74 75 75 75 75 75 75 75 75 75 75 75 75 76 77 76 75 74 74 72 72 72 71 70 69 69 66 67 70 72 72 72 72 73 72
67 70 72 71 70 72 74 74 74 74 74 74 74 75 75 75 75 75 74 74 75 76 76 76 75 73 71 71 71 70 70 69 69 66 60 62 66 71 71 70 70 71 71
66 69 70 71 72 73 73 74 74 73 73 73 74 74 75 75 75 74 74 74 75 75 75 74 73 72 70 70 70 69 68 68 66 62 62 67 66 71 71 70 70 70 70
67 69 68 70 72 73 73 74 73 73 73 73 73 74 74 74 74 73 73 73 73 74 73 73 72 71 70 69 70 69 68 67 64 60 60 62 66 70 70 70 69 69 68
66 67 68 69 71 71 72 72 72 72 72 72 73 73 73 73 73 72 72 72 72 71 71 71 70 70 70 69 69 68 67 67 66 63 62 62 69 70 70 69 68 68 67
66 66 66 66 66 65 70 70 69 70 71 71 71 71 71 71 71 71 71 71 70 70 70 70 69 69 69 69 67 67 66 66 63 64 65 62 69 70 70 69 68 67 67
64 64 64 64 63 64 67 68 68 69 69 69 70 69 69 69 69 69 69 70 70 70 70 69 69 68 68 68 67 66 66 65 59 60 61 65 69 70 69 69 68 67 67
63 64 64 63 63 63 64 66 67 68 68 67 68 68 68 68 68 68 68 69 69 69 69 69 68 67 66 66 67 66 65 62 60 60 61 68 69 69 69 68 68 67 67
61 62 63 63 63 63 62 62 63 65 68 68 67 66 66 65 66 67 67 68 68 68 68 67 67 66 65 60 60 64 60 60 59 59 61 67 69 69 68 68 67 67 67
61 62 63 63 63 62 60 61 62 62 65 65 66 66 66 65 65 65 65 64 64 65 62 62 62 61 62 59 58 57 57 57 56 58 63 67 68 69 68 67 67 67 66
59 59 62 63 62 62 62 61 63 63 62 64 65 65 63 62 61 61 62 62 62 60 59 58 58 59 59 60 58 57 56 54 53 55 60 66 67 68 68 67 67 66 66
57 57 58 60 61 62 62 63 64 64 66 65 65 64 64 62 61 59 61 61 60 59 58 57 58 58 58 58 58 58 56 55 55 55 54 64 66 68 68 68 67 66 66
57 57 58 58 60 61 62 63 65 65 64 65 65 64 63 62 62 62 61 60 60 59 59 59 58 58 57 57 57 58 56 55 55 55 54 56 64 66 67 68 68 67 66
57 58 58 59 60 60 61 60 62 65 67 65 66 65 65 63 60 60 58 58 59 58 58 58 58 57 57 58 58 57 56 55 55 55 55 55 58 63 64 66 66 65 64
57 57 58 60 59 59 60 62 64 64 66 66 66 65 65 63 62 60 60 59 59 58 58 58 57 56 56 56 55 55 56 56 56 55 55 55 55 57 61 63 64 64 64
58 58 57 58 58 58 58 60 61 63 64 63 63 64 63 63 62 62 60 59 59 59 58 59 57 57 54 54 55 53 53 54 55 59 55 54 53 53 53 60 61 62 63
59 58 58 59 59 58 58 58 60 61 63 62 60 60 62 62 62 60 60 59 59 58 57 57 57 55 55 54 61 57 52 52 53 52 53 56 53 53 52 53 53 54 60
58 58 57 57 58 58 57 58 61 62 57 58 59 61 61 62 62 60 59 58 58 59 58 57 55 55 53 53 52 50 50 50 50 50 51 51 53 53 51 51 49 49 53
57 55 55 56 56 57 58 60 60 58 57 58 60 61 61 62 61 60 60 59 58 57 57 56 56 53 53 52 51 48 46 49 50 51 50 51 50 52 52 52 51 50 49
56 55 55 56 57 58 59 59 57 57 57 57 58 60 61 62 63 62 60 60 58 58 57 55 55 54 53 52 52 52 45 44 45 48 49 49 50 49 51 52 52 52 51
54 55 57 58 58 59 60 60 59 60 60 62 63 63 62 63 63 62 62 60 58 58 56 56 56 55 55 54 53 54 50 48 45 43 47 48 47 50 49 48 50 50 50
57 56 57 59 60 61 61 62 61 59 61 61 59 60 60 61 62 63 62 61 58 57 57 55 56 56 55 53 51 49 48 49 47 46 43 47 51 50 49 48 47 47 49
59 58 58 58 60 62 62 62 61 60 61 60 59 59 60 61 62 62 62 60 60 58 57 56 55 56 54 51 50 48 47 46 45 45 43 45 45 49 51 48 47 45 45

GFSSE_sfc_temp_081.txt.gz
Temp
69 72 73 74 74 74 74 74 74 74 75 75 75 75 75 76 75 75 75 76 76 77 77 76 76 76 75 75 74 73 73 73 73 74 75 75 75 74 74 73 73 73 73
70 71 72 73 73 73 74 74 74 75 75 75 75 75 75 75 75 75 75 76 76 77 76 76 76 75 74 74 72 72 71 71 71 72 73 74 74 74 74 74 73 73 74
68 69 73 72 73 73 74 74 75 75 75 75 75 75 75 75 75 75 75 75 76 76 76 76 75 75 73 73 72 71 71 71 70 71 70 65 69 73 73 73 72 73 73
67 68 72 72 73 74 73 74 74 75 75 75 75 75 75 75 75 75 75 75 75 76 76 76 75 74 73 72 71 71 70 69 69 67 64 65 70 73 72 72 72 72 72
65 68 72 71 72 73 73 73 74 74 74 74 74 75 74 75 75 75 74 74 75 76 75 75 74 73 71 70 70 70 69 69 68 65 59 61 66 71 71 71 71 71 70
65 66 69 70 72 73 73 73 73 74 73 74 74 74 74 74 74 74 74 74 75 75 75 74 72 71 70 69 69 68 68 67 65 60 61 67 65 71 71 70 69 69 69
63 65 67 69 69 72 73 73 73 73 73 73 73 74 74 74 74 73 73 73 73 74 73 72 71 70 69 68 68 67 67 66 60 58 59 60 66 71 70 69 69 68 68
64 65 67 69 70 71 73 72 72 72 72 72 73 73 73 73 72 72 72 72 72 71 71 71 70 70 69 68 67 67 66 66 63 61 60 63 69 70 70 69 68 67 67
66 64 64 65 65 65 68 70 70 70 71 71 72 71 71 71 71 71 71 71 71 71 70 70 69 69 69 68 67 66 65 65 59 62 64 63 70 70 69 69 68 67 67
64 64 63 64 63 63 64 67 67 69 69 70 70 70 69 69 69 69 69 70 70 70 70 70 68 67 68 67 66 65 65 64 57 58 59 65 69 70 69 68 67 67 67
63 63 64 62 62 62 63 64 66 69 68 68 69 68 67 68 67 67 68 69 69 69 69 69 67 66 66 66 66 65 64 58 58 58 61 68 69 69 69 68 67 67 66
61 62 62 62 61 61 62 65 65 67 68 69 69 69 67 66 66 67 67 68 68 68 68 67 66 65 64 61 63 63 58 58 58 58 59 67 69 69 68 68 67 67 66
61 62 62 61 61 61 60 61 62 62 63 66 67 67 65 65 66 66 65 64 63 64 62 61 61 60 58 57 56 55 56 56 55 57 62 66 68 69 68 68 67 67 66
60 61 62 62 61 60 60 59 61 60 62 63 64 64 63 62 59 61 61 59 61 59 59 58 56 56 56 56 56 55 55 54 53 55 60 65 67 68 68 67 67 66 66
57 60 61 61 60 60 60 60 61 61 62 62 63 63 62 63 61 60 58 58 61 58 59 57 57 56 56 55 55 55 54 53 54 54 55 64 65 67 68 68 67 67 66
57 57 59 61 61 61 61 62 62 64 64 63 62 62 62 62 61 61 57 57 58 58 59 57 56 56 55 55 54 55 54 53 53 53 53 57 63 65 67 68 67 67 66
57 57 58 59 61 61 61 63 63 65 65 64 64 62 62 61 59 58 56 56 56 56 57 56 56 54 54 56 54 54 54 53 53 53 54 54 57 63 65 66 67 67 65
57 58 59 60 59 59 60 62 63 66 65 64 64 63 62 62 61 60 58 57 56 57 57 56 54 54 53 54 52 52 53 53 53 54 53 53 54 57 62 64 65 65 65
58 58 58 58 57 58 58 60 61 62 64 65 64 64 62 61 61 61 58 57 58 57 56 57 54 55 53 53 54 51 51 52 53 56 54 53 53 54 54 61 62 62 63
58 58 58 57 56 57 56 58 60 60 61 62 62 65 62 62 61 59 58 57 57 56 55 55 55 54 53 53 59 55 50 50 51 51 52 54 52 52 52 53 53 54 61
58 57 57 56 57 57 56 55 58 61 60 60 61 62 62 61 61 59 58 57 57 57 57 55 54 54 52 51 51 49 49 49 49 48 49 49 51 51 50 50 49 49 53
57 57 57 58 58 58 58 61 62 62 60 61 60 61 59 60 60 59 58 58 57 56 54 54 55 52 52 51 50 47 46 48 47 49 48 49 48 49 50 51 49 50 48
56 55 56 58 58 60 61 60 59 59 59 59 57 55 57 59 60 60 58 57 57 56 56 55 54 54 51 49 51 51 44 45 47 49 47 47 47 46 48 49 50 50 49
56 57 54 56 58 59 59 56 55 60 60 58 56 57 57 59 59 60 60 58 57 57 54 55 55 52 54 52 52 53 51 48 47 47 50 50 50 50 48 47 48 49 50
56 56 54 55 56 58 57 57 56 56 56 56 56 56 56 57 59 60 60 59 57 57 57 55 53 53 53 53 51 48 48 48 47 47 44 47 50 50 51 51 50 49 49
53 54 53 54 56 57 57 57 56 56 58 57 55 56 59 58 58 59 60 60 60 58 57 56 56 53 53 53 51 49 48 47 46 45 43 44 45 48 49 51 49 49 48

GFSSE_sfc_temp_084.txt.gz
Temp
68 71 73 74 74 74 74 74 75 75 75 76 75 76 76 76 75 76 76 76 76 77 77 76 76 76 76 75 74 74 74 74 74 74 75 75 75 74 74 74 73 73 73
70 72 72 73 74 74 74 74 74 75 75 75 75 75 75 75 75 75 76 76 76 77 76 76 75 75 74 74 73 72 72 71 71 73 73 73 74 75 74 74 74 73 73
69 72 72 72 74 74 74 75 75 75 76 76 75 75 75 75 75 75 75 75 76 76 76 76 75 74 74 72 72 71 71 71 70 71 71 69 72 74 73 72 73 72 72
68 70 72 72 73 74 74 75 75 76 76 75 75 75 75 75 75 75 75 75 75 76 76 76 75 74 72 71 70 70 70 69 69 67 64 69 72 73 73 72 72 72 71
66 68 72 72 72 73 73 74 75 75 74 74 74 74 74 75 75 75 74 74 75 76 76 76 74 73 71 70 69 69 69 68 68 64 61 63 69 72 73 72 71 71 70
65 65 68 70 72 73 74 74 74 74 74 74 74 74 74 75 75 74 74 74 74 75 75 74 73 71 69 69 68 68 68 67 64 59 62 68 67 71 71 70 70 69 69
64 64 65 68 70 73 74 74 73 73 73 73 73 73 74 74 74 74 73 73 74 74 74 73 71 70 69 68 68 67 67 65 59 58 60 62 67 70 70 70 69 68 68
64 64 65 68 70 70 73 73 72 72 72 73 73 73 73 73 73 73 73 72 72 72 71 71 70 69 68 68 67 66 66 66 62 59 61 65 69 70 70 69 68 68 68
65 64 64 64 65 68 67 71 70 71 71 72 72 72 71 71 71 72 71 71 71 70 70 69 69 68 68 67 67 65 65 64 59 60 63 65 69 69 69 68 68 67 67
64 64 62 63 63 64 64 66 67 69 70 70 71 70 69 69 69 70 70 70 70 70 69 69 68 68 67 66 66 65 64 63 58 59 60 67 69 70 69 68 68 67 67
63 62 62 62 62 62 63 64 67 69 69 69 70 69 67 67 66 66 68 69 70 69 68 68 68 67 66 66 65 64 63 58 58 58 61 68 69 70 69 68 67 67 66
61 61 62 61 61 61 63 63 65 65 67 68 69 68 67 66 64 65 67 68 69 68 67 67 67 66 65 62 63 62 57 57 58 58 61 68 69 69 68 68 67 67 66
61 61 61 60 61 60 61 61 63 64 65 67 67 67 66 64 63 62 64 65 64 65 63 62 61 60 59 58 56 56 56 56 56 58 63 67 68 69 69 68 67 67 66
60 61 61 61 60 60 61 63 63 63 64 65 65 65 65 63 60 59 59 59 58 58 58 57 57 56 56 57 56 55 55 55 55 56 62 65 67 68 68 68 67 67 66
59 60 60 60 59 59 60 61 61 63 63 63 64 64 64 63 61 60 58 58 58 58 59 56 56 56 56 55 55 55 54 54 55 56 57 64 65 68 68 68 67 67 66
58 60 60 59 59 59 60 60 61 61 62 62 62 62 63 63 61 61 57 58 58 59 57 58 58 57 56 55 54 54 54 54 54 55 56 60 64 66 67 68 67 67 67
58 58 60 59 59 60 60 60 61 62 62 61 62 61 62 62 61 60 58 57 59 58 56 56 55 56 55 56 54 54 54 54 54 54 55 56 60 63 65 67 67 67 67
58 58 59 61 60 59 61 62 64 63 62 62 62 61 62 61 60 59 59 58 57 57 56 55 55 53 53 53 52 52 54 54 54 54 55 56 56 59 62 64 65 66 65
58 58 58 58 58 57 58 59 60 62 62 62 62 61 61 61 60 60 59 58 58 57 56 56 54 54 53 52 54 52 52 52 54 56 54 54 55 56 56 62 63 63 64
58 58 57 57 57 57 57 58 58 59 60 62 61 62 61 61 60 58 58 58 58 56 55 54 54 53 53 53 58 54 51 51 51 51 52 55 53 54 54 55 57 57 61
57 57 57 56 56 57 57 56 58 60 58 59 61 62 60 61 60 58 58 58 57 56 55 54 54 53 52 51 51 50 50 50 50 49 50 51 52 53 52 52 52 53 55
56 57 57 58 57 58 58 57 59 62 59 59 59 60 61 61 60 59 59 57 56 55 54 54 54 52 53 51 50 48 48 50 49 50 49 51 51 52 52 52 51 51 51
55 56 57 58 59 60 59 58 58 59 59 58 57 57 59 60 60 61 58 58 56 56 55 55 53 53 51 49 50 50 45 45 47 48 48 49 50 49 51 52 52 51 52
56 57 58 58 59 60 61 60 59 61 60 63 59 59 59 60 59 59 59 57 56 56 54 55 54 52 52 49 49 51 50 51 48 47 48 50 50 51 50 50 50 51 51
58 56 56 57 57 58 60 60 55 61 62 55 55 56 55 56 58 59 58 57 56 56 56 54 52 51 51 50 50 47 49 48 48 47 45 46 50 50 51 51 51 50 51
58 58 56 54 54 57 57 56 54 53 54 54 53 53 54 54 55 57 58 58 58 57 56 55 55 54 54 54 51 49 49 47 47 45 45 45 46 49 50 51 50 50 50

GFSSE_sfc_temp_087.txt.gz
Temp
75 79 73 75 74 74 75 75 75 75 75 75 75 75 75 76 76 76 76 76 77 77 77 77 77 77 77 76 75 75 74 74 74 75 75 75 75 75 75 74 75 77 74
77 78 73 74 74 74 75 75 75 75 75 76 76 76 75 75 76 76 76 76 77 77 77 77 76 76 75 74 73 73 73 73 73 74 75 75 75 75 74 73 74 75 73
75 77 77 73 74 74 75 75 75 76 76 76 76 75 75 75 75 75 75 76 76 77 76 76 76 75 74 73 72 72 72 72 72 73 74 81 78 74 74 73 72 73 72
75 77 78 72 73 74 74 75 75 76 76 75 75 75 75 75 75 75 75 75 75 76 76 76 75 74 73 71 71 71 70 70 69 71 79 80 79 73 73 72 72 72 72
73 74 77 72 73 74 74 74 75 75 75 75 75 75 75 75 75 75 75 74 75 76 77 75 74 72 71 70 70 70 70 69 70 75 77 76 74 74 73 72 71 72 71
72 69 67 70 71 73 74 74 74 74 74 74 74 74 75 75 75 74 74 74 75 76 75 74 72 71 69 69 69 69 68 68 71 78 77 75 76 72 72 71 70 70 70
71 69 68 67 70 73 74 74 74 73 73 73 73 74 74 74 74 74 73 74 74 74 74 72 71 70 69 68 68 67 67 68 75 76 76 76 74 71 71 70 70 69 69
69 69 67 68 69 68 74 73 72 72 72 72 73 73 74 73 73 73 73 73 73 72 72 71 70 69 68 68 67 66 66 68 74 75 76 76 71 71 71 70 69 68 68
68 69 69 67 68 67 67 70 70 71 71 72 72 72 72 71 71 72 72 71 71 71 70 70 69 68 68 67 66 65 64 67 74 75 75 75 70 70 70 69 68 68 67
68 68 69 68 68 67 65 66 66 69 70 71 71 70 70 70 70 70 70 70 70 70 70 69 68 68 67 66 65 65 64 66 74 74 75 74 70 70 70 69 68 68 67
65 66 66 66 67 67 65 66 67 68 68 69 70 69 69 75 74 73 71 69 69 69 69 68 68 67 66 65 65 64 66 73 73 74 75 68 70 70 69 68 68 67 67
63 64 65 64 64 63 66 65 66 67 68 70 70 73 74 73 74 74 71 68 68 69 68 68 67 66 68 71 70 66 72 71 73 73 74 68 69 70 69 68 68 67 67
64 64 64 64 64 62 62 63 65 65 66 67 68 73 70 72 71 71 72 73 72 70 73 71 69 73 70 71 71 70 70 71 72 74 71 67 69 69 69 68 67 67 66
64 63 63 62 62 62 61 62 63 64 65 65 66 68 71 70 69 68 71 71 70 72 71 71 70 69 68 69 69 68 69 71 72 73 70 66 68 69 69 68 68 67 66
61 61 60 61 62 62 62 62 63 64 65 64 65 68 69 69 67 69 68 70 70 69 69 69 68 69 68 68 68 68 68 69 69 72 72 64 66 68 69 68 68 67 67
59 60 60 59 61 60 62 63 63 64 64 64 64 67 67 68 66 66 67 68 68 70 70 69 69 69 69 68 67 67 68 69 70 69 71 70 64 66 68 68 68 68 67
59 60 59 59 59 60 59 61 62 63 64 63 63 66 65 65 64 64 65 67 68 68 65 64 66 67 68 68 66 66 66 66 68 67 69 70 69 63 65 67 67 67 67
59 59 60 60 59 61 60 60 61 62 62 62 63 64 65 64 64 64 64 66 67 66 66 67 66 67 66 66 64 65 65 65 66 67 68 69 70 71 65 64 66 67 66
59 58 59 59 59 60 60 62 61 62 62 61 62 64 63 63 63 64 63 64 65 66 66 67 64 65 64 65 64 65 65 65 64 66 66 66 67 69 70 64 64 64 65
59 58 58 59 59 58 59 59 60 60 61 61 60 64 65 66 65 64 66 64 64 65 64 64 64 64 64 65 65 62 62 64 65 65 66 67 67 67 68 69 69 68 62
59 58 57 57 58 58 59 58 59 57 59 60 62 62 64 67 65 66 66 65 65 64 65 64 62 62 62 63 62 62 63 63 62 64 65 65 66 66 67 68 69 70 68
58 58 58 57 58 59 60 59 61 59 61 61 61 61 61 62 64 65 66 66 64 65 64 63 64 63 65 63 64 64 61 62 63 64 64 64 64 66 60 58 62 65 64
57 57 58 58 59 59 58 58 57 60 59 58 59 59 61 63 66 67 66 66 65 66 65 64 65 64 64 62 62 65 57 58 62 63 61 57 58 62 62 55 57 59 57
59 59 59 59 59 60 60 60 58 61 60 62 61 61 61 63 66 68 67 67 66 66 66 66 65 64 64 62 61 62 62 64 62 60 55 55 62 55 61 52 51 53 56
60 59 61 60 60 61 60 62 61 63 66 62 62 62 62 66 67 67 67 67 66 65 65 64 62 62 63 64 63 61 60 61 61 59 55 57 56 61 61 62 53 53 55
60 59 59 59 61 61 62 63 61 64 64 61 64 63 63 64 65 65 67 66 66 65 64 64 64 63 63 63 64 63 61 60 57 56 53 54 53 52 60 57 60 56 54

GFSSE_sfc_temp_090.txt.gz
Temp
86 89 74 75 75 75 75 75 75 75 75 75 75 75 76 76 76 76 76 76 77 77 78 77 77 77 77 76 75 75 74 74 74 75 75 76 76 76 76 75 76 80 74
85 87 73 74 74 75 75 75 75 75 75 76 75 75 75 76 75 76 76 76 77 77 77 77 77 77 76 75 74 74 74 73 73 74 75 75 75 75 74 74 74 76 73
83 86 83 73 74 75 75 75 75 75 76 76 76 75 75 76 76 76 76 76 76 77 77 77 76 75 74 73 73 73 73 73 73 74 76 84 80 74 74 73 73 73 73
83 83 86 72 74 75 75 75 75 76 76 75 75 75 75 76 75 76 75 75 76 76 76 76 75 75 73 72 71 71 71 72 72 74 80 78 78 73 73 73 72 73 72
82 81 84 72 73 74 74 75 75 75 75 75 75 75 75 75 75 75 75 75 75 76 76 76 75 73 71 70 70 70 71 71 72 80 83 77 79 75 73 73 72 71 72
82 82 73 68 71 73 74 75 73 74 74 74 74 75 75 75 75 75 74 74 75 75 75 74 73 71 69 69 69 69 70 71 72 84 82 79 78 73 72 71 71 70 70
81 81 73 66 69 70 73 76 74 74 73 73 74 74 75 75 74 74 74 74 74 74 73 72 71 70 69 68 68 68 69 70 84 84 83 80 76 72 72 71 70 69 69
76 77 74 70 70 69 70 68 71 73 73 73 73 73 74 74 73 73 73 73 73 72 71 70 69 69 68 68 67 67 68 71 81 83 82 80 72 71 71 70 69 69 69
75 73 73 76 73 68 66 65 65 71 71 72 72 72 72 72 72 72 72 72 71 71 70 69 69 68 68 67 67 66 67 70 83 83 81 79 70 71 70 69 69 68 68
72 72 73 75 70 72 69 66 66 69 69 71 71 71 70 70 71 71 71 71 70 70 69 69 68 67 67 66 66 65 66 69 82 82 81 76 70 71 70 69 69 68 67
69 70 69 71 69 69 70 68 66 67 69 69 70 69 69 77 76 76 73 70 69 69 69 68 67 66 66 65 65 65 66 82 81 82 79 69 70 71 70 69 68 68 67
70 69 71 72 71 68 70 68 68 67 69 72 74 74 76 75 78 80 72 69 69 68 68 67 67 66 69 76 74 67 81 80 81 81 77 68 70 70 69 68 68 67 67
75 68 69 68 71 66 69 68 68 66 67 68 70 75 73 75 77 77 76 75 75 71 76 73 72 78 78 78 76 78 78 79 80 80 72 67 69 70 69 68 68 67 67
73 72 67 66 68 66 64 64 66 65 65 65 67 70 73 72 76 77 79 79 76 79 76 77 77 78 77 78 77 76 77 80 80 80 72 67 68 69 69 69 68 67 67
69 67 64 63 65 66 62 63 63 64 65 65 65 67 70 73 75 76 78 80 80 80 78 77 78 76 76 76 76 76 76 77 77 80 76 66 67 68 69 69 68 68 67
67 62 62 61 63 65 62 63 62 64 65 65 65 66 69 73 75 76 76 78 79 80 80 78 77 76 76 76 75 76 76 77 77 77 78 73 65 67 68 69 68 68 68
65 61 61 60 61 61 62 62 64 63 64 64 64 66 68 74 73 72 75 76 78 79 76 77 76 77 77 77 75 75 76 75 76 75 77 76 71 63 65 67 68 68 67
63 61 60 61 60 61 62 61 63 64 64 64 63 65 66 68 72 71 71 71 74 74 75 75 75 75 76 76 75 76 75 75 75 74 75 76 75 74 65 65 66 67 67
62 60 60 60 61 61 61 61 62 62 62 62 63 65 66 67 69 70 70 68 68 69 72 74 73 74 74 75 75 74 74 74 74 75 73 72 73 75 75 64 64 64 66
62 62 61 62 60 61 61 60 61 61 61 61 62 67 67 68 67 68 68 67 68 68 70 73 70 73 74 73 74 72 72 73 74 72 72 74 74 73 75 75 71 70 63
60 60 61 62 61 61 59 58 59 58 60 60 61 66 69 68 67 69 68 67 67 70 70 70 70 67 67 69 67 69 70 70 70 73 74 75 74 74 74 74 75 73 70
60 59 61 64 63 65 62 60 61 60 60 60 61 64 70 69 70 71 72 70 71 69 69 67 66 67 69 69 69 70 66 69 71 72 74 73 72 74 72 73 73 71 64
61 61 60 61 62 65 65 62 59 59 58 59 59 60 66 72 73 73 73 73 71 72 68 67 69 70 69 70 70 70 66 64 72 74 70 72 70 68 69 66 69 65 66
64 64 66 61 62 64 63 64 60 60 61 64 62 64 64 70 72 74 74 73 71 70 70 71 72 71 71 70 70 70 70 70 66 62 71 69 70 66 60 61 66 67 67
65 65 65 64 61 62 65 64 61 61 68 66 64 63 63 64 65 69 72 71 71 72 72 72 71 70 72 71 70 70 68 69 69 66 65 66 69 70 66 66 65 67 66
65 65 66 66 62 61 62 62 61 60 62 63 62 61 62 64 66 66 75 73 73 72 71 71 71 69 69 70 71 71 70 68 68 66 63 66 64 69 69 62 67 69 65

GFSSE_sfc_temp_093.txt.gz
Temp
92 86 74 75 75 76 75 74 74 74 75 75 75 76 75 76 76 76 76 76 76 77 78 77 77 77 76 76 75 74 74 74 74 75 76 76 76 76 76 75 76 78 74
89 92 73 75 75 75 75 74 74 74 75 76 75 75 75 75 75 76 76 76 77 77 77 77 76 76 76 75 74 74 73 73 73 74 75 75 75 74 74 73 74 76 74
87 90 83 74 74 75 75 75 75 75 76 76 75 75 75 75 76 76 76 76 76 77 77 77 76 75 75 74 73 73 73 73 73 74 76 80 76 74 73 73 72 73 73
89 87 87 73 74 75 75 74 75 76 76 76 75 75 75 75 76 76 76 75 76 76 77 76 76 74 73 72 72 73 73 73 73 74 82 79 78 74 73 73 73 73 72
88 88 85 73 73 74 75 75 75 75 75 75 75 75 75 76 75 76 75 75 75 76 76 76 75 73 71 71 71 71 71 72 73 79 79 76 77 74 73 73 72 72 73
87 88 75 69 72 74 75 74 74 75 75 74 74 75 75 75 75 75 74 74 75 76 76 75 73 71 70 69 70 71 71 72 72 83 80 78 78 72 72 71 71 71 71
84 86 83 69 69 70 74 72 73 74 73 74 74 74 74 75 74 74 74 74 74 74 74 73 71 70 69 69 70 70 70 71 85 84 82 78 74 72 72 71 70 70 70
80 82 81 73 70 71 71 68 67 67 71 73 73 73 74 74 73 73 73 73 73 72 71 71 70 69 69 69 69 69 69 69 84 83 81 77 72 72 71 70 69 69 69
78 77 75 77 77 69 69 68 66 66 66 69 72 72 72 72 72 73 73 72 71 70 70 69 69 68 68 68 68 68 68 70 84 83 80 76 71 71 71 70 69 69 69
78 77 76 76 76 75 73 65 66 66 65 68 72 71 70 71 71 71 71 70 70 69 69 69 68 67 67 67 66 67 67 69 83 82 80 74 70 71 70 69 69 68 68
73 76 75 76 76 73 70 66 67 66 65 66 71 69 70 79 77 74 73 69 69 69 68 68 67 66 66 66 66 67 67 84 83 82 77 69 70 71 70 69 68 68 68
75 73 74 75 76 73 70 68 65 64 63 65 74 73 81 78 78 79 71 68 69 68 67 67 66 65 69 75 75 68 78 83 82 79 75 69 70 71 70 69 68 68 67
77 73 72 74 76 71 67 67 65 64 65 68 74 75 78 79 77 74 73 73 72 70 73 72 70 76 77 77 77 79 80 81 81 78 71 68 70 70 70 69 68 67 67
78 73 72 71 72 73 70 68 66 65 63 66 70 75 74 76 74 75 76 75 74 77 74 75 76 79 78 78 78 78 79 81 81 77 71 67 69 70 70 69 68 67 67
76 74 70 70 70 70 70 66 67 65 65 64 66 70 72 75 75 76 77 78 78 79 78 77 78 78 77 77 78 77 78 80 79 78 74 66 67 69 69 69 69 68 67
74 71 68 66 67 67 71 68 64 67 65 64 64 66 69 70 73 75 78 80 80 80 80 80 79 78 78 77 76 77 78 78 80 77 75 71 65 67 68 69 69 68 68
70 68 64 63 64 64 68 67 68 68 65 64 65 67 67 67 72 73 77 80 82 81 79 79 78 78 78 78 76 77 78 77 78 78 76 74 70 64 66 67 68 68 68
70 66 64 63 62 64 65 67 67 65 65 64 65 65 66 68 74 76 79 79 81 80 79 77 77 76 76 77 76 77 77 78 77 76 78 76 74 74 65 65 67 67 67
69 65 63 61 64 65 65 64 64 65 65 63 64 64 65 67 71 75 78 78 77 77 76 76 74 72 74 76 76 77 77 77 76 77 76 75 74 74 73 64 64 65 66
67 63 62 63 65 63 61 61 61 62 62 63 62 63 64 67 69 74 73 72 74 72 71 71 69 73 75 75 78 75 74 75 76 75 74 75 74 73 75 73 69 68 63
65 63 64 61 62 61 62 59 59 58 60 60 61 63 64 66 68 69 70 71 70 70 67 67 67 68 71 73 72 69 71 73 73 73 73 73 74 74 74 75 74 73 69
64 62 64 65 65 64 64 64 60 59 59 60 60 61 63 64 67 67 66 67 68 66 66 67 67 67 69 69 66 69 65 67 69 71 74 73 72 75 74 74 74 74 75
64 63 64 65 66 66 63 64 63 61 60 59 60 60 63 65 68 68 68 68 67 66 68 69 68 68 66 66 69 70 64 62 65 71 70 73 73 72 74 74 71 70 71
67 67 65 65 65 66 68 66 62 62 61 62 61 62 64 67 68 68 70 68 68 71 69 64 69 68 70 69 70 71 71 69 64 62 71 71 72 71 69 70 72 71 68
67 69 67 64 64 65 66 67 65 64 62 62 61 60 63 65 66 70 72 71 69 70 69 68 70 70 71 69 69 70 68 69 69 64 62 67 71 72 72 69 70 69 70
69 67 69 65 64 64 66 66 65 62 61 62 60 59 61 63 65 67 73 71 73 72 71 71 71 70 69 70 71 70 68 67 67 64 62 64 65 67 69 68 67 67 67

GFSSE_sfc_temp_096.txt.gz
Temp
82 78 75 76 76 75 75 75 74 74 75 75 75 75 75 76 76 76 76 76 76 78 78 77 77 77 76 76 75 75 74 74 74 75 76 77 76 76 76 75 75 75 74
87 81 74 75 75 75 75 75 74 74 75 75 75 75 75 75 75 76 76 76 77 78 77 77 76 76 76 75 74 74 74 73 73 74 74 75 75 75 74 74 73 73 74
87 79 79 74 75 75 75 75 75 75 76 76 75 75 75 75 75 76 76 76 76 77 77 77 76 76 75 74 73 73 73 73 73 75 74 73 73 74 74 73 73 73 73
88 85 81 73 74 74 74 75 75 75 76 75 75 75 75 75 75 76 75 75 76 77 77 76 76 75 74 73 73 73 73 73 73 75 74 73 74 74 74 73 73 73 73
87 88 80 72 73 74 74 74 75 75 75 75 75 75 75 75 76 76 75 75 76 76 76 76 75 73 72 71 71 72 72 72 74 75 73 73 73 74 73 73 73 72 72
87 86 72 72 72 74 74 74 75 73 75 73 74 75 75 75 75 75 74 74 75 76 76 74 73 71 70 70 70 71 71 72 74 72 72 72 71 72 72 71 71 71 71
82 81 74 70 71 70 74 74 71 69 70 75 73 74 75 75 74 74 74 74 74 74 74 73 71 70 70 70 70 70 70 71 77 73 71 69 70 72 72 71 70 70 70
79 80 73 71 70 70 72 69 68 69 66 67 70 72 74 73 73 73 73 73 73 72 71 70 70 69 69 69 69 69 69 69 78 73 71 68 71 72 71 70 69 69 69
78 77 76 76 74 70 69 69 68 68 68 68 65 66 72 72 72 72 72 72 72 71 70 69 69 68 69 68 68 68 68 69 75 72 72 68 71 71 71 70 69 69 69
77 76 75 75 74 71 69 67 67 67 67 67 67 65 70 69 71 71 70 70 70 70 69 69 68 67 67 67 67 68 68 69 74 72 69 68 70 71 70 70 69 69 69
72 74 74 72 73 72 70 67 67 68 66 65 65 63 68 72 72 71 70 69 69 69 68 68 67 66 66 67 67 67 67 71 73 70 68 69 70 71 70 69 69 68 68
73 72 71 72 71 71 71 67 65 65 65 64 64 63 70 71 72 72 69 68 68 68 67 67 66 66 68 65 65 66 67 74 71 69 67 68 70 71 70 69 68 68 68
72 69 70 70 70 69 68 66 63 63 63 62 63 61 68 71 70 68 67 67 66 67 66 65 65 68 67 66 67 67 70 73 70 68 67 68 70 70 70 69 68 68 67
72 71 70 72 70 69 67 65 64 63 61 63 63 65 68 70 68 68 67 66 66 67 65 65 66 67 66 68 68 69 70 72 69 67 64 67 68 70 70 69 68 67 67
74 69 69 69 68 68 66 65 64 63 63 63 65 66 69 70 67 69 69 67 68 68 67 66 66 69 67 68 68 69 69 71 68 67 63 65 67 69 70 69 69 68 67
74 70 67 68 68 67 66 65 65 64 63 64 65 68 70 70 68 69 69 69 69 69 70 68 69 67 67 67 67 69 69 69 69 67 65 62 65 67 68 69 69 68 68
71 67 66 64 64 65 66 66 64 65 64 63 63 64 69 70 70 70 69 69 71 70 69 67 69 67 66 68 67 67 68 68 69 67 66 64 62 64 66 67 68 68 68
70 65 63 63 62 63 66 65 64 65 64 63 63 63 65 67 70 70 69 71 71 71 70 69 66 65 64 64 64 65 66 67 68 68 67 66 64 66 63 65 66 67 67
68 66 63 63 62 63 64 65 65 64 64 63 63 64 63 65 68 70 69 68 72 71 68 69 65 64 63 63 65 65 65 65 66 70 67 66 65 65 64 63 64 64 66
67 65 63 61 63 63 62 61 63 64 64 64 63 63 64 64 67 69 66 67 67 68 64 64 63 64 63 64 72 67 63 64 65 63 65 68 65 64 65 64 63 63 63
64 62 62 61 61 61 59 58 60 60 61 61 63 64 63 64 65 66 65 66 64 64 63 63 62 62 61 63 62 61 60 64 64 63 63 63 65 65 64 65 63 63 63
63 62 63 62 62 62 61 60 59 60 60 60 60 61 62 63 64 65 64 64 64 63 62 62 61 60 61 61 58 58 55 58 60 62 61 63 61 65 66 66 64 64 65
63 61 63 64 63 62 62 60 59 59 59 58 58 59 61 62 63 64 63 63 62 63 62 61 62 61 59 59 60 59 55 53 56 59 60 60 61 61 62 64 66 65 64
63 64 65 66 65 62 64 62 60 58 56 58 59 58 59 60 61 63 64 63 62 63 62 62 64 62 62 58 59 64 60 60 54 53 58 62 63 62 60 60 61 62 63
66 65 65 65 65 64 63 63 62 61 61 60 58 58 58 60 60 63 63 61 61 62 61 61 62 61 62 61 60 59 58 59 59 55 52 56 62 64 64 61 61 59 63
66 64 65 64 64 64 65 63 63 62 60 59 59 58 59 60 61 62 64 62 63 63 61 62 62 63 62 62 62 60 59 58 57 55 53 55 55 58 63 64 61 62 60

GFSSE_sfc_temp_099.txt.gz
Temp
72 74 74 75 75 75 75 74 74 74 74 75 75 75 75 75 76 76 76 76 76 77 78 77 77 77 77 76 75 75 75 75 75 76 77 77 77 76 75 74 74 74 75
74 75 73 74 75 75 75 75 74 74 75 75 75 75 75 75 75 75 76 76 77 78 78 77 77 77 76 75 74 74 73 73 73 74 75 75 75 75 75 73 73 73 74
75 75 75 73 74 75 75 75 75 75 75 75 75 75 75 75 75 75 76 76 77 77 78 77 76 76 75 74 74 74 73 73 72 73 73 73 74 75 74 73 73 73 73
76 75 74 73 74 74 75 75 75 75 75 75 75 75 75 75 75 75 75 75 76 77 77 77 76 75 74 73 73 73 73 73 72 73 72 72 73 74 74 73 73 73 73
78 77 75 72 73 74 74 74 75 75 74 74 74 75 75 75 75 75 75 75 75 76 77 77 75 74 73 72 72 72 73 73 72 72 69 72 72 73 73 73 72 72 72
76 75 71 71 72 73 74 74 74 74 74 74 74 75 75 75 75 75 74 74 75 76 76 76 74 73 71 71 71 71 71 71 71 68 69 71 71 73 72 72 71 71 71
71 70 71 70 72 73 74 74 75 75 73 74 73 73 74 73 74 74 74 74 74 75 75 73 72 71 70 70 70 70 70 70 70 67 66 70 70 71 71 71 71 71 71
71 70 69 71 71 71 72 73 71 70 71 70 69 69 71 73 73 73 73 73 73 73 72 71 71 70 70 70 69 68 69 71 70 66 65 69 70 71 71 71 70 70 70
71 69 68 68 70 70 69 69 68 68 70 69 69 66 66 68 71 72 72 72 72 71 70 70 70 69 69 69 68 68 67 69 67 67 68 69 71 71 71 70 70 70 69
70 69 69 69 69 67 66 67 67 66 67 68 68 68 66 64 68 71 71 71 70 70 69 69 68 68 68 68 68 66 69 68 67 66 64 68 71 71 71 70 70 69 69
67 67 68 69 71 67 65 66 66 67 66 67 67 67 65 63 67 70 70 69 69 69 69 68 68 67 67 67 67 67 67 68 66 66 65 69 71 71 71 70 69 69 68
64 65 66 67 67 67 68 64 63 64 64 63 64 63 62 64 67 69 68 68 68 68 67 67 67 67 66 62 64 66 68 66 66 65 65 68 71 71 70 69 69 68 68
67 64 65 66 66 65 64 63 62 63 64 62 62 62 62 65 67 66 66 66 65 66 64 64 65 63 63 62 63 63 66 66 65 65 66 68 70 70 70 69 68 68 67
65 63 64 65 65 64 63 62 62 61 63 62 62 62 63 65 65 66 65 63 63 62 61 61 59 61 62 64 65 64 66 65 64 63 64 66 68 70 70 69 68 68 67
64 63 63 64 63 63 63 63 62 62 61 62 61 62 61 66 65 66 63 62 63 62 62 59 59 64 62 63 64 65 65 64 64 64 61 65 66 69 70 69 69 68 67
64 62 62 63 62 62 62 62 63 62 61 62 63 63 62 66 66 64 63 63 63 64 63 60 62 60 60 62 63 65 65 64 64 62 61 62 64 67 68 69 69 68 68
62 61 60 61 62 61 63 62 63 62 63 63 64 64 65 67 68 65 63 64 64 65 63 61 62 61 60 63 63 63 64 63 63 62 61 59 62 64 65 68 68 68 68
60 60 60 63 61 62 63 61 62 62 62 63 65 65 65 67 68 66 65 64 66 66 64 64 63 60 59 60 59 60 61 64 63 62 62 61 59 62 63 65 66 67 67
60 59 59 60 60 61 62 61 61 63 61 62 64 63 65 66 68 67 66 65 66 66 63 67 61 62 58 58 60 59 60 60 63 65 62 61 60 59 58 63 64 64 66
59 59 61 59 59 61 60 60 60 60 62 61 62 63 63 64 68 68 65 63 66 65 63 64 61 59 59 60 68 62 59 60 61 61 63 63 61 61 61 60 60 61 62
58 60 59 60 60 59 59 59 59 60 61 61 61 63 62 62 64 65 64 63 61 65 66 65 59 61 58 59 58 57 59 61 61 60 59 61 61 61 60 61 61 61 62
59 60 60 61 60 60 60 59 60 61 62 62 62 62 62 61 62 65 64 62 62 62 62 60 60 57 57 58 57 56 53 56 60 60 57 59 59 61 62 62 61 61 61
60 60 60 61 59 61 60 59 59 59 59 59 60 60 60 61 62 64 64 62 60 60 61 60 61 60 57 57 60 55 52 51 53 57 57 56 57 57 59 62 61 62 61
60 62 62 62 61 61 59 59 59 57 57 59 59 60 59 60 61 62 63 63 62 61 60 61 62 59 59 57 57 61 57 58 53 51 55 56 57 59 59 57 62 61 62
60 62 63 62 61 61 61 60 60 58 58 59 58 58 58 59 60 62 63 62 61 61 60 60 60 61 60 57 57 55 55 55 55 53 50 53 55 57 58 60 60 58 62
59 61 62 62 60 61 62 62 61 58 57 55 57 57 57 58 59 60 62 61 61 60 60 60 60 60 60 59 59 57 57 55 53 53 51 52 53 55 59 59 60 62 62

GFSSE_sfc_temp_102.txt.gz
Temp
70 72 73 74 75 74 74 73 73 74 75 75 75 75 75 76 76 76 76 76 77 77 78 77 77 77 77 77 76 75 75 75 75 76 77 77 77 76 75 74 74 74 75
73 73 72 74 74 74 74 74 74 74 75 75 75 75 75 75 75 75 75 76 77 77 77 77 77 77 77 75 74 74 74 73 74 75 75 76 76 75 75 74 73 74 74
72 74 73 73 74 74 74 74 75 75 75 75 75 75 75 75 75 75 75 75 76 77 77 77 76 76 75 74 73 73 72 72 72 73 74 74 74 75 74 73 73 74 74
73 73 73 73 73 74 74 74 74 75 75 75 75 75 75 75 75 75 75 75 76 77 78 77 76 76 74 73 73 72 72 72 71 72 72 73 73 74 74 73 73 74 73
73 73 73 72 73 74 74 74 74 74 74 74 74 75 75 75 75 75 74 75 76 77 77 76 76 74 73 72 72 72 71 71 70 70 66 68 70 73 73 73 72 72 72
73 73 71 71 72 73 74 74 74 74 73 73 74 74 75 75 75 74 74 74 75 75 76 76 75 73 71 71 71 71 71 70 68 65 69 71 71 73 73 72 71 71 72
69 70 70 70 71 73 74 74 73 73 73 73 73 73 73 73 73 73 73 74 74 74 75 74 73 71 70 70 70 70 69 69 67 65 66 69 70 72 72 72 71 71 70
68 69 69 71 71 72 73 73 72 73 73 73 72 69 69 71 69 72 73 73 73 73 73 72 71 71 70 70 69 68 68 69 68 66 67 68 70 71 71 70 70 69 69
68 67 67 68 70 70 70 70 70 70 71 70 70 68 68 68 68 69 71 72 72 71 71 70 70 70 69 69 68 68 67 67 66 66 68 68 70 70 70 70 70 70 70
66 66 66 66 67 67 67 68 67 68 69 67 69 67 66 67 67 67 70 70 71 70 70 69 69 69 68 68 67 67 66 67 64 63 65 69 70 72 71 70 70 70 69
65 65 65 66 66 66 65 67 67 68 68 67 68 67 66 66 67 67 70 69 70 69 69 68 68 68 67 66 67 66 67 65 64 63 62 70 71 71 71 70 69 69 69
62 63 64 65 65 65 67 64 65 65 66 66 65 65 65 64 64 66 67 68 68 68 68 68 68 67 66 65 67 66 65 64 64 63 64 68 71 71 70 69 69 69 68
65 63 63 64 64 65 64 63 62 63 62 62 62 62 63 62 64 65 66 66 66 66 64 64 65 65 63 62 63 63 63 63 62 64 66 68 70 71 70 69 69 68 68
63 62 62 63 63 63 63 62 62 62 62 60 61 61 61 62 62 65 65 64 63 62 60 59 61 61 61 62 64 62 62 62 60 62 65 66 68 70 70 69 69 68 67
62 62 61 62 62 62 62 62 61 61 63 63 62 62 62 64 64 65 65 64 61 59 60 58 58 60 61 62 64 62 61 60 61 61 62 65 66 69 70 70 69 68 67
63 61 61 61 61 61 61 63 62 61 62 62 62 62 63 63 65 65 63 61 59 59 59 58 58 59 60 62 61 62 61 61 61 59 59 62 64 66 68 69 69 68 67
62 61 60 60 60 61 61 62 63 62 61 61 62 62 63 65 65 63 61 60 60 59 58 57 58 59 59 63 60 61 61 59 60 59 58 58 61 63 65 68 68 68 67
61 60 59 61 60 61 60 60 63 62 62 62 62 62 63 66 65 63 62 61 61 60 60 60 60 58 59 60 59 60 59 59 59 59 58 58 57 60 62 65 66 67 67
60 58 58 58 59 60 62 59 62 61 62 62 64 62 64 64 64 63 63 62 62 62 60 62 60 61 58 57 60 57 56 57 58 61 59 58 57 58 57 63 64 64 65
58 58 58 57 58 61 61 59 60 61 61 62 63 63 64 64 65 64 63 61 63 62 60 61 59 57 57 58 64 60 58 57 57 58 60 62 58 57 57 58 59 60 62
57 57 57 57 59 59 58 58 58 59 60 61 62 64 64 63 65 65 64 63 63 62 61 60 59 59 55 57 55 54 56 58 59 59 61 59 58 58 56 58 58 57 60
57 56 56 57 60 60 59 58 58 59 61 61 61 63 63 62 64 66 65 65 63 63 60 60 59 55 55 56 55 53 53 56 57 57 58 59 57 59 59 59 58 59 59
56 56 57 57 59 59 60 59 59 59 61 59 60 59 61 61 63 66 64 64 63 64 62 62 62 60 60 56 61 54 50 49 52 55 56 57 55 55 58 59 59 60 59
56 57 57 57 57 58 60 59 58 59 59 60 60 60 58 59 60 63 62 63 63 63 61 63 63 60 59 58 56 58 56 55 50 51 55 55 55 57 57 57 59 60 60
57 57 57 57 57 58 59 60 58 58 59 60 60 58 58 59 60 61 62 60 60 61 59 60 60 58 59 56 56 54 54 53 54 53 49 52 53 55 56 57 58 58 60
56 58 57 57 57 59 59 60 59 57 57 57 58 57 57 58 59 60 60 60 59 59 58 59 59 59 58 57 57 56 55 54 53 52 50 51 52 54 57 59 57 59 60

GFSSE_sfc_temp_105.txt.gz
Temp
71 72 73 74 74 73 73 73 74 74 75 75 76 76 76 76 76 76 76 76 77 78 78 78 77 77 78 77 76 75 75 75 75 75 76 77 77 76 75 74 74 73 75
71 72 72 73 74 73 73 73 74 74 75 75 75 75 75 75 75 76 76 76 77 78 78 77 77 78 77 76 75 74 74 74 74 74 75 76 75 76 75 73 73 73 74
71 72 72 72 73 74 74 74 75 75 75 75 75 75 75 75 75 75 75 76 76 77 77 77 77 76 76 74 73 73 73 73 73 73 74 73 74 75 74 73 73 73 74
72 72 72 72 73 74 74 74 74 75 75 75 75 75 75 75 75 75 75 75 76 78 77 77 76 75 74 73 72 72 72 72 72 72 73 72 73 74 74 74 74 74 74
71 72 72 72 72 73 73 73 74 75 74 74 74 75 75 75 75 75 74 75 76 77 78 77 76 74 72 72 71 71 71 70 70 71 70 67 70 73 74 73 73 73 72
70 72 71 71 72 73 73 73 73 73 73 73 74 74 75 75 75 74 74 74 75 77 77 76 74 72 71 70 70 70 70 69 68 67 70 70 70 73 73 72 71 71 71
68 69 70 69 71 73 73 73 73 73 73 73 73 72 73 74 73 73 73 74 74 75 75 74 72 71 70 70 70 69 69 68 65 65 66 69 70 72 73 72 71 71 71
68 68 69 70 71 72 72 72 72 72 72 72 71 70 71 71 70 73 72 72 73 73 73 72 70 70 70 70 69 68 67 68 67 65 66 68 71 72 72 71 70 70 70
67 67 67 68 70 70 70 70 70 70 70 71 70 70 69 68 69 70 70 72 72 72 71 70 70 69 70 69 68 67 66 67 65 66 67 68 71 71 71 71 71 70 69
66 65 65 66 67 67 68 69 69 69 68 68 68 68 68 68 67 69 68 70 71 71 70 70 69 69 68 68 67 66 66 66 63 62 64 67 70 71 71 70 71 70 70
63 64 64 65 65 65 65 66 68 68 68 67 67 66 66 67 67 67 68 69 71 70 69 69 68 67 66 67 66 66 66 64 64 62 63 68 71 72 72 71 70 69 69
62 62 63 64 64 64 65 65 64 66 66 67 67 66 65 65 66 67 67 68 70 68 68 68 67 66 66 64 65 65 64 63 62 60 62 68 71 72 71 70 69 69 69
63 62 62 63 63 64 63 64 64 65 65 65 65 64 64 64 65 63 64 66 66 67 65 65 64 62 62 64 61 63 62 61 58 60 64 68 70 72 71 70 69 69 68
62 62 62 62 64 65 63 62 62 64 63 62 64 64 62 62 62 62 65 66 64 64 61 61 59 60 60 61 62 62 61 61 57 58 63 67 69 70 70 70 69 68 68
61 61 61 61 62 63 63 62 61 62 62 61 62 62 62 61 62 63 65 64 64 60 61 60 60 59 60 62 61 61 59 58 58 58 58 65 66 69 70 70 69 68 68
63 61 60 61 61 61 61 62 62 62 63 62 61 61 62 63 63 63 64 64 61 62 60 60 60 61 59 60 59 60 59 59 57 57 58 62 64 66 68 69 69 68 68
63 61 60 60 60 60 60 63 62 61 62 62 62 62 62 64 63 65 65 63 61 60 57 56 57 57 57 61 58 59 59 58 58 57 57 57 61 63 65 67 68 68 67
61 60 59 61 59 59 59 63 63 63 61 61 62 62 62 63 65 63 63 61 59 59 59 59 58 56 59 59 56 56 57 58 57 57 57 57 57 60 62 65 66 67 67
61 60 59 58 58 58 59 59 62 62 61 62 62 61 62 62 64 63 62 60 59 59 59 59 54 57 58 57 57 54 55 56 57 60 57 56 57 58 59 63 64 64 65
59 59 58 57 57 58 59 59 61 61 61 63 62 62 61 63 62 62 61 59 60 59 57 58 58 54 56 57 61 56 53 54 55 56 57 59 59 58 58 57 57 58 62
57 56 56 56 56 58 59 58 58 59 60 61 62 62 63 62 62 61 61 60 59 60 59 58 57 56 53 56 56 53 53 54 54 55 56 56 57 57 57 57 55 55 57
56 56 56 56 57 58 58 57 59 59 60 60 61 62 61 61 62 62 61 61 59 60 57 59 58 53 53 56 54 52 48 52 55 55 56 57 55 57 58 57 56 56 56
55 55 56 57 57 58 60 59 58 58 60 59 60 62 61 60 62 62 62 62 61 61 59 59 59 55 57 52 59 54 48 49 50 53 54 54 55 55 57 57 57 58 57
55 55 56 58 56 57 58 58 59 58 58 59 59 60 61 60 61 62 63 63 62 62 61 61 62 58 58 56 53 57 56 55 50 48 53 54 56 56 55 55 58 58 58
55 56 56 57 55 56 59 59 57 58 60 60 58 58 59 60 60 61 61 61 60 61 60 61 60 58 61 58 57 54 54 54 53 52 49 52 53 54 55 57 57 58 58
55 55 55 57 58 56 57 59 59 58 58 59 58 56 58 59 59 60 61 60 59 59 58 58 59 59 60 58 57 55 54 54 52 52 51 52 52 54 56 56 55 57 57

GFSSE_sfc_temp_108.txt.gz
Temp
69 70 73 74 74 74 73 73 73 74 75 76 76 76 76 76 76 76 76 76 77 78 78 78 77 77 78 77 76 76 76 75 75 76 77 77 77 76 75 74 74 74 75
69 70 72 74 74 74 73 73 74 74 75 76 76 76 76 75 75 76 76 76 77 78 78 77 77 78 77 76 75 75 74 74 74 74 75 76 76 76 75 74 74 74 74
69 71 71 73 73 73 74 74 74 75 76 76 76 75 75 76 76 76 76 76 77 78 78 78 78 77 76 75 74 74 74 73 73 73 74 74 74 75 75 74 74 74 74
70 70 71 72 73 73 74 74 74 75 76 76 75 75 75 75 75 75 75 75 76 78 78 78 77 76 74 73 73 73 72 72 72 72 72 72 74 75 75 74 74 74 74
70 70 71 71 72 73 73 74 74 75 74 74 75 75 75 75 75 75 75 75 76 77 77 77 76 74 72 71 71 71 71 71 71 70 68 69 72 74 75 74 73 73 73
69 70 70 70 71 72 73 73 74 74 73 73 74 74 74 75 75 74 74 74 76 76 76 76 74 72 71 70 70 70 70 70 70 69 69 71 72 74 74 73 72 72 72
67 69 69 69 71 72 73 74 73 73 72 73 74 75 74 75 74 74 73 73 74 76 75 74 72 71 70 70 70 69 69 68 68 65 67 68 71 74 74 72 72 71 71
67 68 69 70 71 72 72 72 72 72 72 72 72 71 71 72 72 73 71 73 73 74 72 71 71 70 70 69 69 68 67 68 67 66 67 68 72 73 73 72 71 71 70
67 67 67 68 70 70 70 70 70 69 70 71 70 70 71 70 70 71 72 73 73 72 71 70 70 69 69 68 67 67 66 66 65 67 68 69 72 72 72 72 71 70 70
65 66 65 66 67 69 71 69 69 68 69 69 69 68 68 69 69 70 71 71 72 71 71 70 69 69 68 67 67 66 66 66 63 63 64 69 71 72 71 71 70 70 70
63 64 64 65 65 67 69 68 69 66 69 68 68 68 66 67 68 69 69 71 71 70 69 69 68 68 67 66 66 66 65 63 64 63 64 69 71 71 72 71 71 70 69
61 62 63 64 64 64 65 65 66 67 67 67 67 66 66 66 65 67 67 69 70 69 69 68 67 67 65 63 64 64 62 62 63 62 65 68 71 72 72 71 70 70 69
62 62 63 63 63 63 65 65 65 66 66 67 66 65 65 66 65 65 65 67 67 68 67 65 65 62 61 62 59 60 61 61 62 62 66 68 71 72 71 70 70 69 69
61 62 62 62 63 65 64 64 65 65 65 65 65 65 63 64 64 63 63 65 66 65 63 62 62 58 59 59 60 60 60 60 59 60 65 67 69 71 71 70 70 69 68
60 61 61 61 64 64 63 63 63 64 64 65 64 64 64 63 63 63 65 65 65 64 62 60 59 59 58 59 60 60 58 58 59 60 61 65 67 70 71 71 70 69 68
63 62 61 61 62 64 63 62 62 63 62 62 63 63 63 63 63 63 65 65 61 63 62 62 61 59 59 60 59 59 59 59 59 58 59 63 65 67 69 70 70 69 69
63 61 60 60 60 62 63 63 62 62 62 61 62 62 63 63 63 64 64 63 63 63 60 60 57 59 58 60 58 58 58 57 57 58 58 59 62 63 65 68 69 69 68
60 60 60 61 60 59 60 63 62 62 62 62 62 62 62 63 63 64 64 63 62 61 60 60 58 56 57 58 56 56 56 57 57 57 58 58 59 61 63 65 66 67 67
61 60 60 59 59 58 58 62 62 62 62 62 62 62 62 62 63 64 64 63 60 60 60 61 57 57 56 55 56 54 55 55 56 58 57 57 58 59 59 63 64 64 65
60 60 60 59 58 57 58 60 62 62 61 62 62 62 62 62 63 63 63 61 60 59 58 60 56 54 56 56 59 54 53 54 55 55 56 59 57 58 59 59 61 61 62
58 58 58 58 56 59 59 59 60 60 60 61 62 62 62 62 63 63 61 59 59 59 58 58 57 56 52 56 54 52 53 54 54 54 56 56 57 58 58 59 58 58 60
59 58 57 58 57 59 61 60 60 59 60 61 61 62 62 61 63 60 59 59 59 58 57 58 58 52 52 56 53 52 49 53 55 56 55 56 56 58 58 58 57 58 58
57 57 57 57 59 58 57 59 57 59 59 59 60 61 61 61 60 60 59 58 59 59 57 58 58 56 55 52 59 53 48 49 51 53 54 54 56 55 57 58 58 58 58
58 57 56 58 59 56 57 57 56 57 58 59 59 61 60 60 60 60 60 59 59 60 58 59 60 55 59 54 54 56 54 52 49 48 52 54 55 56 56 57 59 58 59
57 55 58 59 57 55 56 58 58 58 59 59 58 59 58 58 59 60 60 59 59 60 59 60 57 57 60 56 57 53 54 53 53 52 50 51 53 56 58 57 57 58 59
56 57 58 57 57 54 56 58 58 57 58 58 57 57 57 58 58 58 60 60 59 59 58 58 59 58 60 60 56 55 54 54 54 53 51 52 53 55 56 56 57 58 58

GFSSE_sfc_temp_111.txt.gz
Temp
80 80 73 74 76 74 74 73 74 75 75 76 76 76 76 76 76 76 76 77 77 78 78 78 78 77 78 78 77 76 75 75 75 76 77 77 77 76 75 75 76 81 75
83 80 72 73 75 75 74 74 74 75 76 76 76 76 75 76 76 76 76 77 77 78 78 78 77 78 77 77 75 75 74 74 74 74 75 76 76 76 75 75 75 78 75
80 79 77 73 75 74 74 74 75 76 76 76 76 75 75 76 76 76 76 77 77 78 78 78 78 77 77 75 74 74 74 73 73 74 76 81 78 75 75 74 74 74 75
80 79 79 73 74 74 74 74 75 76 76 76 75 75 75 76 76 76 76 76 77 78 78 78 77 77 75 74 74 73 73 73 72 73 79 79 80 75 75 74 74 75 74
79 79 78 72 73 73 73 74 74 75 75 75 75 75 75 75 76 76 75 75 76 77 78 78 76 75 73 72 72 72 72 71 71 77 82 81 81 76 75 74 74 74 74
78 78 73 70 72 73 73 73 74 75 74 74 74 75 76 75 76 75 75 75 76 77 77 77 75 73 71 70 70 71 70 70 73 81 80 77 78 75 74 73 72 72 72
77 77 75 70 71 73 74 74 73 73 73 73 75 75 76 75 73 75 74 74 74 75 75 74 72 71 70 70 70 69 69 70 80 80 79 78 78 74 74 73 72 72 72
75 75 75 72 71 72 73 74 72 72 70 71 73 73 72 70 73 74 73 73 73 73 72 71 70 70 70 69 68 68 68 70 77 79 79 79 74 74 73 73 72 71 72
76 75 75 75 74 70 70 71 70 71 71 71 71 71 72 72 72 73 73 73 73 72 72 70 69 69 69 68 68 67 66 69 78 78 78 78 72 73 73 72 71 71 70
75 75 75 75 75 75 75 69 69 69 69 69 69 68 69 70 70 71 71 72 72 72 71 69 68 68 67 67 67 66 66 68 78 77 77 76 72 73 73 72 71 70 70
72 73 74 73 73 73 73 73 69 68 69 68 69 68 68 73 74 73 70 71 71 71 70 68 68 67 66 66 66 66 68 77 76 76 78 70 72 72 72 71 71 70 70
71 69 73 73 71 70 72 71 73 71 71 71 72 72 73 72 73 75 72 69 70 70 69 68 68 66 69 75 73 67 76 74 75 73 75 69 72 72 72 71 70 70 70
74 72 71 72 73 70 70 68 69 68 68 69 70 72 71 71 72 71 68 70 70 70 72 70 70 71 74 75 74 74 73 73 74 76 72 68 71 72 72 71 70 69 69
72 72 72 72 71 70 69 67 67 67 67 66 67 68 70 70 71 71 67 70 68 70 69 72 68 68 72 73 72 72 72 74 75 75 73 67 70 72 71 70 70 69 68
71 72 71 71 71 68 67 66 66 66 67 66 65 66 67 70 69 69 71 67 69 67 68 65 70 68 71 71 72 72 71 72 72 74 73 66 67 70 71 71 70 70 69
72 71 71 70 69 68 67 66 66 66 67 68 65 65 66 66 67 70 70 70 65 67 66 67 70 67 71 71 70 71 71 71 72 72 75 73 66 68 69 70 70 69 69
73 72 70 69 68 67 67 66 65 65 65 65 66 65 66 65 65 68 69 65 68 69 66 67 69 70 70 71 70 70 70 70 71 71 73 74 71 65 66 68 69 69 69
74 71 70 69 66 66 66 67 65 64 64 63 63 63 65 66 66 66 68 65 67 67 67 68 69 69 68 67 69 68 69 69 70 71 72 73 74 74 66 66 67 68 68
73 70 68 68 67 64 65 65 64 65 64 63 63 63 63 64 64 65 69 66 67 65 68 66 68 68 66 67 68 68 68 70 69 71 70 70 71 72 74 65 64 64 66
70 69 69 68 68 64 64 64 64 65 64 65 64 63 63 63 63 63 66 66 64 63 64 68 65 68 68 68 66 66 67 68 70 70 70 71 71 70 71 71 71 69 63
67 67 67 66 65 64 62 61 62 61 62 62 63 63 63 63 62 63 62 61 62 62 63 66 65 64 63 67 64 63 65 65 66 68 69 70 69 70 70 70 71 72 70
63 66 65 66 64 65 65 63 67 63 62 63 64 64 65 63 63 63 61 60 60 60 61 63 65 64 64 66 65 64 59 62 64 65 67 67 67 69 69 68 69 69 70
62 61 62 64 63 65 67 65 62 63 62 61 62 63 63 63 63 62 62 61 60 60 59 61 65 65 62 64 67 67 59 60 61 65 64 66 66 66 68 68 67 68 69
62 62 62 63 63 63 64 64 61 62 62 62 62 63 61 62 62 61 60 61 60 60 60 61 66 67 65 62 66 67 68 66 62 58 64 66 66 66 66 68 68 68 68
64 60 61 65 63 61 62 62 61 62 63 62 61 61 61 61 60 59 59 58 59 59 61 61 63 66 67 65 65 64 64 66 65 65 62 63 64 67 68 67 68 68 67
64 59 62 64 61 60 63 62 62 62 62 61 60 59 59 58 57 57 57 57 58 58 60 62 63 66 66 66 68 65 65 67 65 65 64 64 63 65 67 68 66 66 67

GFSSE_sfc_temp_114.txt.gz
Temp
94 92 74 74 75 74 74 74 75 75 76 76 76 76 76 76 76 76 76 77 77 78 79 78 78 78 78 77 77 76 76 75 75 76 77 77 77 77 76 76 77 83 75
96 91 73 74 75 74 74 74 74 75 76 76 76 76 76 76 76 76 76 77 77 78 79 78 78 78 78 77 75 75 74 74 74 75 76 76 76 77 76 76 77 79 75
93 90 81 73 75 74 75 75 75 76 76 76 76 76 76 76 76 76 76 77 77 78 78 78 78 77 77 75 74 74 74 74 74 74 76 86 82 76 75 74 74 75 75
94 90 88 72 74 74 74 74 75 76 76 76 76 76 75 76 76 76 76 76 77 78 78 78 77 77 75 74 74 73 73 73 73 74 86 83 82 75 75 75 75 75 75
92 92 87 73 73 74 74 74 75 76 75 75 75 76 76 76 76 74 75 76 76 77 78 77 77 75 73 72 72 72 72 73 73 80 84 81 84 77 75 75 74 74 75
91 91 75 71 72 73 74 74 75 75 74 74 73 76 76 76 76 75 75 75 76 77 77 76 75 73 71 71 71 71 71 72 72 83 81 81 80 75 75 73 73 72 72
89 88 80 70 72 73 74 74 74 74 73 74 74 74 76 71 70 69 72 74 75 75 76 74 73 71 70 70 70 70 70 71 87 81 84 79 78 74 74 73 72 72 72
86 85 82 73 72 73 73 73 73 73 73 73 74 74 73 71 72 71 74 74 74 73 73 72 71 70 69 69 69 69 69 70 81 80 81 79 74 74 74 73 72 72 72
86 83 82 81 77 71 71 71 70 71 71 71 72 72 72 71 71 73 74 73 73 72 72 71 70 69 69 68 68 68 68 71 79 79 78 78 72 74 74 73 72 72 72
86 84 83 83 81 79 79 70 69 70 70 70 70 70 68 69 70 72 71 72 72 71 71 70 69 68 68 67 67 67 68 70 80 80 79 77 72 73 73 72 72 71 71
83 84 84 83 82 79 78 77 70 70 69 68 70 69 69 79 78 77 75 70 71 70 70 69 68 67 66 66 66 67 68 80 78 80 77 70 72 73 73 72 71 71 70
82 82 85 83 82 77 76 77 78 80 80 80 79 78 81 79 81 81 76 69 70 70 68 68 67 66 69 77 75 69 79 79 82 81 75 69 72 73 72 71 70 70 70
86 83 83 83 81 75 76 76 79 76 79 78 79 78 79 78 79 80 80 78 74 69 76 72 71 78 77 77 77 78 80 81 84 84 73 68 71 72 72 71 70 70 70
87 84 82 83 81 74 74 76 77 71 73 71 74 75 74 76 76 79 81 80 77 69 72 74 74 76 77 79 79 79 79 82 83 84 74 67 70 72 72 72 70 70 69
86 84 82 83 81 75 72 73 75 72 70 70 70 72 72 76 76 80 80 79 77 72 67 69 73 75 75 77 79 79 79 80 80 83 80 66 68 70 71 71 70 70 69
86 84 83 82 81 77 74 73 72 74 72 69 69 72 73 74 72 76 74 76 71 70 67 69 67 74 75 77 78 78 78 79 79 79 80 73 66 68 70 70 70 70 69
88 85 83 81 81 77 77 76 74 75 75 68 68 70 72 71 70 73 74 74 75 71 70 67 66 72 75 78 77 77 79 78 79 78 79 76 72 65 66 68 69 69 69
91 87 84 83 79 75 76 76 76 74 73 71 68 68 69 69 70 70 70 72 72 68 69 66 67 73 76 77 74 76 78 78 77 77 80 79 77 76 67 67 68 68 68
89 88 82 80 78 74 76 74 72 72 70 69 67 68 70 69 68 69 68 71 70 67 70 68 66 74 75 77 75 76 77 77 76 78 77 78 78 79 79 66 65 66 67
86 85 82 79 78 72 71 68 70 71 69 68 67 66 67 67 68 66 65 66 67 66 70 69 68 74 75 75 75 73 75 75 77 76 77 78 78 77 79 76 74 71 63
82 81 79 77 77 68 67 65 66 67 66 69 71 66 64 65 65 65 64 64 65 65 70 69 71 72 71 74 71 68 70 71 72 76 77 77 77 77 77 77 78 79 72
80 78 78 79 77 68 68 72 72 66 66 67 67 66 66 64 64 64 63 63 63 66 65 66 70 71 70 74 69 69 61 64 70 74 76 76 74 77 76 76 76 76 77
77 77 78 79 78 72 75 71 74 73 68 68 67 66 65 65 64 63 63 62 62 63 63 64 69 71 68 71 73 71 65 64 68 72 71 74 73 74 76 75 74 74 74
77 76 75 77 76 74 76 73 73 72 70 70 71 70 66 70 68 64 63 61 61 61 62 63 66 68 71 68 73 76 75 75 67 63 71 71 73 72 72 74 73 72 75
77 72 68 71 71 73 75 76 74 73 74 70 72 71 69 67 65 65 63 61 61 60 61 61 64 66 69 73 72 71 71 72 74 72 65 68 72 74 75 74 74 75 74
74 67 65 68 67 68 70 74 73 70 68 68 69 67 66 64 63 61 61 61 60 60 59 61 62 65 71 72 72 72 71 71 71 72 72 69 68 71 75 75 73 75 76

GFSSE_sfc_temp_117.txt.gz
Temp
100 90 74 75 75 75 75 75 75 75 76 76 76 76 76 76 76 76 77 77 77 78 79 78 78 78 78 77 77 76 75 75 75 76 77 78 78 78 77 76 78 81 75
100 91 73 74 75 75 75 75 75 75 76 76 76 76 75 76 76 76 77 77 78 78 78 78 78 78 78 76 75 75 75 74 74 75 76 77 77 78 78 76 77 78 75
97 91 82 74 74 75 75 75 75 76 76 76 76 76 75 76 76 76 76 77 77 78 78 78 78 78 77 75 74 74 74 74 74 75 77 83 81 76 75 74 74 75 75
98 92 88 73 74 74 75 75 75 76 76 76 76 76 76 76 76 76 76 76 77 77 78 78 78 77 75 74 73 73 74 73 73 75 82 82 81 75 75 75 75 75 75
98 96 86 73 73 74 74 75 75 75 75 75 75 76 76 76 76 71 72 74 76 77 78 78 77 75 73 72 72 73 73 73 73 76 82 82 80 77 75 75 74 74 75
97 97 74 72 73 74 74 75 75 75 74 75 75 75 76 76 72 69 71 72 75 76 77 77 75 73 72 71 71 72 72 72 71 83 81 80 80 75 75 73 73 73 73
95 93 82 71 73 73 74 75 75 75 74 74 74 75 75 72 71 71 72 71 69 74 76 75 73 72 71 71 71 71 71 71 84 80 82 80 77 74 74 73 72 72 72
91 89 83 73 72 73 73 73 73 73 73 73 73 73 72 70 72 72 72 71 70 73 73 72 71 71 70 70 70 70 70 68 79 76 77 76 74 74 74 73 72 71 71
90 87 83 81 78 71 71 71 71 71 72 72 72 72 70 69 70 72 72 71 71 73 72 71 70 70 70 69 69 69 69 70 81 77 76 78 73 74 73 73 72 72 71
89 87 85 84 81 80 79 70 70 70 70 70 71 70 68 68 70 70 71 73 73 72 71 70 69 69 69 68 68 68 69 69 79 79 77 76 73 74 73 73 72 72 71
88 87 87 85 83 82 81 78 71 70 69 69 71 68 68 78 78 77 75 71 71 70 69 68 68 68 67 67 68 68 69 80 78 76 75 70 73 73 73 72 71 71 71
86 86 87 86 84 83 81 80 79 81 81 81 81 78 78 80 81 81 76 69 70 69 68 68 67 66 69 77 75 68 78 79 77 76 75 69 72 73 72 71 71 71 70
89 88 87 86 85 84 78 80 81 81 83 82 81 81 80 80 78 81 77 78 74 71 75 70 66 75 78 78 78 76 78 80 77 76 73 69 72 73 72 71 71 71 70
92 88 87 87 84 81 82 82 84 81 84 83 81 79 77 77 77 77 81 80 76 74 74 71 77 77 77 77 77 76 76 82 85 82 72 67 70 72 72 71 71 71 69
93 91 87 87 85 80 80 83 84 81 82 82 82 78 77 76 77 79 79 77 75 72 72 69 76 75 76 77 78 76 81 83 83 81 77 66 68 70 71 71 71 71 70
93 91 89 86 86 83 75 77 80 80 80 77 77 79 77 76 75 77 76 76 71 73 71 66 68 75 73 77 76 81 81 82 82 82 77 71 66 68 70 71 71 71 71
93 92 89 86 86 84 76 76 78 82 80 76 75 78 77 75 75 75 75 75 75 73 68 65 64 66 73 76 74 80 80 80 80 80 78 75 70 65 67 69 69 70 69
96 92 90 89 85 84 81 81 82 80 79 76 73 77 77 75 75 75 75 73 75 72 67 64 66 65 64 71 77 73 74 80 79 79 80 78 76 75 66 66 68 68 68
95 94 91 87 85 83 82 82 81 78 78 77 75 74 75 75 74 74 73 73 73 70 70 67 65 64 64 68 74 71 72 78 78 80 78 77 75 75 74 66 66 66 67
94 93 90 89 85 82 81 80 81 78 73 74 74 75 74 74 74 72 73 73 72 69 68 65 65 64 68 72 74 71 70 73 78 78 78 80 77 77 77 73 71 70 64
92 89 87 86 83 82 79 75 71 71 70 71 73 73 74 72 72 73 71 71 67 65 65 66 65 64 64 75 68 66 66 71 73 77 77 78 78 79 78 76 75 76 70
88 85 86 86 84 82 74 71 75 77 74 76 75 73 72 71 71 70 69 67 64 64 64 63 64 63 63 72 69 66 59 62 69 76 77 77 76 78 78 78 77 77 76
85 84 84 85 84 80 71 74 78 77 71 70 68 71 71 70 67 66 66 66 64 63 62 63 64 64 61 67 71 68 62 62 65 73 73 76 75 75 77 77 77 77 78
86 85 84 85 84 77 71 75 77 74 69 72 73 72 71 72 69 65 64 64 63 63 63 62 65 66 65 66 68 72 74 74 65 62 72 73 75 74 74 76 75 75 75
88 83 82 84 83 76 75 78 77 78 76 77 77 74 71 70 70 66 64 62 61 62 62 62 62 64 66 69 69 69 71 74 71 68 64 68 72 74 75 74 75 74 74
82 80 77 79 81 77 75 78 76 77 77 77 75 73 69 70 71 67 66 63 62 62 61 61 62 63 65 68 72 72 72 70 70 71 68 68 68 72 75 75 73 73 76

GFSSE_sfc_temp_123.txt.gz
Temp
73 73 74 75 75 75 75 75 75 75 75 75 75 75 75 76 76 76 76 77 77 78 79 78 78 78 78 78 76 76 76 76 75 77 77 78 78 77 76 75 75 76 75
74 74 73 74 75 75 75 75 75 75 75 75 75 75 75 75 75 76 76 77 77 78 78 78 78 78 78 76 74 75 74 74 74 75 76 77 77 77 76 74 74 74 75
73 74 74 73 74 75 75 75 75 75 75 75 75 75 75 75 76 76 76 75 76 77 78 78 77 77 76 75 74 74 74 74 74 74 74 74 75 76 75 74 74 74 75
75 74 73 73 73 74 74 74 75 75 75 75 75 75 75 75 75 73 73 71 72 73 77 78 77 76 75 73 73 73 74 74 73 74 73 74 75 76 75 74 74 75 75
77 75 73 72 73 73 74 74 74 75 74 74 74 75 75 74 74 73 72 71 71 71 72 77 77 75 73 72 73 73 73 73 73 74 71 71 73 75 75 74 74 74 74
79 75 71 71 72 73 74 74 74 74 75 74 74 75 74 74 74 73 72 71 71 70 69 77 75 73 72 71 72 72 72 71 72 70 72 73 72 75 75 73 73 73 73
73 72 71 70 72 73 74 74 74 74 75 74 74 73 73 74 73 72 72 72 71 71 70 72 74 72 71 71 72 71 69 69 71 70 69 69 72 75 74 73 72 72 72
72 71 71 72 72 72 73 73 73 73 75 74 73 72 72 72 72 72 71 72 72 72 71 71 71 70 71 71 70 68 68 69 71 69 68 68 73 74 74 73 71 71 71
73 70 69 70 71 71 71 71 71 72 73 72 71 71 71 70 70 71 71 72 72 71 71 70 70 68 69 69 68 68 68 70 69 69 70 69 72 73 73 72 72 71 71
72 70 69 69 69 68 68 70 70 70 71 70 70 69 69 69 69 70 70 70 71 70 70 71 69 68 68 66 67 67 67 68 67 68 68 70 72 73 73 72 72 71 71
72 70 70 69 69 69 68 70 70 70 70 69 69 68 67 68 67 69 69 69 70 70 70 70 68 68 66 66 66 65 68 67 68 67 69 70 72 73 73 72 71 71 71
70 70 71 69 69 70 73 68 68 69 68 68 69 68 67 66 66 70 69 69 70 70 69 69 68 67 67 66 65 66 67 68 67 67 69 69 73 73 73 72 71 71 70
73 73 72 72 70 70 70 68 68 68 68 68 68 67 67 69 66 66 66 67 66 68 67 68 66 65 66 66 65 66 67 68 66 69 70 68 71 73 72 72 71 71 70
75 74 73 73 72 70 69 69 69 69 68 68 68 68 68 67 67 65 66 65 66 65 66 67 65 64 66 67 67 67 66 65 64 67 67 67 70 72 72 72 71 70 70
76 76 75 75 74 72 70 69 69 69 70 70 69 69 70 68 68 66 66 65 66 65 64 63 63 63 65 67 68 68 65 66 66 67 67 66 67 70 72 72 72 71 70
78 76 77 75 75 73 71 70 68 70 68 70 70 70 70 68 67 68 65 66 65 66 65 64 63 64 64 68 67 67 65 66 67 66 65 66 65 68 69 71 71 71 70
75 78 76 75 75 73 72 70 70 70 71 68 71 69 69 68 67 66 66 66 66 66 65 64 64 64 64 66 66 68 64 68 67 66 64 64 65 64 66 69 70 70 70
76 77 77 79 75 73 73 71 71 68 68 67 68 69 68 68 68 66 65 65 66 65 65 63 63 63 63 63 63 63 65 68 67 66 64 64 63 65 64 66 68 69 69
76 75 76 77 74 72 72 72 69 68 67 67 66 67 68 68 68 66 65 64 65 64 64 63 61 64 63 62 63 62 66 67 66 67 64 63 62 61 61 64 65 65 67
79 73 77 76 75 72 70 69 69 66 66 67 67 67 67 68 67 66 64 64 65 64 62 62 61 61 62 62 64 63 64 66 67 64 64 65 63 62 61 62 62 63 64
73 72 75 74 74 71 68 67 67 67 68 65 68 69 66 67 67 66 65 64 65 64 63 62 61 61 60 62 60 59 60 64 65 65 64 63 63 63 61 61 60 60 63
75 71 72 74 73 73 72 71 69 69 68 66 69 69 70 68 67 65 65 64 64 64 62 61 61 60 58 62 59 58 55 59 62 64 66 66 62 64 63 63 62 61 61
71 68 72 74 73 74 73 70 65 64 63 63 66 66 67 67 66 65 64 64 64 64 63 62 61 61 59 60 62 59 54 53 59 62 61 65 61 60 62 63 63 63 62
70 69 73 73 73 73 72 71 68 67 63 64 66 67 67 67 66 66 64 64 63 64 64 63 63 62 62 59 60 62 61 61 59 55 60 59 65 64 62 63 63 63 63
69 69 72 72 71 72 71 70 67 66 67 66 67 66 66 66 66 65 64 64 64 64 64 63 62 62 62 61 61 60 59 59 64 61 57 56 58 64 63 64 63 62 64
64 64 65 68 66 69 68 68 68 67 64 66 64 64 63 64 64 64 63 63 64 63 63 63 63 62 61 61 62 61 60 59 61 60 58 60 59 57 59 61 60 60 61